<?xml version="1.0" encoding="UTF-8" standalone="no" ?>
<gpx xmlns="http://www.topografix.com/GPX/1/1" xmlns:xsi="http://www.w3.org/2001/XMLSchema-instance" xsi:schemaLocation="http://www.topografix.com/GPX/1/1 http://www.topografix.com/GPX/1/1/gpx.xsd" version="1.1" creator="VisuGPX - https://www.visugpx.com">
  <metadata>
    <name>Sambuis N &gt; Combe de l'Arbé, en boucle</name>
    <desc><![CDATA[http://www.skitour.fr/sorties/cime-du-sambuis,23960.html]]></desc>
  </metadata>
  <trk>
    <name><![CDATA[JAN-23-10 16:18:27]]></name>
    <trkseg>
      <trkpt lat="45.28512" lon="6.20685">
        <ele>1210.92</ele>
        <time>2010-01-23T07:03:24Z</time>
      </trkpt>
      <trkpt lat="45.28512" lon="6.20684">
        <ele>1225.82</ele>
        <time>2010-01-23T07:03:25Z</time>
      </trkpt>
      <trkpt lat="45.28512" lon="6.20683">
        <ele>1227.74</ele>
        <time>2010-01-23T07:03:26Z</time>
      </trkpt>
      <trkpt lat="45.28514" lon="6.20679">
        <ele>1225.82</ele>
        <time>2010-01-23T07:03:30Z</time>
      </trkpt>
      <trkpt lat="45.28516" lon="6.20676">
        <ele>1221.01</ele>
        <time>2010-01-23T07:03:32Z</time>
      </trkpt>
      <trkpt lat="45.28517" lon="6.20672">
        <ele>1229.66</ele>
        <time>2010-01-23T07:03:35Z</time>
      </trkpt>
      <trkpt lat="45.28516" lon="6.20671">
        <ele>1226.3</ele>
        <time>2010-01-23T07:03:36Z</time>
      </trkpt>
      <trkpt lat="45.28516" lon="6.2067">
        <ele>1226.3</ele>
        <time>2010-01-23T07:03:37Z</time>
      </trkpt>
      <trkpt lat="45.28515" lon="6.2067">
        <ele>1231.11</ele>
        <time>2010-01-23T07:03:38Z</time>
      </trkpt>
      <trkpt lat="45.28514" lon="6.20669">
        <ele>1228.7</ele>
        <time>2010-01-23T07:03:39Z</time>
      </trkpt>
      <trkpt lat="45.28513" lon="6.20668">
        <ele>1224.86</ele>
        <time>2010-01-23T07:03:40Z</time>
      </trkpt>
      <trkpt lat="45.28512" lon="6.20667">
        <ele>1224.86</ele>
        <time>2010-01-23T07:03:41Z</time>
      </trkpt>
      <trkpt lat="45.28511" lon="6.20667">
        <ele>1227.74</ele>
        <time>2010-01-23T07:03:42Z</time>
      </trkpt>
      <trkpt lat="45.2851" lon="6.20667">
        <ele>1221.97</ele>
        <time>2010-01-23T07:03:43Z</time>
      </trkpt>
      <trkpt lat="45.28508" lon="6.2066">
        <ele>1227.74</ele>
        <time>2010-01-23T07:03:50Z</time>
      </trkpt>
      <trkpt lat="45.28507" lon="6.20656">
        <ele>1231.11</ele>
        <time>2010-01-23T07:03:54Z</time>
      </trkpt>
      <trkpt lat="45.28501" lon="6.20644">
        <ele>1229.18</ele>
        <time>2010-01-23T07:04:01Z</time>
      </trkpt>
      <trkpt lat="45.285" lon="6.20632">
        <ele>1232.07</ele>
        <time>2010-01-23T07:04:09Z</time>
      </trkpt>
      <trkpt lat="45.28501" lon="6.20628">
        <ele>1235.91</ele>
        <time>2010-01-23T07:04:12Z</time>
      </trkpt>
      <trkpt lat="45.285" lon="6.20624">
        <ele>1233.51</ele>
        <time>2010-01-23T07:04:14Z</time>
      </trkpt>
      <trkpt lat="45.28496" lon="6.20616">
        <ele>1235.43</ele>
        <time>2010-01-23T07:04:19Z</time>
      </trkpt>
      <trkpt lat="45.28495" lon="6.20612">
        <ele>1232.07</ele>
        <time>2010-01-23T07:04:22Z</time>
      </trkpt>
      <trkpt lat="45.28496" lon="6.20611">
        <ele>1235.43</ele>
        <time>2010-01-23T07:04:23Z</time>
      </trkpt>
      <trkpt lat="45.28497" lon="6.20611">
        <ele>1238.8</ele>
        <time>2010-01-23T07:04:36Z</time>
      </trkpt>
      <trkpt lat="45.28498" lon="6.20611">
        <ele>1238.8</ele>
        <time>2010-01-23T07:04:37Z</time>
      </trkpt>
      <trkpt lat="45.28499" lon="6.20613">
        <ele>1239.28</ele>
        <time>2010-01-23T07:04:40Z</time>
      </trkpt>
      <trkpt lat="45.28499" lon="6.20614">
        <ele>1241.2</ele>
        <time>2010-01-23T07:04:52Z</time>
      </trkpt>
      <trkpt lat="45.285" lon="6.20601">
        <ele>1244.56</ele>
        <time>2010-01-23T07:05:06Z</time>
      </trkpt>
      <trkpt lat="45.28502" lon="6.20597">
        <ele>1245.04</ele>
        <time>2010-01-23T07:05:10Z</time>
      </trkpt>
      <trkpt lat="45.28499" lon="6.2058">
        <ele>1247.45</ele>
        <time>2010-01-23T07:05:24Z</time>
      </trkpt>
      <trkpt lat="45.28497" lon="6.20571">
        <ele>1248.89</ele>
        <time>2010-01-23T07:05:33Z</time>
      </trkpt>
      <trkpt lat="45.28489" lon="6.2056">
        <ele>1249.37</ele>
        <time>2010-01-23T07:05:41Z</time>
      </trkpt>
      <trkpt lat="45.2849" lon="6.20547">
        <ele>1250.33</ele>
        <time>2010-01-23T07:05:53Z</time>
      </trkpt>
      <trkpt lat="45.28488" lon="6.20528">
        <ele>1250.81</ele>
        <time>2010-01-23T07:06:05Z</time>
      </trkpt>
      <trkpt lat="45.28486" lon="6.2051">
        <ele>1253.7</ele>
        <time>2010-01-23T07:06:16Z</time>
      </trkpt>
      <trkpt lat="45.28482" lon="6.20492">
        <ele>1255.14</ele>
        <time>2010-01-23T07:06:26Z</time>
      </trkpt>
      <trkpt lat="45.28476" lon="6.20477">
        <ele>1257.06</ele>
        <time>2010-01-23T07:06:36Z</time>
      </trkpt>
      <trkpt lat="45.28469" lon="6.20472">
        <ele>1257.54</ele>
        <time>2010-01-23T07:06:40Z</time>
      </trkpt>
      <trkpt lat="45.2845" lon="6.20453">
        <ele>1259.94</ele>
        <time>2010-01-23T07:06:52Z</time>
      </trkpt>
      <trkpt lat="45.28441" lon="6.20439">
        <ele>1261.39</ele>
        <time>2010-01-23T07:07:03Z</time>
      </trkpt>
      <trkpt lat="45.28432" lon="6.20424">
        <ele>1264.75</ele>
        <time>2010-01-23T07:07:17Z</time>
      </trkpt>
      <trkpt lat="45.28426" lon="6.204">
        <ele>1267.64</ele>
        <time>2010-01-23T07:07:35Z</time>
      </trkpt>
      <trkpt lat="45.28413" lon="6.20369">
        <ele>1271</ele>
        <time>2010-01-23T07:07:58Z</time>
      </trkpt>
      <trkpt lat="45.28405" lon="6.20351">
        <ele>1272.92</ele>
        <time>2010-01-23T07:08:08Z</time>
      </trkpt>
      <trkpt lat="45.28403" lon="6.20349">
        <ele>1273.4</ele>
        <time>2010-01-23T07:08:09Z</time>
      </trkpt>
      <trkpt lat="45.28401" lon="6.20333">
        <ele>1275.81</ele>
        <time>2010-01-23T07:08:22Z</time>
      </trkpt>
      <trkpt lat="45.28399" lon="6.20309">
        <ele>1277.73</ele>
        <time>2010-01-23T07:08:42Z</time>
      </trkpt>
      <trkpt lat="45.28398" lon="6.20305">
        <ele>1277.73</ele>
        <time>2010-01-23T07:08:45Z</time>
      </trkpt>
      <trkpt lat="45.28393" lon="6.20294">
        <ele>1278.21</ele>
        <time>2010-01-23T07:08:50Z</time>
      </trkpt>
      <trkpt lat="45.28386" lon="6.20289">
        <ele>1279.65</ele>
        <time>2010-01-23T07:09:03Z</time>
      </trkpt>
      <trkpt lat="45.28376" lon="6.20294">
        <ele>1281.09</ele>
        <time>2010-01-23T07:09:09Z</time>
      </trkpt>
      <trkpt lat="45.28353" lon="6.203">
        <ele>1283.02</ele>
        <time>2010-01-23T07:09:22Z</time>
      </trkpt>
      <trkpt lat="45.28347" lon="6.20281">
        <ele>1284.46</ele>
        <time>2010-01-23T07:09:34Z</time>
      </trkpt>
      <trkpt lat="45.28342" lon="6.20271">
        <ele>1284.94</ele>
        <time>2010-01-23T07:09:45Z</time>
      </trkpt>
      <trkpt lat="45.28319" lon="6.20268">
        <ele>1287.82</ele>
        <time>2010-01-23T07:10:02Z</time>
      </trkpt>
      <trkpt lat="45.28309" lon="6.20257">
        <ele>1289.27</ele>
        <time>2010-01-23T07:10:11Z</time>
      </trkpt>
      <trkpt lat="45.28303" lon="6.20243">
        <ele>1290.71</ele>
        <time>2010-01-23T07:10:21Z</time>
      </trkpt>
      <trkpt lat="45.28293" lon="6.20231">
        <ele>1293.11</ele>
        <time>2010-01-23T07:10:32Z</time>
      </trkpt>
      <trkpt lat="45.28285" lon="6.20217">
        <ele>1296.48</ele>
        <time>2010-01-23T07:10:44Z</time>
      </trkpt>
      <trkpt lat="45.2828" lon="6.20211">
        <ele>1297.44</ele>
        <time>2010-01-23T07:10:49Z</time>
      </trkpt>
      <trkpt lat="45.2827" lon="6.20196">
        <ele>1298.4</ele>
        <time>2010-01-23T07:10:59Z</time>
      </trkpt>
      <trkpt lat="45.2826" lon="6.20177">
        <ele>1299.84</ele>
        <time>2010-01-23T07:11:12Z</time>
      </trkpt>
      <trkpt lat="45.2825" lon="6.20157">
        <ele>1302.72</ele>
        <time>2010-01-23T07:11:26Z</time>
      </trkpt>
      <trkpt lat="45.28245" lon="6.20148">
        <ele>1304.65</ele>
        <time>2010-01-23T07:11:34Z</time>
      </trkpt>
      <trkpt lat="45.28239" lon="6.2014">
        <ele>1305.61</ele>
        <time>2010-01-23T07:11:42Z</time>
      </trkpt>
      <trkpt lat="45.28234" lon="6.2013">
        <ele>1308.01</ele>
        <time>2010-01-23T07:11:50Z</time>
      </trkpt>
      <trkpt lat="45.28222" lon="6.20111">
        <ele>1310.9</ele>
        <time>2010-01-23T07:12:06Z</time>
      </trkpt>
      <trkpt lat="45.28215" lon="6.20098">
        <ele>1312.82</ele>
        <time>2010-01-23T07:12:17Z</time>
      </trkpt>
      <trkpt lat="45.28205" lon="6.20086">
        <ele>1315.7</ele>
        <time>2010-01-23T07:12:33Z</time>
      </trkpt>
      <trkpt lat="45.28188" lon="6.20077">
        <ele>1319.07</ele>
        <time>2010-01-23T07:12:49Z</time>
      </trkpt>
      <trkpt lat="45.28169" lon="6.20064">
        <ele>1321.47</ele>
        <time>2010-01-23T07:13:04Z</time>
      </trkpt>
      <trkpt lat="45.28157" lon="6.20049">
        <ele>1322.91</ele>
        <time>2010-01-23T07:13:13Z</time>
      </trkpt>
      <trkpt lat="45.28144" lon="6.20037">
        <ele>1325.31</ele>
        <time>2010-01-23T07:13:24Z</time>
      </trkpt>
      <trkpt lat="45.28132" lon="6.20026">
        <ele>1327.72</ele>
        <time>2010-01-23T07:13:36Z</time>
      </trkpt>
      <trkpt lat="45.28116" lon="6.20011">
        <ele>1331.08</ele>
        <time>2010-01-23T07:13:51Z</time>
      </trkpt>
      <trkpt lat="45.28108" lon="6.19998">
        <ele>1333.01</ele>
        <time>2010-01-23T07:14:01Z</time>
      </trkpt>
      <trkpt lat="45.28099" lon="6.19996">
        <ele>280.84</ele>
        <time>2010-01-23T07:14:53Z</time>
      </trkpt>
      <trkpt lat="45.28099" lon="6.19996">
        <ele>1333.01</ele>
        <time>2010-01-23T07:14:54Z</time>
      </trkpt>
      <trkpt lat="45.28099" lon="6.19996">
        <ele>1331.08</ele>
        <time>2010-01-23T07:14:57Z</time>
      </trkpt>
      <trkpt lat="45.28099" lon="6.19996">
        <ele>1322.43</ele>
        <time>2010-01-23T07:15:06Z</time>
      </trkpt>
      <trkpt lat="45.28099" lon="6.19996">
        <ele>1334.93</ele>
        <time>2010-01-23T07:15:07Z</time>
      </trkpt>
      <trkpt lat="45.28099" lon="6.19996">
        <ele>1334.93</ele>
        <time>2010-01-23T07:15:08Z</time>
      </trkpt>
      <trkpt lat="45.28099" lon="6.19996">
        <ele>1330.12</ele>
        <time>2010-01-23T07:15:09Z</time>
      </trkpt>
      <trkpt lat="45.28099" lon="6.19996">
        <ele>1323.39</ele>
        <time>2010-01-23T07:15:10Z</time>
      </trkpt>
      <trkpt lat="45.28099" lon="6.19996">
        <ele>1334.45</ele>
        <time>2010-01-23T07:15:13Z</time>
      </trkpt>
      <trkpt lat="45.28099" lon="6.19996">
        <ele>1332.04</ele>
        <time>2010-01-23T07:15:14Z</time>
      </trkpt>
      <trkpt lat="45.28099" lon="6.19994">
        <ele>1308.49</ele>
        <time>2010-01-23T07:15:15Z</time>
      </trkpt>
      <trkpt lat="45.28098" lon="6.19993">
        <ele>1335.89</ele>
        <time>2010-01-23T07:15:16Z</time>
      </trkpt>
      <trkpt lat="45.28098" lon="6.19993">
        <ele>1330.6</ele>
        <time>2010-01-23T07:15:17Z</time>
      </trkpt>
      <trkpt lat="45.28095" lon="6.19995">
        <ele>1326.76</ele>
        <time>2010-01-23T07:15:19Z</time>
      </trkpt>
      <trkpt lat="45.28093" lon="6.19996">
        <ele>1329.64</ele>
        <time>2010-01-23T07:15:20Z</time>
      </trkpt>
      <trkpt lat="45.28091" lon="6.19997">
        <ele>1332.52</ele>
        <time>2010-01-23T07:15:21Z</time>
      </trkpt>
      <trkpt lat="45.28089" lon="6.19997">
        <ele>1329.16</ele>
        <time>2010-01-23T07:15:23Z</time>
      </trkpt>
      <trkpt lat="45.28088" lon="6.19997">
        <ele>1330.12</ele>
        <time>2010-01-23T07:15:24Z</time>
      </trkpt>
      <trkpt lat="45.28086" lon="6.19995">
        <ele>1318.59</ele>
        <time>2010-01-23T07:15:27Z</time>
      </trkpt>
      <trkpt lat="45.28086" lon="6.19994">
        <ele>1328.68</ele>
        <time>2010-01-23T07:15:28Z</time>
      </trkpt>
      <trkpt lat="45.28084" lon="6.19993">
        <ele>1323.87</ele>
        <time>2010-01-23T07:15:30Z</time>
      </trkpt>
      <trkpt lat="45.28083" lon="6.19992">
        <ele>1329.16</ele>
        <time>2010-01-23T07:15:31Z</time>
      </trkpt>
      <trkpt lat="45.28079" lon="6.19987">
        <ele>1324.35</ele>
        <time>2010-01-23T07:15:37Z</time>
      </trkpt>
      <trkpt lat="45.28078" lon="6.19986">
        <ele>1328.2</ele>
        <time>2010-01-23T07:15:38Z</time>
      </trkpt>
      <trkpt lat="45.28078" lon="6.19985">
        <ele>1359.92</ele>
        <time>2010-01-23T07:15:39Z</time>
      </trkpt>
      <trkpt lat="45.28077" lon="6.19984">
        <ele>1359.92</ele>
        <time>2010-01-23T07:15:40Z</time>
      </trkpt>
      <trkpt lat="45.28075" lon="6.19981">
        <ele>1363.29</ele>
        <time>2010-01-23T07:15:43Z</time>
      </trkpt>
      <trkpt lat="45.28074" lon="6.19974">
        <ele>1361.84</ele>
        <time>2010-01-23T07:15:48Z</time>
      </trkpt>
      <trkpt lat="45.28073" lon="6.19971">
        <ele>1367.13</ele>
        <time>2010-01-23T07:15:50Z</time>
      </trkpt>
      <trkpt lat="45.28072" lon="6.1997">
        <ele>1364.73</ele>
        <time>2010-01-23T07:15:51Z</time>
      </trkpt>
      <trkpt lat="45.2807" lon="6.19968">
        <ele>1359.92</ele>
        <time>2010-01-23T07:15:53Z</time>
      </trkpt>
      <trkpt lat="45.28068" lon="6.19967">
        <ele>1358.96</ele>
        <time>2010-01-23T07:15:55Z</time>
      </trkpt>
      <trkpt lat="45.28068" lon="6.19966">
        <ele>1365.69</ele>
        <time>2010-01-23T07:15:56Z</time>
      </trkpt>
      <trkpt lat="45.28067" lon="6.19965">
        <ele>1365.21</ele>
        <time>2010-01-23T07:15:57Z</time>
      </trkpt>
      <trkpt lat="45.28065" lon="6.19962">
        <ele>1363.77</ele>
        <time>2010-01-23T07:16:00Z</time>
      </trkpt>
      <trkpt lat="45.28062" lon="6.19957">
        <ele>1362.33</ele>
        <time>2010-01-23T07:16:04Z</time>
      </trkpt>
      <trkpt lat="45.2806" lon="6.19948">
        <ele>1366.17</ele>
        <time>2010-01-23T07:16:11Z</time>
      </trkpt>
      <trkpt lat="45.28059" lon="6.19948">
        <ele>1362.81</ele>
        <time>2010-01-23T07:16:12Z</time>
      </trkpt>
      <trkpt lat="45.28059" lon="6.19935">
        <ele>1363.29</ele>
        <time>2010-01-23T07:16:25Z</time>
      </trkpt>
      <trkpt lat="45.28048" lon="6.19927">
        <ele>1360.4</ele>
        <time>2010-01-23T07:16:45Z</time>
      </trkpt>
      <trkpt lat="45.28049" lon="6.19917">
        <ele>1357.04</ele>
        <time>2010-01-23T07:16:55Z</time>
      </trkpt>
      <trkpt lat="45.28046" lon="6.19913">
        <ele>1356.56</ele>
        <time>2010-01-23T07:16:58Z</time>
      </trkpt>
      <trkpt lat="45.28042" lon="6.19895">
        <ele>1354.15</ele>
        <time>2010-01-23T07:17:08Z</time>
      </trkpt>
      <trkpt lat="45.28034" lon="6.19877">
        <ele>1354.15</ele>
        <time>2010-01-23T07:17:29Z</time>
      </trkpt>
      <trkpt lat="45.27977" lon="6.1981">
        <ele>1357.52</ele>
        <time>2010-01-23T07:18:21Z</time>
      </trkpt>
      <trkpt lat="45.27964" lon="6.19808">
        <ele>1357.52</ele>
        <time>2010-01-23T07:18:40Z</time>
      </trkpt>
      <trkpt lat="45.27964" lon="6.19807">
        <ele>1358.48</ele>
        <time>2010-01-23T07:18:46Z</time>
      </trkpt>
      <trkpt lat="45.27959" lon="6.19811">
        <ele>1360.88</ele>
        <time>2010-01-23T07:19:48Z</time>
      </trkpt>
      <trkpt lat="45.27959" lon="6.19811">
        <ele>1358</ele>
        <time>2010-01-23T07:19:49Z</time>
      </trkpt>
      <trkpt lat="45.27959" lon="6.19811">
        <ele>1358.96</ele>
        <time>2010-01-23T07:20:09Z</time>
      </trkpt>
      <trkpt lat="45.27954" lon="6.19807">
        <ele>1355.12</ele>
        <time>2010-01-23T07:20:49Z</time>
      </trkpt>
      <trkpt lat="45.27954" lon="6.19807">
        <ele>1359.92</ele>
        <time>2010-01-23T07:20:50Z</time>
      </trkpt>
      <trkpt lat="45.27954" lon="6.19807">
        <ele>1358</ele>
        <time>2010-01-23T07:20:51Z</time>
      </trkpt>
      <trkpt lat="45.27954" lon="6.19807">
        <ele>1355.12</ele>
        <time>2010-01-23T07:20:54Z</time>
      </trkpt>
      <trkpt lat="45.27954" lon="6.19807">
        <ele>1355.12</ele>
        <time>2010-01-23T07:20:55Z</time>
      </trkpt>
      <trkpt lat="45.27954" lon="6.19807">
        <ele>1355.12</ele>
        <time>2010-01-23T07:20:58Z</time>
      </trkpt>
      <trkpt lat="45.27954" lon="6.19807">
        <ele>1358</ele>
        <time>2010-01-23T07:20:59Z</time>
      </trkpt>
      <trkpt lat="45.27954" lon="6.19807">
        <ele>1359.44</ele>
        <time>2010-01-23T07:21:03Z</time>
      </trkpt>
      <trkpt lat="45.27954" lon="6.19807">
        <ele>1357.52</ele>
        <time>2010-01-23T07:21:04Z</time>
      </trkpt>
      <trkpt lat="45.27957" lon="6.19809">
        <ele>1357.04</ele>
        <time>2010-01-23T07:21:17Z</time>
      </trkpt>
      <trkpt lat="45.27957" lon="6.19809">
        <ele>1357.04</ele>
        <time>2010-01-23T07:21:23Z</time>
      </trkpt>
      <trkpt lat="45.27947" lon="6.19809">
        <ele>1358.96</ele>
        <time>2010-01-23T07:21:39Z</time>
      </trkpt>
      <trkpt lat="45.27937" lon="6.19799">
        <ele>1361.84</ele>
        <time>2010-01-23T07:21:55Z</time>
      </trkpt>
      <trkpt lat="45.27933" lon="6.19783">
        <ele>1363.77</ele>
        <time>2010-01-23T07:22:07Z</time>
      </trkpt>
      <trkpt lat="45.2793" lon="6.19763">
        <ele>1365.21</ele>
        <time>2010-01-23T07:22:23Z</time>
      </trkpt>
      <trkpt lat="45.27929" lon="6.19741">
        <ele>1367.13</ele>
        <time>2010-01-23T07:22:38Z</time>
      </trkpt>
      <trkpt lat="45.27922" lon="6.19726">
        <ele>1370.02</ele>
        <time>2010-01-23T07:22:59Z</time>
      </trkpt>
      <trkpt lat="45.2791" lon="6.19725">
        <ele>1373.38</ele>
        <time>2010-01-23T07:23:12Z</time>
      </trkpt>
      <trkpt lat="45.27903" lon="6.19727">
        <ele>1376.26</ele>
        <time>2010-01-23T07:23:28Z</time>
      </trkpt>
      <trkpt lat="45.27899" lon="6.19721">
        <ele>1379.63</ele>
        <time>2010-01-23T07:23:43Z</time>
      </trkpt>
      <trkpt lat="45.27884" lon="6.19708">
        <ele>1382.51</ele>
        <time>2010-01-23T07:24:04Z</time>
      </trkpt>
      <trkpt lat="45.27884" lon="6.19707">
        <ele>1385.88</ele>
        <time>2010-01-23T07:24:21Z</time>
      </trkpt>
      <trkpt lat="45.27888" lon="6.19693">
        <ele>1389.24</ele>
        <time>2010-01-23T07:24:39Z</time>
      </trkpt>
      <trkpt lat="45.27894" lon="6.19675">
        <ele>1392.61</ele>
        <time>2010-01-23T07:24:58Z</time>
      </trkpt>
      <trkpt lat="45.27894" lon="6.19663">
        <ele>1395.01</ele>
        <time>2010-01-23T07:25:13Z</time>
      </trkpt>
      <trkpt lat="45.27883" lon="6.19659">
        <ele>1397.89</ele>
        <time>2010-01-23T07:25:29Z</time>
      </trkpt>
      <trkpt lat="45.27845" lon="6.19637">
        <ele>1400.78</ele>
        <time>2010-01-23T07:25:45Z</time>
      </trkpt>
      <trkpt lat="45.27834" lon="6.19641">
        <ele>1403.66</ele>
        <time>2010-01-23T07:26:02Z</time>
      </trkpt>
      <trkpt lat="45.27827" lon="6.19645">
        <ele>1407.03</ele>
        <time>2010-01-23T07:26:28Z</time>
      </trkpt>
      <trkpt lat="45.2782" lon="6.19647">
        <ele>1409.91</ele>
        <time>2010-01-23T07:26:44Z</time>
      </trkpt>
      <trkpt lat="45.27814" lon="6.19662">
        <ele>1413.28</ele>
        <time>2010-01-23T07:27:03Z</time>
      </trkpt>
      <trkpt lat="45.2781" lon="6.19663">
        <ele>1416.64</ele>
        <time>2010-01-23T07:27:19Z</time>
      </trkpt>
      <trkpt lat="45.27804" lon="6.19666">
        <ele>1419.52</ele>
        <time>2010-01-23T07:27:45Z</time>
      </trkpt>
      <trkpt lat="45.27787" lon="6.19671">
        <ele>1422.89</ele>
        <time>2010-01-23T07:28:00Z</time>
      </trkpt>
      <trkpt lat="45.27768" lon="6.19685">
        <ele>1426.25</ele>
        <time>2010-01-23T07:28:19Z</time>
      </trkpt>
      <trkpt lat="45.2775" lon="6.19709">
        <ele>1429.14</ele>
        <time>2010-01-23T07:28:40Z</time>
      </trkpt>
      <trkpt lat="45.27745" lon="6.19722">
        <ele>1432.5</ele>
        <time>2010-01-23T07:28:59Z</time>
      </trkpt>
      <trkpt lat="45.27744" lon="6.19741">
        <ele>1435.39</ele>
        <time>2010-01-23T07:29:19Z</time>
      </trkpt>
      <trkpt lat="45.27743" lon="6.19754">
        <ele>1436.83</ele>
        <time>2010-01-23T07:29:28Z</time>
      </trkpt>
      <trkpt lat="45.2774" lon="6.19774">
        <ele>1438.75</ele>
        <time>2010-01-23T07:29:41Z</time>
      </trkpt>
      <trkpt lat="45.27735" lon="6.19793">
        <ele>1439.71</ele>
        <time>2010-01-23T07:29:56Z</time>
      </trkpt>
      <trkpt lat="45.27728" lon="6.19807">
        <ele>1441.63</ele>
        <time>2010-01-23T07:30:08Z</time>
      </trkpt>
      <trkpt lat="45.27723" lon="6.19821">
        <ele>1445</ele>
        <time>2010-01-23T07:30:25Z</time>
      </trkpt>
      <trkpt lat="45.2773" lon="6.19839">
        <ele>1446.92</ele>
        <time>2010-01-23T07:30:46Z</time>
      </trkpt>
      <trkpt lat="45.27733" lon="6.19853">
        <ele>1448.36</ele>
        <time>2010-01-23T07:30:58Z</time>
      </trkpt>
      <trkpt lat="45.27731" lon="6.19879">
        <ele>1450.77</ele>
        <time>2010-01-23T07:31:20Z</time>
      </trkpt>
      <trkpt lat="45.27733" lon="6.19896">
        <ele>1454.13</ele>
        <time>2010-01-23T07:31:37Z</time>
      </trkpt>
      <trkpt lat="45.27735" lon="6.19906">
        <ele>1454.61</ele>
        <time>2010-01-23T07:31:44Z</time>
      </trkpt>
      <trkpt lat="45.27739" lon="6.19916">
        <ele>1455.57</ele>
        <time>2010-01-23T07:31:53Z</time>
      </trkpt>
      <trkpt lat="45.27739" lon="6.19935">
        <ele>1458.94</ele>
        <time>2010-01-23T07:32:10Z</time>
      </trkpt>
      <trkpt lat="45.27738" lon="6.19939">
        <ele>1457.5</ele>
        <time>2010-01-23T07:32:13Z</time>
      </trkpt>
      <trkpt lat="45.27738" lon="6.1994">
        <ele>1459.9</ele>
        <time>2010-01-23T07:32:14Z</time>
      </trkpt>
      <trkpt lat="45.2774" lon="6.19956">
        <ele>1462.3</ele>
        <time>2010-01-23T07:32:34Z</time>
      </trkpt>
      <trkpt lat="45.27735" lon="6.19965">
        <ele>1465.67</ele>
        <time>2010-01-23T07:32:55Z</time>
      </trkpt>
      <trkpt lat="45.27755" lon="6.19984">
        <ele>1468.55</ele>
        <time>2010-01-23T07:33:11Z</time>
      </trkpt>
      <trkpt lat="45.27773" lon="6.19994">
        <ele>1471.92</ele>
        <time>2010-01-23T07:33:28Z</time>
      </trkpt>
      <trkpt lat="45.27785" lon="6.20009">
        <ele>1475.28</ele>
        <time>2010-01-23T07:33:48Z</time>
      </trkpt>
      <trkpt lat="45.27796" lon="6.20033">
        <ele>1478.16</ele>
        <time>2010-01-23T07:34:08Z</time>
      </trkpt>
      <trkpt lat="45.27796" lon="6.2005">
        <ele>1481.05</ele>
        <time>2010-01-23T07:34:27Z</time>
      </trkpt>
      <trkpt lat="45.27801" lon="6.20068">
        <ele>1484.41</ele>
        <time>2010-01-23T07:34:48Z</time>
      </trkpt>
      <trkpt lat="45.27803" lon="6.20081">
        <ele>1487.78</ele>
        <time>2010-01-23T07:35:04Z</time>
      </trkpt>
      <trkpt lat="45.27803" lon="6.20098">
        <ele>1490.66</ele>
        <time>2010-01-23T07:35:19Z</time>
      </trkpt>
      <trkpt lat="45.27805" lon="6.20115">
        <ele>1493.55</ele>
        <time>2010-01-23T07:35:36Z</time>
      </trkpt>
      <trkpt lat="45.27808" lon="6.20131">
        <ele>1496.91</ele>
        <time>2010-01-23T07:35:51Z</time>
      </trkpt>
      <trkpt lat="45.27813" lon="6.20143">
        <ele>1499.79</ele>
        <time>2010-01-23T07:36:07Z</time>
      </trkpt>
      <trkpt lat="45.27821" lon="6.20153">
        <ele>1503.16</ele>
        <time>2010-01-23T07:36:22Z</time>
      </trkpt>
      <trkpt lat="45.27838" lon="6.20157">
        <ele>1506.52</ele>
        <time>2010-01-23T07:36:37Z</time>
      </trkpt>
      <trkpt lat="45.27849" lon="6.20175">
        <ele>1509.89</ele>
        <time>2010-01-23T07:36:57Z</time>
      </trkpt>
      <trkpt lat="45.27852" lon="6.20191">
        <ele>1512.29</ele>
        <time>2010-01-23T07:37:10Z</time>
      </trkpt>
      <trkpt lat="45.27854" lon="6.20206">
        <ele>1515.18</ele>
        <time>2010-01-23T07:37:23Z</time>
      </trkpt>
      <trkpt lat="45.27849" lon="6.20215">
        <ele>1518.54</ele>
        <time>2010-01-23T07:37:41Z</time>
      </trkpt>
      <trkpt lat="45.27842" lon="6.20209">
        <ele>1519.5</ele>
        <time>2010-01-23T07:39:09Z</time>
      </trkpt>
      <trkpt lat="45.27831" lon="6.20193">
        <ele>1520.94</ele>
        <time>2010-01-23T07:39:24Z</time>
      </trkpt>
      <trkpt lat="45.27824" lon="6.20187">
        <ele>1521.9</ele>
        <time>2010-01-23T07:39:32Z</time>
      </trkpt>
      <trkpt lat="45.27814" lon="6.20173">
        <ele>1522.87</ele>
        <time>2010-01-23T07:39:46Z</time>
      </trkpt>
      <trkpt lat="45.27808" lon="6.20163">
        <ele>1524.31</ele>
        <time>2010-01-23T07:39:57Z</time>
      </trkpt>
      <trkpt lat="45.27797" lon="6.20152">
        <ele>1524.79</ele>
        <time>2010-01-23T07:40:10Z</time>
      </trkpt>
      <trkpt lat="45.27789" lon="6.20139">
        <ele>1525.75</ele>
        <time>2010-01-23T07:40:23Z</time>
      </trkpt>
      <trkpt lat="45.2778" lon="6.20126">
        <ele>1527.19</ele>
        <time>2010-01-23T07:40:37Z</time>
      </trkpt>
      <trkpt lat="45.27775" lon="6.2011">
        <ele>1529.11</ele>
        <time>2010-01-23T07:40:51Z</time>
      </trkpt>
      <trkpt lat="45.27765" lon="6.20093">
        <ele>1530.08</ele>
        <time>2010-01-23T07:41:05Z</time>
      </trkpt>
      <trkpt lat="45.27758" lon="6.20083">
        <ele>1531.52</ele>
        <time>2010-01-23T07:41:18Z</time>
      </trkpt>
      <trkpt lat="45.2775" lon="6.2007">
        <ele>1533.92</ele>
        <time>2010-01-23T07:41:33Z</time>
      </trkpt>
      <trkpt lat="45.27741" lon="6.20055">
        <ele>1534.88</ele>
        <time>2010-01-23T07:41:48Z</time>
      </trkpt>
      <trkpt lat="45.2773" lon="6.20038">
        <ele>1535.84</ele>
        <time>2010-01-23T07:42:03Z</time>
      </trkpt>
      <trkpt lat="45.27723" lon="6.20028">
        <ele>1537.77</ele>
        <time>2010-01-23T07:42:16Z</time>
      </trkpt>
      <trkpt lat="45.27717" lon="6.20019">
        <ele>1539.21</ele>
        <time>2010-01-23T07:42:28Z</time>
      </trkpt>
      <trkpt lat="45.27708" lon="6.20006">
        <ele>1539.21</ele>
        <time>2010-01-23T07:42:40Z</time>
      </trkpt>
      <trkpt lat="45.27699" lon="6.19989">
        <ele>1538.73</ele>
        <time>2010-01-23T07:42:53Z</time>
      </trkpt>
      <trkpt lat="45.27691" lon="6.19974">
        <ele>1538.25</ele>
        <time>2010-01-23T07:43:05Z</time>
      </trkpt>
      <trkpt lat="45.27684" lon="6.19958">
        <ele>1536.8</ele>
        <time>2010-01-23T07:43:25Z</time>
      </trkpt>
      <trkpt lat="45.27677" lon="6.19939">
        <ele>1537.77</ele>
        <time>2010-01-23T07:43:39Z</time>
      </trkpt>
      <trkpt lat="45.27672" lon="6.19926">
        <ele>1538.73</ele>
        <time>2010-01-23T07:43:51Z</time>
      </trkpt>
      <trkpt lat="45.27664" lon="6.19914">
        <ele>1539.21</ele>
        <time>2010-01-23T07:44:04Z</time>
      </trkpt>
      <trkpt lat="45.27655" lon="6.19901">
        <ele>1540.17</ele>
        <time>2010-01-23T07:44:17Z</time>
      </trkpt>
      <trkpt lat="45.27647" lon="6.19887">
        <ele>1541.61</ele>
        <time>2010-01-23T07:44:30Z</time>
      </trkpt>
      <trkpt lat="45.27639" lon="6.19874">
        <ele>1542.57</ele>
        <time>2010-01-23T07:44:45Z</time>
      </trkpt>
      <trkpt lat="45.27624" lon="6.19856">
        <ele>1544.98</ele>
        <time>2010-01-23T07:45:04Z</time>
      </trkpt>
      <trkpt lat="45.27622" lon="6.19843">
        <ele>1546.42</ele>
        <time>2010-01-23T07:45:15Z</time>
      </trkpt>
      <trkpt lat="45.2762" lon="6.19834">
        <ele>1547.38</ele>
        <time>2010-01-23T07:45:25Z</time>
      </trkpt>
      <trkpt lat="45.27611" lon="6.19819">
        <ele>1548.82</ele>
        <time>2010-01-23T07:45:41Z</time>
      </trkpt>
      <trkpt lat="45.27602" lon="6.19809">
        <ele>1549.78</ele>
        <time>2010-01-23T07:45:50Z</time>
      </trkpt>
      <trkpt lat="45.276" lon="6.19793">
        <ele>1550.74</ele>
        <time>2010-01-23T07:46:02Z</time>
      </trkpt>
      <trkpt lat="45.27597" lon="6.19783">
        <ele>1552.19</ele>
        <time>2010-01-23T07:46:11Z</time>
      </trkpt>
      <trkpt lat="45.27595" lon="6.19772">
        <ele>1553.63</ele>
        <time>2010-01-23T07:46:23Z</time>
      </trkpt>
      <trkpt lat="45.27586" lon="6.19764">
        <ele>1555.07</ele>
        <time>2010-01-23T07:46:34Z</time>
      </trkpt>
      <trkpt lat="45.27574" lon="6.19755">
        <ele>1556.51</ele>
        <time>2010-01-23T07:46:46Z</time>
      </trkpt>
      <trkpt lat="45.27563" lon="6.19739">
        <ele>1557.47</ele>
        <time>2010-01-23T07:47:05Z</time>
      </trkpt>
      <trkpt lat="45.2756" lon="6.19738">
        <ele>1558.43</ele>
        <time>2010-01-23T07:47:25Z</time>
      </trkpt>
      <trkpt lat="45.27557" lon="6.19737">
        <ele>1557.95</ele>
        <time>2010-01-23T07:47:28Z</time>
      </trkpt>
      <trkpt lat="45.27539" lon="6.19741">
        <ele>1557.47</ele>
        <time>2010-01-23T07:47:42Z</time>
      </trkpt>
      <trkpt lat="45.27525" lon="6.19744">
        <ele>1556.99</ele>
        <time>2010-01-23T07:47:53Z</time>
      </trkpt>
      <trkpt lat="45.27524" lon="6.19744">
        <ele>1556.51</ele>
        <time>2010-01-23T07:47:54Z</time>
      </trkpt>
      <trkpt lat="45.27511" lon="6.19747">
        <ele>1557.95</ele>
        <time>2010-01-23T07:48:06Z</time>
      </trkpt>
      <trkpt lat="45.27507" lon="6.19749">
        <ele>1558.43</ele>
        <time>2010-01-23T07:48:10Z</time>
      </trkpt>
      <trkpt lat="45.275" lon="6.19749">
        <ele>1558.92</ele>
        <time>2010-01-23T07:48:16Z</time>
      </trkpt>
      <trkpt lat="45.27497" lon="6.19748">
        <ele>1559.4</ele>
        <time>2010-01-23T07:48:19Z</time>
      </trkpt>
      <trkpt lat="45.27486" lon="6.19745">
        <ele>1559.88</ele>
        <time>2010-01-23T07:48:30Z</time>
      </trkpt>
      <trkpt lat="45.27476" lon="6.19735">
        <ele>1560.36</ele>
        <time>2010-01-23T07:48:41Z</time>
      </trkpt>
      <trkpt lat="45.27473" lon="6.19732">
        <ele>1560.84</ele>
        <time>2010-01-23T07:48:44Z</time>
      </trkpt>
      <trkpt lat="45.27462" lon="6.19724">
        <ele>1561.32</ele>
        <time>2010-01-23T07:48:55Z</time>
      </trkpt>
      <trkpt lat="45.27454" lon="6.19715">
        <ele>1562.28</ele>
        <time>2010-01-23T07:49:07Z</time>
      </trkpt>
      <trkpt lat="45.27452" lon="6.19712">
        <ele>1562.28</ele>
        <time>2010-01-23T07:49:10Z</time>
      </trkpt>
      <trkpt lat="45.27445" lon="6.19701">
        <ele>1562.28</ele>
        <time>2010-01-23T07:49:18Z</time>
      </trkpt>
      <trkpt lat="45.27437" lon="6.19685">
        <ele>1561.8</ele>
        <time>2010-01-23T07:49:28Z</time>
      </trkpt>
      <trkpt lat="45.27427" lon="6.19677">
        <ele>1561.32</ele>
        <time>2010-01-23T07:49:40Z</time>
      </trkpt>
      <trkpt lat="45.27424" lon="6.19674">
        <ele>1560.84</ele>
        <time>2010-01-23T07:49:44Z</time>
      </trkpt>
      <trkpt lat="45.27413" lon="6.19674">
        <ele>1559.88</ele>
        <time>2010-01-23T07:49:51Z</time>
      </trkpt>
      <trkpt lat="45.27402" lon="6.19659">
        <ele>1558.92</ele>
        <time>2010-01-23T07:50:05Z</time>
      </trkpt>
      <trkpt lat="45.27392" lon="6.19652">
        <ele>1558.43</ele>
        <time>2010-01-23T07:50:15Z</time>
      </trkpt>
      <trkpt lat="45.27384" lon="6.19636">
        <ele>1556.51</ele>
        <time>2010-01-23T07:50:27Z</time>
      </trkpt>
      <trkpt lat="45.27381" lon="6.19628">
        <ele>1556.03</ele>
        <time>2010-01-23T07:50:31Z</time>
      </trkpt>
      <trkpt lat="45.27375" lon="6.19626">
        <ele>1556.51</ele>
        <time>2010-01-23T07:50:39Z</time>
      </trkpt>
      <trkpt lat="45.27361" lon="6.19615">
        <ele>1557.95</ele>
        <time>2010-01-23T07:50:51Z</time>
      </trkpt>
      <trkpt lat="45.27356" lon="6.19603">
        <ele>1560.36</ele>
        <time>2010-01-23T07:51:05Z</time>
      </trkpt>
      <trkpt lat="45.27351" lon="6.19591">
        <ele>1560.84</ele>
        <time>2010-01-23T07:51:14Z</time>
      </trkpt>
      <trkpt lat="45.2734" lon="6.19589">
        <ele>1560.84</ele>
        <time>2010-01-23T07:51:25Z</time>
      </trkpt>
      <trkpt lat="45.27328" lon="6.19573">
        <ele>1560.36</ele>
        <time>2010-01-23T07:51:36Z</time>
      </trkpt>
      <trkpt lat="45.27322" lon="6.19558">
        <ele>1561.32</ele>
        <time>2010-01-23T07:51:47Z</time>
      </trkpt>
      <trkpt lat="45.27316" lon="6.19547">
        <ele>1562.28</ele>
        <time>2010-01-23T07:52:01Z</time>
      </trkpt>
      <trkpt lat="45.27309" lon="6.19543">
        <ele>1561.8</ele>
        <time>2010-01-23T07:52:07Z</time>
      </trkpt>
      <trkpt lat="45.273" lon="6.19543">
        <ele>1561.32</ele>
        <time>2010-01-23T07:52:12Z</time>
      </trkpt>
      <trkpt lat="45.27274" lon="6.1956">
        <ele>1562.28</ele>
        <time>2010-01-23T07:52:26Z</time>
      </trkpt>
      <trkpt lat="45.27263" lon="6.19566">
        <ele>1565.16</ele>
        <time>2010-01-23T07:52:37Z</time>
      </trkpt>
      <trkpt lat="45.27252" lon="6.19572">
        <ele>1567.57</ele>
        <time>2010-01-23T07:52:54Z</time>
      </trkpt>
      <trkpt lat="45.27246" lon="6.19577">
        <ele>1569.97</ele>
        <time>2010-01-23T07:53:05Z</time>
      </trkpt>
      <trkpt lat="45.27235" lon="6.19576">
        <ele>1572.85</ele>
        <time>2010-01-23T07:53:22Z</time>
      </trkpt>
      <trkpt lat="45.27222" lon="6.19571">
        <ele>1574.78</ele>
        <time>2010-01-23T07:53:34Z</time>
      </trkpt>
      <trkpt lat="45.27213" lon="6.19556">
        <ele>1577.66</ele>
        <time>2010-01-23T07:53:55Z</time>
      </trkpt>
      <trkpt lat="45.27198" lon="6.19537">
        <ele>1581.03</ele>
        <time>2010-01-23T07:54:15Z</time>
      </trkpt>
      <trkpt lat="45.27192" lon="6.1953">
        <ele>1583.43</ele>
        <time>2010-01-23T07:54:31Z</time>
      </trkpt>
      <trkpt lat="45.27185" lon="6.19524">
        <ele>1586.79</ele>
        <time>2010-01-23T07:54:47Z</time>
      </trkpt>
      <trkpt lat="45.27177" lon="6.19513">
        <ele>1588.72</ele>
        <time>2010-01-23T07:54:59Z</time>
      </trkpt>
      <trkpt lat="45.27163" lon="6.19512">
        <ele>1592.08</ele>
        <time>2010-01-23T07:55:15Z</time>
      </trkpt>
      <trkpt lat="45.27151" lon="6.19521">
        <ele>1594</ele>
        <time>2010-01-23T07:55:27Z</time>
      </trkpt>
      <trkpt lat="45.27145" lon="6.19523">
        <ele>1595.45</ele>
        <time>2010-01-23T07:55:38Z</time>
      </trkpt>
      <trkpt lat="45.27137" lon="6.19523">
        <ele>1597.85</ele>
        <time>2010-01-23T07:56:00Z</time>
      </trkpt>
      <trkpt lat="45.2713" lon="6.19532">
        <ele>1601.21</ele>
        <time>2010-01-23T07:56:17Z</time>
      </trkpt>
      <trkpt lat="45.27128" lon="6.19538">
        <ele>1602.17</ele>
        <time>2010-01-23T07:56:41Z</time>
      </trkpt>
      <trkpt lat="45.27123" lon="6.19536">
        <ele>1605.54</ele>
        <time>2010-01-23T07:56:59Z</time>
      </trkpt>
      <trkpt lat="45.27112" lon="6.19529">
        <ele>1608.9</ele>
        <time>2010-01-23T07:57:14Z</time>
      </trkpt>
      <trkpt lat="45.27106" lon="6.19518">
        <ele>1612.27</ele>
        <time>2010-01-23T07:57:38Z</time>
      </trkpt>
      <trkpt lat="45.27095" lon="6.19508">
        <ele>1615.15</ele>
        <time>2010-01-23T07:57:50Z</time>
      </trkpt>
      <trkpt lat="45.27087" lon="6.19497">
        <ele>1618.52</ele>
        <time>2010-01-23T07:58:07Z</time>
      </trkpt>
      <trkpt lat="45.27083" lon="6.19492">
        <ele>1621.4</ele>
        <time>2010-01-23T07:58:21Z</time>
      </trkpt>
      <trkpt lat="45.27076" lon="6.19484">
        <ele>1624.28</ele>
        <time>2010-01-23T07:58:43Z</time>
      </trkpt>
      <trkpt lat="45.27075" lon="6.19483">
        <ele>1627.65</ele>
        <time>2010-01-23T07:58:58Z</time>
      </trkpt>
      <trkpt lat="45.27069" lon="6.1947">
        <ele>1631.01</ele>
        <time>2010-01-23T07:59:16Z</time>
      </trkpt>
      <trkpt lat="45.2706" lon="6.19456">
        <ele>1634.38</ele>
        <time>2010-01-23T07:59:31Z</time>
      </trkpt>
      <trkpt lat="45.2705" lon="6.19438">
        <ele>1637.26</ele>
        <time>2010-01-23T07:59:48Z</time>
      </trkpt>
      <trkpt lat="45.2705" lon="6.19428">
        <ele>1640.63</ele>
        <time>2010-01-23T08:00:06Z</time>
      </trkpt>
      <trkpt lat="45.27048" lon="6.19415">
        <ele>1643.51</ele>
        <time>2010-01-23T08:00:24Z</time>
      </trkpt>
      <trkpt lat="45.27048" lon="6.19403">
        <ele>1646.4</ele>
        <time>2010-01-23T08:00:42Z</time>
      </trkpt>
      <trkpt lat="45.27048" lon="6.19391">
        <ele>1649.76</ele>
        <time>2010-01-23T08:01:01Z</time>
      </trkpt>
      <trkpt lat="45.27045" lon="6.19374">
        <ele>1651.68</ele>
        <time>2010-01-23T08:01:12Z</time>
      </trkpt>
      <trkpt lat="45.27042" lon="6.19359">
        <ele>1653.6</ele>
        <time>2010-01-23T08:01:23Z</time>
      </trkpt>
      <trkpt lat="45.2704" lon="6.19344">
        <ele>1656.97</ele>
        <time>2010-01-23T08:01:41Z</time>
      </trkpt>
      <trkpt lat="45.27038" lon="6.1933">
        <ele>1659.37</ele>
        <time>2010-01-23T08:01:52Z</time>
      </trkpt>
      <trkpt lat="45.27034" lon="6.19321">
        <ele>1660.33</ele>
        <time>2010-01-23T08:02:01Z</time>
      </trkpt>
      <trkpt lat="45.27031" lon="6.19305">
        <ele>1661.78</ele>
        <time>2010-01-23T08:02:14Z</time>
      </trkpt>
      <trkpt lat="45.2703" lon="6.19292">
        <ele>1664.18</ele>
        <time>2010-01-23T08:02:25Z</time>
      </trkpt>
      <trkpt lat="45.27029" lon="6.19276">
        <ele>1666.1</ele>
        <time>2010-01-23T08:02:38Z</time>
      </trkpt>
      <trkpt lat="45.27027" lon="6.19264">
        <ele>1667.54</ele>
        <time>2010-01-23T08:02:51Z</time>
      </trkpt>
      <trkpt lat="45.27019" lon="6.19243">
        <ele>1670.43</ele>
        <time>2010-01-23T08:03:10Z</time>
      </trkpt>
      <trkpt lat="45.27014" lon="6.19227">
        <ele>1672.35</ele>
        <time>2010-01-23T08:03:24Z</time>
      </trkpt>
      <trkpt lat="45.27014" lon="6.19217">
        <ele>1675.72</ele>
        <time>2010-01-23T08:03:40Z</time>
      </trkpt>
      <trkpt lat="45.27013" lon="6.19204">
        <ele>1677.64</ele>
        <time>2010-01-23T08:03:54Z</time>
      </trkpt>
      <trkpt lat="45.27013" lon="6.19194">
        <ele>1679.56</ele>
        <time>2010-01-23T08:04:06Z</time>
      </trkpt>
      <trkpt lat="45.27014" lon="6.19178">
        <ele>1681.48</ele>
        <time>2010-01-23T08:04:22Z</time>
      </trkpt>
      <trkpt lat="45.27013" lon="6.19163">
        <ele>1683.41</ele>
        <time>2010-01-23T08:04:38Z</time>
      </trkpt>
      <trkpt lat="45.27014" lon="6.19152">
        <ele>1685.33</ele>
        <time>2010-01-23T08:04:50Z</time>
      </trkpt>
      <trkpt lat="45.27012" lon="6.19139">
        <ele>1688.21</ele>
        <time>2010-01-23T08:05:08Z</time>
      </trkpt>
      <trkpt lat="45.2701" lon="6.19121">
        <ele>1690.62</ele>
        <time>2010-01-23T08:05:22Z</time>
      </trkpt>
      <trkpt lat="45.27014" lon="6.19103">
        <ele>1693.02</ele>
        <time>2010-01-23T08:05:39Z</time>
      </trkpt>
      <trkpt lat="45.27014" lon="6.19091">
        <ele>1694.94</ele>
        <time>2010-01-23T08:05:50Z</time>
      </trkpt>
      <trkpt lat="45.27015" lon="6.19081">
        <ele>1696.38</ele>
        <time>2010-01-23T08:06:01Z</time>
      </trkpt>
      <trkpt lat="45.27017" lon="6.19074">
        <ele>1699.27</ele>
        <time>2010-01-23T08:06:21Z</time>
      </trkpt>
      <trkpt lat="45.27019" lon="6.1906">
        <ele>1702.15</ele>
        <time>2010-01-23T08:06:59Z</time>
      </trkpt>
      <trkpt lat="45.27016" lon="6.19047">
        <ele>1705.04</ele>
        <time>2010-01-23T08:07:18Z</time>
      </trkpt>
      <trkpt lat="45.27014" lon="6.19034">
        <ele>1707.44</ele>
        <time>2010-01-23T08:07:36Z</time>
      </trkpt>
      <trkpt lat="45.27015" lon="6.19023">
        <ele>1710.8</ele>
        <time>2010-01-23T08:07:53Z</time>
      </trkpt>
      <trkpt lat="45.27024" lon="6.19027">
        <ele>1712.73</ele>
        <time>2010-01-23T08:08:05Z</time>
      </trkpt>
      <trkpt lat="45.27031" lon="6.19034">
        <ele>1714.65</ele>
        <time>2010-01-23T08:08:19Z</time>
      </trkpt>
      <trkpt lat="45.27038" lon="6.1904">
        <ele>1717.53</ele>
        <time>2010-01-23T08:08:33Z</time>
      </trkpt>
      <trkpt lat="45.27043" lon="6.19044">
        <ele>1718.97</ele>
        <time>2010-01-23T08:08:49Z</time>
      </trkpt>
      <trkpt lat="45.27041" lon="6.19033">
        <ele>1720.9</ele>
        <time>2010-01-23T08:09:02Z</time>
      </trkpt>
      <trkpt lat="45.27039" lon="6.19028">
        <ele>1721.38</ele>
        <time>2010-01-23T08:09:05Z</time>
      </trkpt>
      <trkpt lat="45.27037" lon="6.19015">
        <ele>1722.82</ele>
        <time>2010-01-23T08:09:15Z</time>
      </trkpt>
      <trkpt lat="45.27033" lon="6.19003">
        <ele>1725.7</ele>
        <time>2010-01-23T08:09:26Z</time>
      </trkpt>
      <trkpt lat="45.27031" lon="6.18993">
        <ele>1727.15</ele>
        <time>2010-01-23T08:09:37Z</time>
      </trkpt>
      <trkpt lat="45.27029" lon="6.18978">
        <ele>1730.03</ele>
        <time>2010-01-23T08:09:50Z</time>
      </trkpt>
      <trkpt lat="45.27028" lon="6.18973">
        <ele>1731.95</ele>
        <time>2010-01-23T08:10:02Z</time>
      </trkpt>
      <trkpt lat="45.27024" lon="6.18961">
        <ele>1733.39</ele>
        <time>2010-01-23T08:10:12Z</time>
      </trkpt>
      <trkpt lat="45.27023" lon="6.18958">
        <ele>1733.88</ele>
        <time>2010-01-23T08:10:16Z</time>
      </trkpt>
      <trkpt lat="45.27018" lon="6.18949">
        <ele>1736.76</ele>
        <time>2010-01-23T08:10:30Z</time>
      </trkpt>
      <trkpt lat="45.27016" lon="6.1894">
        <ele>1738.2</ele>
        <time>2010-01-23T08:10:40Z</time>
      </trkpt>
      <trkpt lat="45.27014" lon="6.18931">
        <ele>1740.12</ele>
        <time>2010-01-23T08:10:53Z</time>
      </trkpt>
      <trkpt lat="45.27013" lon="6.18919">
        <ele>1743.01</ele>
        <time>2010-01-23T08:11:09Z</time>
      </trkpt>
      <trkpt lat="45.2701" lon="6.18909">
        <ele>1744.93</ele>
        <time>2010-01-23T08:11:22Z</time>
      </trkpt>
      <trkpt lat="45.27007" lon="6.18899">
        <ele>1748.29</ele>
        <time>2010-01-23T08:11:38Z</time>
      </trkpt>
      <trkpt lat="45.27003" lon="6.18888">
        <ele>1749.74</ele>
        <time>2010-01-23T08:11:50Z</time>
      </trkpt>
      <trkpt lat="45.27001" lon="6.18882">
        <ele>1751.66</ele>
        <time>2010-01-23T08:12:00Z</time>
      </trkpt>
      <trkpt lat="45.2701" lon="6.18877">
        <ele>1754.06</ele>
        <time>2010-01-23T08:12:14Z</time>
      </trkpt>
      <trkpt lat="45.27016" lon="6.18873">
        <ele>1756.47</ele>
        <time>2010-01-23T08:12:26Z</time>
      </trkpt>
      <trkpt lat="45.27022" lon="6.18867">
        <ele>1758.87</ele>
        <time>2010-01-23T08:12:41Z</time>
      </trkpt>
      <trkpt lat="45.27015" lon="6.18855">
        <ele>1761.27</ele>
        <time>2010-01-23T08:12:55Z</time>
      </trkpt>
      <trkpt lat="45.2701" lon="6.18847">
        <ele>1762.71</ele>
        <time>2010-01-23T08:13:06Z</time>
      </trkpt>
      <trkpt lat="45.27006" lon="6.1884">
        <ele>1763.68</ele>
        <time>2010-01-23T08:13:16Z</time>
      </trkpt>
      <trkpt lat="45.27004" lon="6.18834">
        <ele>1765.6</ele>
        <time>2010-01-23T08:13:28Z</time>
      </trkpt>
      <trkpt lat="45.27014" lon="6.18822">
        <ele>1768.48</ele>
        <time>2010-01-23T08:13:44Z</time>
      </trkpt>
      <trkpt lat="45.27018" lon="6.18817">
        <ele>1770.89</ele>
        <time>2010-01-23T08:13:54Z</time>
      </trkpt>
      <trkpt lat="45.27023" lon="6.18814">
        <ele>1772.81</ele>
        <time>2010-01-23T08:14:03Z</time>
      </trkpt>
      <trkpt lat="45.27019" lon="6.18799">
        <ele>1775.69</ele>
        <time>2010-01-23T08:14:19Z</time>
      </trkpt>
      <trkpt lat="45.27014" lon="6.18791">
        <ele>1776.65</ele>
        <time>2010-01-23T08:14:30Z</time>
      </trkpt>
      <trkpt lat="45.2701" lon="6.18782">
        <ele>1778.58</ele>
        <time>2010-01-23T08:14:45Z</time>
      </trkpt>
      <trkpt lat="45.27007" lon="6.18775">
        <ele>1780.5</ele>
        <time>2010-01-23T08:14:57Z</time>
      </trkpt>
      <trkpt lat="45.27015" lon="6.18767">
        <ele>1782.42</ele>
        <time>2010-01-23T08:15:09Z</time>
      </trkpt>
      <trkpt lat="45.27018" lon="6.18767">
        <ele>1783.86</ele>
        <time>2010-01-23T08:15:14Z</time>
      </trkpt>
      <trkpt lat="45.27026" lon="6.18766">
        <ele>1785.31</ele>
        <time>2010-01-23T08:15:25Z</time>
      </trkpt>
      <trkpt lat="45.27032" lon="6.18763">
        <ele>1787.71</ele>
        <time>2010-01-23T08:15:38Z</time>
      </trkpt>
      <trkpt lat="45.27025" lon="6.18753">
        <ele>1790.11</ele>
        <time>2010-01-23T08:15:52Z</time>
      </trkpt>
      <trkpt lat="45.27019" lon="6.18745">
        <ele>1790.59</ele>
        <time>2010-01-23T08:16:05Z</time>
      </trkpt>
      <trkpt lat="45.27016" lon="6.18733">
        <ele>1792.03</ele>
        <time>2010-01-23T08:16:15Z</time>
      </trkpt>
      <trkpt lat="45.27012" lon="6.18722">
        <ele>1793.96</ele>
        <time>2010-01-23T08:16:28Z</time>
      </trkpt>
      <trkpt lat="45.27012" lon="6.18717">
        <ele>1794.92</ele>
        <time>2010-01-23T08:16:31Z</time>
      </trkpt>
      <trkpt lat="45.27013" lon="6.18708">
        <ele>1796.84</ele>
        <time>2010-01-23T08:16:42Z</time>
      </trkpt>
      <trkpt lat="45.27017" lon="6.18696">
        <ele>1800.21</ele>
        <time>2010-01-23T08:16:59Z</time>
      </trkpt>
      <trkpt lat="45.27024" lon="6.18692">
        <ele>1802.61</ele>
        <time>2010-01-23T08:17:12Z</time>
      </trkpt>
      <trkpt lat="45.2702" lon="6.18684">
        <ele>1804.05</ele>
        <time>2010-01-23T08:17:26Z</time>
      </trkpt>
      <trkpt lat="45.27011" lon="6.18678">
        <ele>1805.49</ele>
        <time>2010-01-23T08:17:38Z</time>
      </trkpt>
      <trkpt lat="45.27005" lon="6.18677">
        <ele>1807.9</ele>
        <time>2010-01-23T08:17:48Z</time>
      </trkpt>
      <trkpt lat="45.27003" lon="6.18671">
        <ele>1808.86</ele>
        <time>2010-01-23T08:17:59Z</time>
      </trkpt>
      <trkpt lat="45.27005" lon="6.18662">
        <ele>1811.26</ele>
        <time>2010-01-23T08:18:09Z</time>
      </trkpt>
      <trkpt lat="45.2701" lon="6.18652">
        <ele>1813.18</ele>
        <time>2010-01-23T08:18:23Z</time>
      </trkpt>
      <trkpt lat="45.27017" lon="6.18642">
        <ele>1814.63</ele>
        <time>2010-01-23T08:18:34Z</time>
      </trkpt>
      <trkpt lat="45.27021" lon="6.18638">
        <ele>1817.03</ele>
        <time>2010-01-23T08:18:48Z</time>
      </trkpt>
      <trkpt lat="45.27014" lon="6.18628">
        <ele>1818.95</ele>
        <time>2010-01-23T08:19:00Z</time>
      </trkpt>
      <trkpt lat="45.27015" lon="6.1862">
        <ele>1821.35</ele>
        <time>2010-01-23T08:19:11Z</time>
      </trkpt>
      <trkpt lat="45.27024" lon="6.18611">
        <ele>1823.76</ele>
        <time>2010-01-23T08:19:26Z</time>
      </trkpt>
      <trkpt lat="45.27024" lon="6.18601">
        <ele>1826.64</ele>
        <time>2010-01-23T08:19:45Z</time>
      </trkpt>
      <trkpt lat="45.2702" lon="6.18595">
        <ele>1828.08</ele>
        <time>2010-01-23T08:19:55Z</time>
      </trkpt>
      <trkpt lat="45.2701" lon="6.18587">
        <ele>1830.01</ele>
        <time>2010-01-23T08:20:09Z</time>
      </trkpt>
      <trkpt lat="45.27007" lon="6.18578">
        <ele>1831.93</ele>
        <time>2010-01-23T08:20:25Z</time>
      </trkpt>
      <trkpt lat="45.27007" lon="6.18571">
        <ele>1833.37</ele>
        <time>2010-01-23T08:20:52Z</time>
      </trkpt>
      <trkpt lat="45.27003" lon="6.18556">
        <ele>1834.81</ele>
        <time>2010-01-23T08:21:03Z</time>
      </trkpt>
      <trkpt lat="45.27005" lon="6.18536">
        <ele>1837.7</ele>
        <time>2010-01-23T08:21:22Z</time>
      </trkpt>
      <trkpt lat="45.27004" lon="6.18516">
        <ele>1840.58</ele>
        <time>2010-01-23T08:21:42Z</time>
      </trkpt>
      <trkpt lat="45.27005" lon="6.18497">
        <ele>1843.47</ele>
        <time>2010-01-23T08:21:57Z</time>
      </trkpt>
      <trkpt lat="45.27004" lon="6.18492">
        <ele>1844.43</ele>
        <time>2010-01-23T08:22:06Z</time>
      </trkpt>
      <trkpt lat="45.27005" lon="6.18483">
        <ele>1846.83</ele>
        <time>2010-01-23T08:22:18Z</time>
      </trkpt>
      <trkpt lat="45.27002" lon="6.18474">
        <ele>1849.71</ele>
        <time>2010-01-23T08:22:33Z</time>
      </trkpt>
      <trkpt lat="45.27" lon="6.1846">
        <ele>1851.64</ele>
        <time>2010-01-23T08:22:45Z</time>
      </trkpt>
      <trkpt lat="45.27" lon="6.18458">
        <ele>1851.64</ele>
        <time>2010-01-23T08:22:46Z</time>
      </trkpt>
      <trkpt lat="45.27" lon="6.18447">
        <ele>1853.56</ele>
        <time>2010-01-23T08:22:58Z</time>
      </trkpt>
      <trkpt lat="45.26998" lon="6.18427">
        <ele>1856.44</ele>
        <time>2010-01-23T08:23:16Z</time>
      </trkpt>
      <trkpt lat="45.26998" lon="6.18414">
        <ele>1858.37</ele>
        <time>2010-01-23T08:23:31Z</time>
      </trkpt>
      <trkpt lat="45.26996" lon="6.18402">
        <ele>1860.29</ele>
        <time>2010-01-23T08:23:43Z</time>
      </trkpt>
      <trkpt lat="45.26996" lon="6.18379">
        <ele>1863.17</ele>
        <time>2010-01-23T08:24:02Z</time>
      </trkpt>
      <trkpt lat="45.26997" lon="6.18367">
        <ele>1864.13</ele>
        <time>2010-01-23T08:24:14Z</time>
      </trkpt>
      <trkpt lat="45.27002" lon="6.18352">
        <ele>1866.06</ele>
        <time>2010-01-23T08:24:30Z</time>
      </trkpt>
      <trkpt lat="45.27003" lon="6.18339">
        <ele>1868.94</ele>
        <time>2010-01-23T08:24:47Z</time>
      </trkpt>
      <trkpt lat="45.27006" lon="6.18334">
        <ele>1869.9</ele>
        <time>2010-01-23T08:25:05Z</time>
      </trkpt>
      <trkpt lat="45.27007" lon="6.18317">
        <ele>1870.86</ele>
        <time>2010-01-23T08:25:17Z</time>
      </trkpt>
      <trkpt lat="45.27008" lon="6.18301">
        <ele>1873.75</ele>
        <time>2010-01-23T08:25:36Z</time>
      </trkpt>
      <trkpt lat="45.27008" lon="6.18292">
        <ele>1875.67</ele>
        <time>2010-01-23T08:25:48Z</time>
      </trkpt>
      <trkpt lat="45.27004" lon="6.18279">
        <ele>1877.59</ele>
        <time>2010-01-23T08:26:00Z</time>
      </trkpt>
      <trkpt lat="45.27003" lon="6.18274">
        <ele>1880.48</ele>
        <time>2010-01-23T08:26:16Z</time>
      </trkpt>
      <trkpt lat="45.27001" lon="6.18247">
        <ele>1883.84</ele>
        <time>2010-01-23T08:26:44Z</time>
      </trkpt>
      <trkpt lat="45.26998" lon="6.18231">
        <ele>1885.76</ele>
        <time>2010-01-23T08:26:59Z</time>
      </trkpt>
      <trkpt lat="45.27" lon="6.18223">
        <ele>1888.65</ele>
        <time>2010-01-23T08:27:18Z</time>
      </trkpt>
      <trkpt lat="45.26998" lon="6.18203">
        <ele>1892.01</ele>
        <time>2010-01-23T08:27:38Z</time>
      </trkpt>
      <trkpt lat="45.26994" lon="6.18193">
        <ele>1893.93</ele>
        <time>2010-01-23T08:27:53Z</time>
      </trkpt>
      <trkpt lat="45.26994" lon="6.1819">
        <ele>1894.42</ele>
        <time>2010-01-23T08:27:57Z</time>
      </trkpt>
      <trkpt lat="45.26996" lon="6.18184">
        <ele>1897.3</ele>
        <time>2010-01-23T08:28:19Z</time>
      </trkpt>
      <trkpt lat="45.27003" lon="6.18185">
        <ele>1898.74</ele>
        <time>2010-01-23T08:28:33Z</time>
      </trkpt>
      <trkpt lat="45.2701" lon="6.18188">
        <ele>1900.18</ele>
        <time>2010-01-23T08:28:43Z</time>
      </trkpt>
      <trkpt lat="45.27017" lon="6.18192">
        <ele>1902.11</ele>
        <time>2010-01-23T08:28:56Z</time>
      </trkpt>
      <trkpt lat="45.27023" lon="6.18198">
        <ele>1903.07</ele>
        <time>2010-01-23T08:29:06Z</time>
      </trkpt>
      <trkpt lat="45.2703" lon="6.18203">
        <ele>1905.47</ele>
        <time>2010-01-23T08:29:19Z</time>
      </trkpt>
      <trkpt lat="45.27034" lon="6.18207">
        <ele>1906.91</ele>
        <time>2010-01-23T08:29:32Z</time>
      </trkpt>
      <trkpt lat="45.27038" lon="6.18211">
        <ele>1908.35</ele>
        <time>2010-01-23T08:29:39Z</time>
      </trkpt>
      <trkpt lat="45.27045" lon="6.18216">
        <ele>1909.8</ele>
        <time>2010-01-23T08:29:52Z</time>
      </trkpt>
      <trkpt lat="45.27047" lon="6.18204">
        <ele>1912.2</ele>
        <time>2010-01-23T08:30:14Z</time>
      </trkpt>
      <trkpt lat="45.27042" lon="6.18184">
        <ele>1914.6</ele>
        <time>2010-01-23T08:30:29Z</time>
      </trkpt>
      <trkpt lat="45.27039" lon="6.18172">
        <ele>1916.53</ele>
        <time>2010-01-23T08:30:42Z</time>
      </trkpt>
      <trkpt lat="45.27034" lon="6.18153">
        <ele>1919.89</ele>
        <time>2010-01-23T08:31:06Z</time>
      </trkpt>
      <trkpt lat="45.27029" lon="6.18143">
        <ele>1921.33</ele>
        <time>2010-01-23T08:31:16Z</time>
      </trkpt>
      <trkpt lat="45.27024" lon="6.18134">
        <ele>1922.77</ele>
        <time>2010-01-23T08:31:24Z</time>
      </trkpt>
      <trkpt lat="45.27019" lon="6.18125">
        <ele>1925.18</ele>
        <time>2010-01-23T08:31:44Z</time>
      </trkpt>
      <trkpt lat="45.27013" lon="6.18116">
        <ele>1926.62</ele>
        <time>2010-01-23T08:31:57Z</time>
      </trkpt>
      <trkpt lat="45.27003" lon="6.18102">
        <ele>1928.54</ele>
        <time>2010-01-23T08:32:12Z</time>
      </trkpt>
      <trkpt lat="45.26994" lon="6.18097">
        <ele>1930.46</ele>
        <time>2010-01-23T08:32:32Z</time>
      </trkpt>
      <trkpt lat="45.26988" lon="6.18091">
        <ele>1931.91</ele>
        <time>2010-01-23T08:32:42Z</time>
      </trkpt>
      <trkpt lat="45.26981" lon="6.18083">
        <ele>1933.35</ele>
        <time>2010-01-23T08:32:55Z</time>
      </trkpt>
      <trkpt lat="45.26974" lon="6.18078">
        <ele>1936.23</ele>
        <time>2010-01-23T08:33:17Z</time>
      </trkpt>
      <trkpt lat="45.2697" lon="6.18073">
        <ele>1938.64</ele>
        <time>2010-01-23T08:33:28Z</time>
      </trkpt>
      <trkpt lat="45.26967" lon="6.18059">
        <ele>1941.04</ele>
        <time>2010-01-23T08:33:48Z</time>
      </trkpt>
      <trkpt lat="45.26973" lon="6.18016">
        <ele>1943.92</ele>
        <time>2010-01-23T08:34:29Z</time>
      </trkpt>
      <trkpt lat="45.26973" lon="6.17993">
        <ele>1947.29</ele>
        <time>2010-01-23T08:34:55Z</time>
      </trkpt>
      <trkpt lat="45.26971" lon="6.17984">
        <ele>1949.21</ele>
        <time>2010-01-23T08:35:08Z</time>
      </trkpt>
      <trkpt lat="45.26974" lon="6.17972">
        <ele>1951.13</ele>
        <time>2010-01-23T08:35:26Z</time>
      </trkpt>
      <trkpt lat="45.26973" lon="6.17966">
        <ele>1950.65</ele>
        <time>2010-01-23T08:35:30Z</time>
      </trkpt>
      <trkpt lat="45.26973" lon="6.17956">
        <ele>1952.09</ele>
        <time>2010-01-23T08:35:40Z</time>
      </trkpt>
      <trkpt lat="45.26971" lon="6.17948">
        <ele>1953.54</ele>
        <time>2010-01-23T08:35:52Z</time>
      </trkpt>
      <trkpt lat="45.2697" lon="6.17939">
        <ele>1955.46</ele>
        <time>2010-01-23T08:36:05Z</time>
      </trkpt>
      <trkpt lat="45.26968" lon="6.17926">
        <ele>1956.9</ele>
        <time>2010-01-23T08:36:20Z</time>
      </trkpt>
      <trkpt lat="45.26967" lon="6.17918">
        <ele>1958.34</ele>
        <time>2010-01-23T08:36:31Z</time>
      </trkpt>
      <trkpt lat="45.26963" lon="6.17903">
        <ele>1961.71</ele>
        <time>2010-01-23T08:36:52Z</time>
      </trkpt>
      <trkpt lat="45.26963" lon="6.17896">
        <ele>1963.15</ele>
        <time>2010-01-23T08:37:05Z</time>
      </trkpt>
      <trkpt lat="45.26959" lon="6.1789">
        <ele>1963.63</ele>
        <time>2010-01-23T08:37:10Z</time>
      </trkpt>
      <trkpt lat="45.26959" lon="6.17889">
        <ele>1963.63</ele>
        <time>2010-01-23T08:37:12Z</time>
      </trkpt>
      <trkpt lat="45.26956" lon="6.17876">
        <ele>1966.03</ele>
        <time>2010-01-23T08:37:26Z</time>
      </trkpt>
      <trkpt lat="45.26955" lon="6.17867">
        <ele>1967.96</ele>
        <time>2010-01-23T08:37:42Z</time>
      </trkpt>
      <trkpt lat="45.26955" lon="6.17855">
        <ele>1969.88</ele>
        <time>2010-01-23T08:37:59Z</time>
      </trkpt>
      <trkpt lat="45.26952" lon="6.17845">
        <ele>1971.8</ele>
        <time>2010-01-23T08:38:12Z</time>
      </trkpt>
      <trkpt lat="45.2695" lon="6.17836">
        <ele>1973.72</ele>
        <time>2010-01-23T08:38:26Z</time>
      </trkpt>
      <trkpt lat="45.26945" lon="6.17824">
        <ele>1975.17</ele>
        <time>2010-01-23T08:38:38Z</time>
      </trkpt>
      <trkpt lat="45.26944" lon="6.17815">
        <ele>1977.09</ele>
        <time>2010-01-23T08:38:51Z</time>
      </trkpt>
      <trkpt lat="45.26941" lon="6.17798">
        <ele>1979.49</ele>
        <time>2010-01-23T08:39:09Z</time>
      </trkpt>
      <trkpt lat="45.2694" lon="6.17781">
        <ele>1981.9</ele>
        <time>2010-01-23T08:39:26Z</time>
      </trkpt>
      <trkpt lat="45.26941" lon="6.17765">
        <ele>1985.26</ele>
        <time>2010-01-23T08:39:47Z</time>
      </trkpt>
      <trkpt lat="45.26938" lon="6.17742">
        <ele>1988.14</ele>
        <time>2010-01-23T08:40:10Z</time>
      </trkpt>
      <trkpt lat="45.26936" lon="6.17731">
        <ele>1990.55</ele>
        <time>2010-01-23T08:40:24Z</time>
      </trkpt>
      <trkpt lat="45.26934" lon="6.1772">
        <ele>1991.99</ele>
        <time>2010-01-23T08:40:37Z</time>
      </trkpt>
      <trkpt lat="45.26934" lon="6.17707">
        <ele>1995.35</ele>
        <time>2010-01-23T08:40:57Z</time>
      </trkpt>
      <trkpt lat="45.26936" lon="6.17705">
        <ele>1997.28</ele>
        <time>2010-01-23T08:41:12Z</time>
      </trkpt>
      <trkpt lat="45.26946" lon="6.17708">
        <ele>1999.2</ele>
        <time>2010-01-23T08:41:28Z</time>
      </trkpt>
      <trkpt lat="45.26953" lon="6.17708">
        <ele>2000.16</ele>
        <time>2010-01-23T08:41:37Z</time>
      </trkpt>
      <trkpt lat="45.26961" lon="6.17712">
        <ele>2002.08</ele>
        <time>2010-01-23T08:41:50Z</time>
      </trkpt>
      <trkpt lat="45.26965" lon="6.17715">
        <ele>2003.52</ele>
        <time>2010-01-23T08:42:00Z</time>
      </trkpt>
      <trkpt lat="45.26975" lon="6.1772">
        <ele>2005.45</ele>
        <time>2010-01-23T08:42:12Z</time>
      </trkpt>
      <trkpt lat="45.26975" lon="6.17707">
        <ele>2006.41</ele>
        <time>2010-01-23T08:42:26Z</time>
      </trkpt>
      <trkpt lat="45.26971" lon="6.1769">
        <ele>2010.25</ele>
        <time>2010-01-23T08:42:49Z</time>
      </trkpt>
      <trkpt lat="45.2697" lon="6.17689">
        <ele>2010.25</ele>
        <time>2010-01-23T08:42:51Z</time>
      </trkpt>
      <trkpt lat="45.26965" lon="6.17677">
        <ele>2011.7</ele>
        <time>2010-01-23T08:43:04Z</time>
      </trkpt>
      <trkpt lat="45.26958" lon="6.17661">
        <ele>2013.62</ele>
        <time>2010-01-23T08:43:16Z</time>
      </trkpt>
      <trkpt lat="45.26955" lon="6.1765">
        <ele>2016.02</ele>
        <time>2010-01-23T08:43:32Z</time>
      </trkpt>
      <trkpt lat="45.26962" lon="6.17654">
        <ele>2018.91</ele>
        <time>2010-01-23T08:43:47Z</time>
      </trkpt>
      <trkpt lat="45.26966" lon="6.17656">
        <ele>2019.39</ele>
        <time>2010-01-23T08:43:51Z</time>
      </trkpt>
      <trkpt lat="45.26973" lon="6.1766">
        <ele>2020.83</ele>
        <time>2010-01-23T08:44:04Z</time>
      </trkpt>
      <trkpt lat="45.26985" lon="6.17663">
        <ele>2024.19</ele>
        <time>2010-01-23T08:44:20Z</time>
      </trkpt>
      <trkpt lat="45.26982" lon="6.1765">
        <ele>2026.12</ele>
        <time>2010-01-23T08:44:37Z</time>
      </trkpt>
      <trkpt lat="45.26976" lon="6.17635">
        <ele>2028.04</ele>
        <time>2010-01-23T08:44:51Z</time>
      </trkpt>
      <trkpt lat="45.26971" lon="6.17622">
        <ele>2030.44</ele>
        <time>2010-01-23T08:45:06Z</time>
      </trkpt>
      <trkpt lat="45.26969" lon="6.17614">
        <ele>2031.4</ele>
        <time>2010-01-23T08:45:22Z</time>
      </trkpt>
      <trkpt lat="45.26977" lon="6.17616">
        <ele>2034.29</ele>
        <time>2010-01-23T08:45:44Z</time>
      </trkpt>
      <trkpt lat="45.26985" lon="6.17617">
        <ele>2037.65</ele>
        <time>2010-01-23T08:46:02Z</time>
      </trkpt>
      <trkpt lat="45.26986" lon="6.17608">
        <ele>2040.05</ele>
        <time>2010-01-23T08:46:20Z</time>
      </trkpt>
      <trkpt lat="45.26982" lon="6.17592">
        <ele>2042.46</ele>
        <time>2010-01-23T08:46:36Z</time>
      </trkpt>
      <trkpt lat="45.26976" lon="6.17581">
        <ele>2045.82</ele>
        <time>2010-01-23T08:46:52Z</time>
      </trkpt>
      <trkpt lat="45.26973" lon="6.17567">
        <ele>2047.75</ele>
        <time>2010-01-23T08:47:07Z</time>
      </trkpt>
      <trkpt lat="45.26971" lon="6.17555">
        <ele>2051.11</ele>
        <time>2010-01-23T08:47:27Z</time>
      </trkpt>
      <trkpt lat="45.26969" lon="6.17546">
        <ele>2052.55</ele>
        <time>2010-01-23T08:47:38Z</time>
      </trkpt>
      <trkpt lat="45.26975" lon="6.17549">
        <ele>2055.92</ele>
        <time>2010-01-23T08:47:55Z</time>
      </trkpt>
      <trkpt lat="45.26987" lon="6.17549">
        <ele>2058.8</ele>
        <time>2010-01-23T08:48:16Z</time>
      </trkpt>
      <trkpt lat="45.26995" lon="6.17547">
        <ele>2062.17</ele>
        <time>2010-01-23T08:48:34Z</time>
      </trkpt>
      <trkpt lat="45.27001" lon="6.17545">
        <ele>2064.57</ele>
        <time>2010-01-23T08:48:47Z</time>
      </trkpt>
      <trkpt lat="45.27012" lon="6.17544">
        <ele>2067.45</ele>
        <time>2010-01-23T08:49:35Z</time>
      </trkpt>
      <trkpt lat="45.27019" lon="6.17544">
        <ele>2070.34</ele>
        <time>2010-01-23T08:49:54Z</time>
      </trkpt>
      <trkpt lat="45.27026" lon="6.17545">
        <ele>2073.7</ele>
        <time>2010-01-23T08:50:08Z</time>
      </trkpt>
      <trkpt lat="45.27031" lon="6.17547">
        <ele>2075.14</ele>
        <time>2010-01-23T08:50:19Z</time>
      </trkpt>
      <trkpt lat="45.27033" lon="6.17542">
        <ele>2077.55</ele>
        <time>2010-01-23T08:50:39Z</time>
      </trkpt>
      <trkpt lat="45.27031" lon="6.1753">
        <ele>2080.91</ele>
        <time>2010-01-23T08:50:56Z</time>
      </trkpt>
      <trkpt lat="45.27026" lon="6.1752">
        <ele>2082.35</ele>
        <time>2010-01-23T08:51:10Z</time>
      </trkpt>
      <trkpt lat="45.27023" lon="6.17504">
        <ele>2085.24</ele>
        <time>2010-01-23T08:51:24Z</time>
      </trkpt>
      <trkpt lat="45.27017" lon="6.17492">
        <ele>2087.16</ele>
        <time>2010-01-23T08:51:34Z</time>
      </trkpt>
      <trkpt lat="45.27014" lon="6.17483">
        <ele>2089.08</ele>
        <time>2010-01-23T08:51:47Z</time>
      </trkpt>
      <trkpt lat="45.2701" lon="6.17471">
        <ele>2091</ele>
        <time>2010-01-23T08:52:01Z</time>
      </trkpt>
      <trkpt lat="45.27004" lon="6.17457">
        <ele>2093.89</ele>
        <time>2010-01-23T08:52:17Z</time>
      </trkpt>
      <trkpt lat="45.27004" lon="6.17441">
        <ele>2096.29</ele>
        <time>2010-01-23T08:52:33Z</time>
      </trkpt>
      <trkpt lat="45.27006" lon="6.17427">
        <ele>2099.66</ele>
        <time>2010-01-23T08:52:50Z</time>
      </trkpt>
      <trkpt lat="45.27007" lon="6.17408">
        <ele>2102.54</ele>
        <time>2010-01-23T08:53:10Z</time>
      </trkpt>
      <trkpt lat="45.27011" lon="6.17391">
        <ele>2105.91</ele>
        <time>2010-01-23T08:53:32Z</time>
      </trkpt>
      <trkpt lat="45.27012" lon="6.1736">
        <ele>2108.79</ele>
        <time>2010-01-23T08:53:59Z</time>
      </trkpt>
      <trkpt lat="45.27011" lon="6.17342">
        <ele>2112.15</ele>
        <time>2010-01-23T08:54:19Z</time>
      </trkpt>
      <trkpt lat="45.2701" lon="6.17324">
        <ele>2115.04</ele>
        <time>2010-01-23T08:54:38Z</time>
      </trkpt>
      <trkpt lat="45.27012" lon="6.17311">
        <ele>2117.92</ele>
        <time>2010-01-23T08:54:58Z</time>
      </trkpt>
      <trkpt lat="45.27013" lon="6.1729">
        <ele>2121.29</ele>
        <time>2010-01-23T08:55:21Z</time>
      </trkpt>
      <trkpt lat="45.27014" lon="6.17271">
        <ele>2125.13</ele>
        <time>2010-01-23T08:55:40Z</time>
      </trkpt>
      <trkpt lat="45.27014" lon="6.17246">
        <ele>2128.02</ele>
        <time>2010-01-23T08:56:10Z</time>
      </trkpt>
      <trkpt lat="45.27014" lon="6.17225">
        <ele>2131.38</ele>
        <time>2010-01-23T08:56:29Z</time>
      </trkpt>
      <trkpt lat="45.27019" lon="6.17204">
        <ele>2134.74</ele>
        <time>2010-01-23T08:56:52Z</time>
      </trkpt>
      <trkpt lat="45.27019" lon="6.17192">
        <ele>2137.63</ele>
        <time>2010-01-23T08:57:14Z</time>
      </trkpt>
      <trkpt lat="45.27017" lon="6.17171">
        <ele>2140.99</ele>
        <time>2010-01-23T08:57:34Z</time>
      </trkpt>
      <trkpt lat="45.27017" lon="6.17155">
        <ele>2144.36</ele>
        <time>2010-01-23T08:57:57Z</time>
      </trkpt>
      <trkpt lat="45.27017" lon="6.17152">
        <ele>2145.8</ele>
        <time>2010-01-23T08:58:03Z</time>
      </trkpt>
      <trkpt lat="45.27016" lon="6.17151">
        <ele>2145.32</ele>
        <time>2010-01-23T08:58:30Z</time>
      </trkpt>
      <trkpt lat="45.27016" lon="6.17151">
        <ele>2145.32</ele>
        <time>2010-01-23T09:00:52Z</time>
      </trkpt>
      <trkpt lat="45.27017" lon="6.17148">
        <ele>2146.28</ele>
        <time>2010-01-23T09:01:44Z</time>
      </trkpt>
      <trkpt lat="45.27019" lon="6.17134">
        <ele>2147.24</ele>
        <time>2010-01-23T09:02:43Z</time>
      </trkpt>
      <trkpt lat="45.27019" lon="6.17123">
        <ele>2149.65</ele>
        <time>2010-01-23T09:02:58Z</time>
      </trkpt>
      <trkpt lat="45.27015" lon="6.17104">
        <ele>2153.01</ele>
        <time>2010-01-23T09:03:16Z</time>
      </trkpt>
      <trkpt lat="45.27012" lon="6.17091">
        <ele>2156.37</ele>
        <time>2010-01-23T09:03:29Z</time>
      </trkpt>
      <trkpt lat="45.27013" lon="6.17079">
        <ele>2159.26</ele>
        <time>2010-01-23T09:03:42Z</time>
      </trkpt>
      <trkpt lat="45.27013" lon="6.17077">
        <ele>2159.74</ele>
        <time>2010-01-23T09:03:44Z</time>
      </trkpt>
      <trkpt lat="45.27018" lon="6.17066">
        <ele>2162.62</ele>
        <time>2010-01-23T09:03:57Z</time>
      </trkpt>
      <trkpt lat="45.27028" lon="6.17061">
        <ele>2165.99</ele>
        <time>2010-01-23T09:04:11Z</time>
      </trkpt>
      <trkpt lat="45.27034" lon="6.17061">
        <ele>2169.35</ele>
        <time>2010-01-23T09:04:27Z</time>
      </trkpt>
      <trkpt lat="45.27037" lon="6.17052">
        <ele>2171.76</ele>
        <time>2010-01-23T09:04:44Z</time>
      </trkpt>
      <trkpt lat="45.27037" lon="6.17052">
        <ele>2172.72</ele>
        <time>2010-01-23T09:04:46Z</time>
      </trkpt>
      <trkpt lat="45.27037" lon="6.17045">
        <ele>2173.68</ele>
        <time>2010-01-23T09:05:11Z</time>
      </trkpt>
      <trkpt lat="45.27036" lon="6.17041">
        <ele>2174.64</ele>
        <time>2010-01-23T09:05:34Z</time>
      </trkpt>
      <trkpt lat="45.27036" lon="6.17041">
        <ele>2165.99</ele>
        <time>2010-01-23T09:05:36Z</time>
      </trkpt>
      <trkpt lat="45.27036" lon="6.17041">
        <ele>2178.97</ele>
        <time>2010-01-23T09:05:37Z</time>
      </trkpt>
      <trkpt lat="45.27036" lon="6.17041">
        <ele>2158.78</ele>
        <time>2010-01-23T09:05:38Z</time>
      </trkpt>
      <trkpt lat="45.27036" lon="6.17041">
        <ele>2174.64</ele>
        <time>2010-01-23T09:05:39Z</time>
      </trkpt>
      <trkpt lat="45.27036" lon="6.17041">
        <ele>2171.76</ele>
        <time>2010-01-23T09:05:41Z</time>
      </trkpt>
      <trkpt lat="45.27034" lon="6.17037">
        <ele>2173.2</ele>
        <time>2010-01-23T09:08:54Z</time>
      </trkpt>
      <trkpt lat="45.27027" lon="6.17019">
        <ele>2176.08</ele>
        <time>2010-01-23T09:09:41Z</time>
      </trkpt>
      <trkpt lat="45.27021" lon="6.1701">
        <ele>2178.48</ele>
        <time>2010-01-23T09:09:57Z</time>
      </trkpt>
      <trkpt lat="45.27016" lon="6.16999">
        <ele>2181.85</ele>
        <time>2010-01-23T09:10:13Z</time>
      </trkpt>
      <trkpt lat="45.27021" lon="6.16992">
        <ele>2184.25</ele>
        <time>2010-01-23T09:10:25Z</time>
      </trkpt>
      <trkpt lat="45.27031" lon="6.1699">
        <ele>2186.18</ele>
        <time>2010-01-23T09:10:37Z</time>
      </trkpt>
      <trkpt lat="45.27036" lon="6.1699">
        <ele>2187.62</ele>
        <time>2010-01-23T09:10:52Z</time>
      </trkpt>
      <trkpt lat="45.2703" lon="6.16981">
        <ele>2189.54</ele>
        <time>2010-01-23T09:11:03Z</time>
      </trkpt>
      <trkpt lat="45.27022" lon="6.16975">
        <ele>2191.94</ele>
        <time>2010-01-23T09:11:17Z</time>
      </trkpt>
      <trkpt lat="45.27017" lon="6.16972">
        <ele>2193.39</ele>
        <time>2010-01-23T09:11:29Z</time>
      </trkpt>
      <trkpt lat="45.27028" lon="6.16963">
        <ele>2195.31</ele>
        <time>2010-01-23T09:11:42Z</time>
      </trkpt>
      <trkpt lat="45.27036" lon="6.16961">
        <ele>2197.71</ele>
        <time>2010-01-23T09:11:53Z</time>
      </trkpt>
      <trkpt lat="45.27038" lon="6.16961">
        <ele>2199.63</ele>
        <time>2010-01-23T09:12:12Z</time>
      </trkpt>
      <trkpt lat="45.27033" lon="6.16948">
        <ele>2202.52</ele>
        <time>2010-01-23T09:12:26Z</time>
      </trkpt>
      <trkpt lat="45.27028" lon="6.16944">
        <ele>2203.48</ele>
        <time>2010-01-23T09:12:32Z</time>
      </trkpt>
      <trkpt lat="45.2702" lon="6.16937">
        <ele>2205.88</ele>
        <time>2010-01-23T09:12:45Z</time>
      </trkpt>
      <trkpt lat="45.27014" lon="6.16937">
        <ele>2207.32</ele>
        <time>2010-01-23T09:12:53Z</time>
      </trkpt>
      <trkpt lat="45.2701" lon="6.16936">
        <ele>2209.25</ele>
        <time>2010-01-23T09:13:02Z</time>
      </trkpt>
      <trkpt lat="45.27003" lon="6.16938">
        <ele>2210.69</ele>
        <time>2010-01-23T09:13:15Z</time>
      </trkpt>
      <trkpt lat="45.27009" lon="6.16925">
        <ele>2212.13</ele>
        <time>2010-01-23T09:13:28Z</time>
      </trkpt>
      <trkpt lat="45.27009" lon="6.16925">
        <ele>2213.09</ele>
        <time>2010-01-23T09:13:29Z</time>
      </trkpt>
      <trkpt lat="45.27013" lon="6.16919">
        <ele>2214.05</ele>
        <time>2010-01-23T09:13:38Z</time>
      </trkpt>
      <trkpt lat="45.27017" lon="6.16912">
        <ele>2216.46</ele>
        <time>2010-01-23T09:13:48Z</time>
      </trkpt>
      <trkpt lat="45.27022" lon="6.16905">
        <ele>2219.34</ele>
        <time>2010-01-23T09:14:00Z</time>
      </trkpt>
      <trkpt lat="45.27029" lon="6.16901">
        <ele>2221.26</ele>
        <time>2010-01-23T09:14:12Z</time>
      </trkpt>
      <trkpt lat="45.27024" lon="6.16894">
        <ele>2222.71</ele>
        <time>2010-01-23T09:14:28Z</time>
      </trkpt>
      <trkpt lat="45.27015" lon="6.16888">
        <ele>2224.63</ele>
        <time>2010-01-23T09:14:38Z</time>
      </trkpt>
      <trkpt lat="45.27006" lon="6.16888">
        <ele>2227.03</ele>
        <time>2010-01-23T09:14:49Z</time>
      </trkpt>
      <trkpt lat="45.27001" lon="6.16894">
        <ele>2228.47</ele>
        <time>2010-01-23T09:15:01Z</time>
      </trkpt>
      <trkpt lat="45.2699" lon="6.16899">
        <ele>2229.92</ele>
        <time>2010-01-23T09:15:11Z</time>
      </trkpt>
      <trkpt lat="45.26982" lon="6.16892">
        <ele>2231.84</ele>
        <time>2010-01-23T09:15:23Z</time>
      </trkpt>
      <trkpt lat="45.26976" lon="6.16886">
        <ele>2233.76</ele>
        <time>2010-01-23T09:15:34Z</time>
      </trkpt>
      <trkpt lat="45.2697" lon="6.16879">
        <ele>2235.68</ele>
        <time>2010-01-23T09:15:45Z</time>
      </trkpt>
      <trkpt lat="45.26967" lon="6.1687">
        <ele>2237.61</ele>
        <time>2010-01-23T09:15:55Z</time>
      </trkpt>
      <trkpt lat="45.26962" lon="6.16865">
        <ele>2239.05</ele>
        <time>2010-01-23T09:16:07Z</time>
      </trkpt>
      <trkpt lat="45.26957" lon="6.16858">
        <ele>2241.45</ele>
        <time>2010-01-23T09:16:19Z</time>
      </trkpt>
      <trkpt lat="45.26954" lon="6.16844">
        <ele>2243.85</ele>
        <time>2010-01-23T09:16:32Z</time>
      </trkpt>
      <trkpt lat="45.26953" lon="6.16836">
        <ele>2245.78</ele>
        <time>2010-01-23T09:16:40Z</time>
      </trkpt>
      <trkpt lat="45.26957" lon="6.1683">
        <ele>2248.66</ele>
        <time>2010-01-23T09:16:52Z</time>
      </trkpt>
      <trkpt lat="45.26962" lon="6.16824">
        <ele>2250.1</ele>
        <time>2010-01-23T09:17:03Z</time>
      </trkpt>
      <trkpt lat="45.26965" lon="6.16814">
        <ele>2251.54</ele>
        <time>2010-01-23T09:17:13Z</time>
      </trkpt>
      <trkpt lat="45.26968" lon="6.16808">
        <ele>2253.47</ele>
        <time>2010-01-23T09:17:24Z</time>
      </trkpt>
      <trkpt lat="45.26973" lon="6.16799">
        <ele>2256.83</ele>
        <time>2010-01-23T09:17:37Z</time>
      </trkpt>
      <trkpt lat="45.26975" lon="6.1679">
        <ele>2258.27</ele>
        <time>2010-01-23T09:17:49Z</time>
      </trkpt>
      <trkpt lat="45.26975" lon="6.1678">
        <ele>2260.2</ele>
        <time>2010-01-23T09:18:01Z</time>
      </trkpt>
      <trkpt lat="45.26967" lon="6.16772">
        <ele>2262.12</ele>
        <time>2010-01-23T09:18:12Z</time>
      </trkpt>
      <trkpt lat="45.26958" lon="6.16769">
        <ele>2264.04</ele>
        <time>2010-01-23T09:18:24Z</time>
      </trkpt>
      <trkpt lat="45.26955" lon="6.16768">
        <ele>2265.48</ele>
        <time>2010-01-23T09:18:32Z</time>
      </trkpt>
      <trkpt lat="45.26948" lon="6.16768">
        <ele>2266.93</ele>
        <time>2010-01-23T09:18:43Z</time>
      </trkpt>
      <trkpt lat="45.26944" lon="6.16765">
        <ele>2268.85</ele>
        <time>2010-01-23T09:18:57Z</time>
      </trkpt>
      <trkpt lat="45.26947" lon="6.16751">
        <ele>2270.77</ele>
        <time>2010-01-23T09:19:09Z</time>
      </trkpt>
      <trkpt lat="45.26951" lon="6.16745">
        <ele>2272.69</ele>
        <time>2010-01-23T09:19:20Z</time>
      </trkpt>
      <trkpt lat="45.26955" lon="6.16733">
        <ele>2275.1</ele>
        <time>2010-01-23T09:19:35Z</time>
      </trkpt>
      <trkpt lat="45.26957" lon="6.16724">
        <ele>2277.98</ele>
        <time>2010-01-23T09:19:48Z</time>
      </trkpt>
      <trkpt lat="45.26959" lon="6.16718">
        <ele>2279.42</ele>
        <time>2010-01-23T09:20:01Z</time>
      </trkpt>
      <trkpt lat="45.26961" lon="6.16712">
        <ele>2281.35</ele>
        <time>2010-01-23T09:20:16Z</time>
      </trkpt>
      <trkpt lat="45.26955" lon="6.16706">
        <ele>2282.79</ele>
        <time>2010-01-23T09:20:32Z</time>
      </trkpt>
      <trkpt lat="45.26949" lon="6.16703">
        <ele>2285.19</ele>
        <time>2010-01-23T09:20:45Z</time>
      </trkpt>
      <trkpt lat="45.26943" lon="6.16701">
        <ele>2287.11</ele>
        <time>2010-01-23T09:20:57Z</time>
      </trkpt>
      <trkpt lat="45.26933" lon="6.167">
        <ele>2289.52</ele>
        <time>2010-01-23T09:21:12Z</time>
      </trkpt>
      <trkpt lat="45.26928" lon="6.16693">
        <ele>2291.92</ele>
        <time>2010-01-23T09:21:26Z</time>
      </trkpt>
      <trkpt lat="45.26921" lon="6.16692">
        <ele>2294.8</ele>
        <time>2010-01-23T09:21:45Z</time>
      </trkpt>
      <trkpt lat="45.26921" lon="6.16692">
        <ele>2295.28</ele>
        <time>2010-01-23T09:21:47Z</time>
      </trkpt>
      <trkpt lat="45.26923" lon="6.1668">
        <ele>2296.73</ele>
        <time>2010-01-23T09:21:58Z</time>
      </trkpt>
      <trkpt lat="45.26925" lon="6.16667">
        <ele>2299.13</ele>
        <time>2010-01-23T09:22:10Z</time>
      </trkpt>
      <trkpt lat="45.26922" lon="6.16659">
        <ele>2302.01</ele>
        <time>2010-01-23T09:22:31Z</time>
      </trkpt>
      <trkpt lat="45.26915" lon="6.16659">
        <ele>2303.94</ele>
        <time>2010-01-23T09:22:44Z</time>
      </trkpt>
      <trkpt lat="45.2691" lon="6.16655">
        <ele>2305.86</ele>
        <time>2010-01-23T09:22:57Z</time>
      </trkpt>
      <trkpt lat="45.26908" lon="6.16649">
        <ele>2308.26</ele>
        <time>2010-01-23T09:23:10Z</time>
      </trkpt>
      <trkpt lat="45.26905" lon="6.16634">
        <ele>2310.67</ele>
        <time>2010-01-23T09:23:36Z</time>
      </trkpt>
      <trkpt lat="45.26893" lon="6.16636">
        <ele>2313.55</ele>
        <time>2010-01-23T09:23:49Z</time>
      </trkpt>
      <trkpt lat="45.26887" lon="6.1664">
        <ele>2315.47</ele>
        <time>2010-01-23T09:24:06Z</time>
      </trkpt>
      <trkpt lat="45.26887" lon="6.16627">
        <ele>2318.36</ele>
        <time>2010-01-23T09:24:28Z</time>
      </trkpt>
      <trkpt lat="45.26885" lon="6.16613">
        <ele>2320.28</ele>
        <time>2010-01-23T09:24:43Z</time>
      </trkpt>
      <trkpt lat="45.26886" lon="6.16611">
        <ele>2323.64</ele>
        <time>2010-01-23T09:25:02Z</time>
      </trkpt>
      <trkpt lat="45.26868" lon="6.1662">
        <ele>2326.53</ele>
        <time>2010-01-23T09:25:23Z</time>
      </trkpt>
      <trkpt lat="45.26863" lon="6.16624">
        <ele>2328.93</ele>
        <time>2010-01-23T09:25:38Z</time>
      </trkpt>
      <trkpt lat="45.26862" lon="6.16626">
        <ele>2329.41</ele>
        <time>2010-01-23T09:25:41Z</time>
      </trkpt>
      <trkpt lat="45.26858" lon="6.16633">
        <ele>2329.89</ele>
        <time>2010-01-23T09:25:57Z</time>
      </trkpt>
      <trkpt lat="45.26853" lon="6.16641">
        <ele>2333.74</ele>
        <time>2010-01-23T09:26:16Z</time>
      </trkpt>
      <trkpt lat="45.2685" lon="6.16648">
        <ele>2335.66</ele>
        <time>2010-01-23T09:26:39Z</time>
      </trkpt>
      <trkpt lat="45.26844" lon="6.16662">
        <ele>2338.54</ele>
        <time>2010-01-23T09:27:00Z</time>
      </trkpt>
      <trkpt lat="45.26838" lon="6.16675">
        <ele>2341.43</ele>
        <time>2010-01-23T09:27:17Z</time>
      </trkpt>
      <trkpt lat="45.26836" lon="6.16683">
        <ele>2343.83</ele>
        <time>2010-01-23T09:27:29Z</time>
      </trkpt>
      <trkpt lat="45.26833" lon="6.16687">
        <ele>2344.79</ele>
        <time>2010-01-23T09:27:35Z</time>
      </trkpt>
      <trkpt lat="45.26827" lon="6.16689">
        <ele>2345.75</ele>
        <time>2010-01-23T09:27:48Z</time>
      </trkpt>
      <trkpt lat="45.26822" lon="6.16695">
        <ele>2347.68</ele>
        <time>2010-01-23T09:28:01Z</time>
      </trkpt>
      <trkpt lat="45.26819" lon="6.16702">
        <ele>2349.12</ele>
        <time>2010-01-23T09:28:12Z</time>
      </trkpt>
      <trkpt lat="45.26814" lon="6.16696">
        <ele>2352.48</ele>
        <time>2010-01-23T09:28:35Z</time>
      </trkpt>
      <trkpt lat="45.2681" lon="6.16694">
        <ele>2355.37</ele>
        <time>2010-01-23T09:29:05Z</time>
      </trkpt>
      <trkpt lat="45.26807" lon="6.16698">
        <ele>2356.81</ele>
        <time>2010-01-23T09:29:14Z</time>
      </trkpt>
      <trkpt lat="45.26804" lon="6.16707">
        <ele>2358.25</ele>
        <time>2010-01-23T09:29:25Z</time>
      </trkpt>
      <trkpt lat="45.26803" lon="6.1671">
        <ele>2361.14</ele>
        <time>2010-01-23T09:29:43Z</time>
      </trkpt>
      <trkpt lat="45.26803" lon="6.16708">
        <ele>2362.1</ele>
        <time>2010-01-23T09:29:57Z</time>
      </trkpt>
      <trkpt lat="45.26799" lon="6.16694">
        <ele>2364.02</ele>
        <time>2010-01-23T09:30:11Z</time>
      </trkpt>
      <trkpt lat="45.26798" lon="6.16693">
        <ele>2364.02</ele>
        <time>2010-01-23T09:30:13Z</time>
      </trkpt>
      <trkpt lat="45.26795" lon="6.16692">
        <ele>2365.94</ele>
        <time>2010-01-23T09:30:32Z</time>
      </trkpt>
      <trkpt lat="45.26786" lon="6.16701">
        <ele>2368.35</ele>
        <time>2010-01-23T09:30:44Z</time>
      </trkpt>
      <trkpt lat="45.26783" lon="6.16709">
        <ele>2369.31</ele>
        <time>2010-01-23T09:30:57Z</time>
      </trkpt>
      <trkpt lat="45.26781" lon="6.16713">
        <ele>2371.23</ele>
        <time>2010-01-23T09:31:04Z</time>
      </trkpt>
      <trkpt lat="45.26779" lon="6.16717">
        <ele>2372.67</ele>
        <time>2010-01-23T09:31:18Z</time>
      </trkpt>
      <trkpt lat="45.26779" lon="6.16717">
        <ele>2372.19</ele>
        <time>2010-01-23T09:32:03Z</time>
      </trkpt>
      <trkpt lat="45.26777" lon="6.16724">
        <ele>2373.15</ele>
        <time>2010-01-23T09:33:13Z</time>
      </trkpt>
      <trkpt lat="45.26768" lon="6.16726">
        <ele>2374.59</ele>
        <time>2010-01-23T09:35:29Z</time>
      </trkpt>
      <trkpt lat="45.26767" lon="6.16727">
        <ele>2375.55</ele>
        <time>2010-01-23T09:35:52Z</time>
      </trkpt>
      <trkpt lat="45.26767" lon="6.16727">
        <ele>2364.98</ele>
        <time>2010-01-23T09:36:30Z</time>
      </trkpt>
      <trkpt lat="45.26767" lon="6.16727">
        <ele>2380.36</ele>
        <time>2010-01-23T09:36:31Z</time>
      </trkpt>
      <trkpt lat="45.26767" lon="6.16727">
        <ele>2377.48</ele>
        <time>2010-01-23T09:36:32Z</time>
      </trkpt>
      <trkpt lat="45.26767" lon="6.16727">
        <ele>2375.55</ele>
        <time>2010-01-23T09:36:34Z</time>
      </trkpt>
      <trkpt lat="45.26767" lon="6.16726">
        <ele>2374.59</ele>
        <time>2010-01-23T09:37:21Z</time>
      </trkpt>
      <trkpt lat="45.26758" lon="6.16728">
        <ele>2375.55</ele>
        <time>2010-01-23T09:37:43Z</time>
      </trkpt>
      <trkpt lat="45.26742" lon="6.16732">
        <ele>2376.52</ele>
        <time>2010-01-23T09:37:53Z</time>
      </trkpt>
      <trkpt lat="45.26727" lon="6.16739">
        <ele>2377</ele>
        <time>2010-01-23T09:38:02Z</time>
      </trkpt>
      <trkpt lat="45.26724" lon="6.16741">
        <ele>2377</ele>
        <time>2010-01-23T09:38:05Z</time>
      </trkpt>
      <trkpt lat="45.26714" lon="6.16753">
        <ele>2377.48</ele>
        <time>2010-01-23T09:38:14Z</time>
      </trkpt>
      <trkpt lat="45.26707" lon="6.16767">
        <ele>2377.48</ele>
        <time>2010-01-23T09:38:26Z</time>
      </trkpt>
      <trkpt lat="45.267" lon="6.16777">
        <ele>2377.48</ele>
        <time>2010-01-23T09:38:37Z</time>
      </trkpt>
      <trkpt lat="45.26695" lon="6.16789">
        <ele>2378.44</ele>
        <time>2010-01-23T09:38:45Z</time>
      </trkpt>
      <trkpt lat="45.26691" lon="6.16801">
        <ele>2379.88</ele>
        <time>2010-01-23T09:38:57Z</time>
      </trkpt>
      <trkpt lat="45.26689" lon="6.16809">
        <ele>2380.84</ele>
        <time>2010-01-23T09:39:06Z</time>
      </trkpt>
      <trkpt lat="45.26688" lon="6.16816">
        <ele>2382.76</ele>
        <time>2010-01-23T09:39:17Z</time>
      </trkpt>
      <trkpt lat="45.26688" lon="6.16822">
        <ele>2385.65</ele>
        <time>2010-01-23T09:39:27Z</time>
      </trkpt>
      <trkpt lat="45.26686" lon="6.16828">
        <ele>2387.57</ele>
        <time>2010-01-23T09:39:41Z</time>
      </trkpt>
      <trkpt lat="45.26682" lon="6.16825">
        <ele>2390.46</ele>
        <time>2010-01-23T09:40:03Z</time>
      </trkpt>
      <trkpt lat="45.26679" lon="6.16829">
        <ele>2393.34</ele>
        <time>2010-01-23T09:40:25Z</time>
      </trkpt>
      <trkpt lat="45.26674" lon="6.16834">
        <ele>2396.22</ele>
        <time>2010-01-23T09:40:38Z</time>
      </trkpt>
      <trkpt lat="45.26675" lon="6.16843">
        <ele>2398.63</ele>
        <time>2010-01-23T09:40:49Z</time>
      </trkpt>
      <trkpt lat="45.26673" lon="6.16856">
        <ele>2401.99</ele>
        <time>2010-01-23T09:41:04Z</time>
      </trkpt>
      <trkpt lat="45.26671" lon="6.16866">
        <ele>2404.39</ele>
        <time>2010-01-23T09:41:20Z</time>
      </trkpt>
      <trkpt lat="45.26667" lon="6.16874">
        <ele>2405.36</ele>
        <time>2010-01-23T09:41:36Z</time>
      </trkpt>
      <trkpt lat="45.26663" lon="6.16881">
        <ele>2407.76</ele>
        <time>2010-01-23T09:41:46Z</time>
      </trkpt>
      <trkpt lat="45.26657" lon="6.16881">
        <ele>2408.24</ele>
        <time>2010-01-23T09:41:56Z</time>
      </trkpt>
      <trkpt lat="45.26647" lon="6.16877">
        <ele>2410.64</ele>
        <time>2010-01-23T09:42:10Z</time>
      </trkpt>
      <trkpt lat="45.26645" lon="6.16877">
        <ele>2413.53</ele>
        <time>2010-01-23T09:42:28Z</time>
      </trkpt>
      <trkpt lat="45.26642" lon="6.16875">
        <ele>2416.89</ele>
        <time>2010-01-23T09:42:41Z</time>
      </trkpt>
      <trkpt lat="45.26641" lon="6.16874">
        <ele>2416.89</ele>
        <time>2010-01-23T09:42:48Z</time>
      </trkpt>
      <trkpt lat="45.26637" lon="6.16867">
        <ele>2419.78</ele>
        <time>2010-01-23T09:43:03Z</time>
      </trkpt>
      <trkpt lat="45.26634" lon="6.16855">
        <ele>2421.7</ele>
        <time>2010-01-23T09:43:19Z</time>
      </trkpt>
      <trkpt lat="45.26627" lon="6.16838">
        <ele>2424.1</ele>
        <time>2010-01-23T09:43:39Z</time>
      </trkpt>
      <trkpt lat="45.26611" lon="6.16829">
        <ele>2426.99</ele>
        <time>2010-01-23T09:43:58Z</time>
      </trkpt>
      <trkpt lat="45.26606" lon="6.16829">
        <ele>2429.87</ele>
        <time>2010-01-23T09:44:15Z</time>
      </trkpt>
      <trkpt lat="45.26602" lon="6.16828">
        <ele>2433.23</ele>
        <time>2010-01-23T09:44:32Z</time>
      </trkpt>
      <trkpt lat="45.26597" lon="6.16821">
        <ele>2436.6</ele>
        <time>2010-01-23T09:45:05Z</time>
      </trkpt>
      <trkpt lat="45.26595" lon="6.1681">
        <ele>2439.96</ele>
        <time>2010-01-23T09:45:24Z</time>
      </trkpt>
      <trkpt lat="45.26595" lon="6.16799">
        <ele>2442.85</ele>
        <time>2010-01-23T09:45:42Z</time>
      </trkpt>
      <trkpt lat="45.26596" lon="6.16788">
        <ele>2444.77</ele>
        <time>2010-01-23T09:45:54Z</time>
      </trkpt>
      <trkpt lat="45.26597" lon="6.1678">
        <ele>2446.21</ele>
        <time>2010-01-23T09:46:07Z</time>
      </trkpt>
      <trkpt lat="45.26599" lon="6.1677">
        <ele>2449.58</ele>
        <time>2010-01-23T09:46:22Z</time>
      </trkpt>
      <trkpt lat="45.266" lon="6.16767">
        <ele>2450.06</ele>
        <time>2010-01-23T09:46:27Z</time>
      </trkpt>
      <trkpt lat="45.26605" lon="6.16755">
        <ele>2452.94</ele>
        <time>2010-01-23T09:46:45Z</time>
      </trkpt>
      <trkpt lat="45.26602" lon="6.16753">
        <ele>2456.31</ele>
        <time>2010-01-23T09:47:15Z</time>
      </trkpt>
      <trkpt lat="45.26594" lon="6.16754">
        <ele>2459.19</ele>
        <time>2010-01-23T09:47:39Z</time>
      </trkpt>
      <trkpt lat="45.26588" lon="6.16755">
        <ele>2462.55</ele>
        <time>2010-01-23T09:47:58Z</time>
      </trkpt>
      <trkpt lat="45.26584" lon="6.16746">
        <ele>2463.52</ele>
        <time>2010-01-23T09:48:21Z</time>
      </trkpt>
      <trkpt lat="45.26586" lon="6.16736">
        <ele>2466.88</ele>
        <time>2010-01-23T09:48:41Z</time>
      </trkpt>
      <trkpt lat="45.2659" lon="6.16729">
        <ele>2468.8</ele>
        <time>2010-01-23T09:48:59Z</time>
      </trkpt>
      <trkpt lat="45.26593" lon="6.16724">
        <ele>2471.21</ele>
        <time>2010-01-23T09:49:18Z</time>
      </trkpt>
      <trkpt lat="45.26592" lon="6.16721">
        <ele>2474.57</ele>
        <time>2010-01-23T09:49:47Z</time>
      </trkpt>
      <trkpt lat="45.26584" lon="6.1672">
        <ele>2477.45</ele>
        <time>2010-01-23T09:50:07Z</time>
      </trkpt>
      <trkpt lat="45.26576" lon="6.16718">
        <ele>2480.82</ele>
        <time>2010-01-23T09:50:42Z</time>
      </trkpt>
      <trkpt lat="45.26575" lon="6.16708">
        <ele>2484.18</ele>
        <time>2010-01-23T09:51:08Z</time>
      </trkpt>
      <trkpt lat="45.26576" lon="6.16699">
        <ele>2486.11</ele>
        <time>2010-01-23T09:51:26Z</time>
      </trkpt>
      <trkpt lat="45.2658" lon="6.16692">
        <ele>2488.03</ele>
        <time>2010-01-23T09:51:52Z</time>
      </trkpt>
      <trkpt lat="45.26575" lon="6.16691">
        <ele>2491.39</ele>
        <time>2010-01-23T09:52:15Z</time>
      </trkpt>
      <trkpt lat="45.26568" lon="6.16691">
        <ele>2493.32</ele>
        <time>2010-01-23T09:52:27Z</time>
      </trkpt>
      <trkpt lat="45.26565" lon="6.16692">
        <ele>2494.76</ele>
        <time>2010-01-23T09:52:42Z</time>
      </trkpt>
      <trkpt lat="45.26569" lon="6.1668">
        <ele>2497.16</ele>
        <time>2010-01-23T09:53:06Z</time>
      </trkpt>
      <trkpt lat="45.26571" lon="6.16676">
        <ele>2500.05</ele>
        <time>2010-01-23T09:53:36Z</time>
      </trkpt>
      <trkpt lat="45.2657" lon="6.16675">
        <ele>2501.01</ele>
        <time>2010-01-23T09:53:49Z</time>
      </trkpt>
      <trkpt lat="45.26564" lon="6.16675">
        <ele>2503.41</ele>
        <time>2010-01-23T09:54:04Z</time>
      </trkpt>
      <trkpt lat="45.26566" lon="6.16667">
        <ele>2506.29</ele>
        <time>2010-01-23T09:54:40Z</time>
      </trkpt>
      <trkpt lat="45.26562" lon="6.16665">
        <ele>2509.66</ele>
        <time>2010-01-23T09:55:18Z</time>
      </trkpt>
      <trkpt lat="45.26557" lon="6.16667">
        <ele>2512.54</ele>
        <time>2010-01-23T09:55:39Z</time>
      </trkpt>
      <trkpt lat="45.26553" lon="6.16661">
        <ele>2515.43</ele>
        <time>2010-01-23T09:56:09Z</time>
      </trkpt>
      <trkpt lat="45.26557" lon="6.16653">
        <ele>2517.35</ele>
        <time>2010-01-23T09:56:24Z</time>
      </trkpt>
      <trkpt lat="45.2656" lon="6.16651">
        <ele>2517.83</ele>
        <time>2010-01-23T09:56:28Z</time>
      </trkpt>
      <trkpt lat="45.26562" lon="6.16649">
        <ele>2520.23</ele>
        <time>2010-01-23T09:56:52Z</time>
      </trkpt>
      <trkpt lat="45.26555" lon="6.1665">
        <ele>2522.64</ele>
        <time>2010-01-23T09:57:12Z</time>
      </trkpt>
      <trkpt lat="45.26547" lon="6.16659">
        <ele>2525.04</ele>
        <time>2010-01-23T09:57:28Z</time>
      </trkpt>
      <trkpt lat="45.2654" lon="6.16661">
        <ele>2527.92</ele>
        <time>2010-01-23T09:57:48Z</time>
      </trkpt>
      <trkpt lat="45.26538" lon="6.16662">
        <ele>2529.37</ele>
        <time>2010-01-23T09:58:07Z</time>
      </trkpt>
      <trkpt lat="45.26539" lon="6.16655">
        <ele>2532.73</ele>
        <time>2010-01-23T09:58:27Z</time>
      </trkpt>
      <trkpt lat="45.26542" lon="6.16646">
        <ele>2535.61</ele>
        <time>2010-01-23T09:58:53Z</time>
      </trkpt>
      <trkpt lat="45.26542" lon="6.16646">
        <ele>2536.1</ele>
        <time>2010-01-23T09:58:54Z</time>
      </trkpt>
      <trkpt lat="45.26549" lon="6.16632">
        <ele>2538.98</ele>
        <time>2010-01-23T09:59:18Z</time>
      </trkpt>
      <trkpt lat="45.26542" lon="6.16628">
        <ele>2541.86</ele>
        <time>2010-01-23T09:59:49Z</time>
      </trkpt>
      <trkpt lat="45.26537" lon="6.16626">
        <ele>2544.27</ele>
        <time>2010-01-23T10:00:14Z</time>
      </trkpt>
      <trkpt lat="45.26538" lon="6.16621">
        <ele>2547.15</ele>
        <time>2010-01-23T10:00:33Z</time>
      </trkpt>
      <trkpt lat="45.26538" lon="6.16618">
        <ele>2548.59</ele>
        <time>2010-01-23T10:00:47Z</time>
      </trkpt>
      <trkpt lat="45.26539" lon="6.16607">
        <ele>2550.51</ele>
        <time>2010-01-23T10:01:04Z</time>
      </trkpt>
      <trkpt lat="45.26532" lon="6.16609">
        <ele>2552.44</ele>
        <time>2010-01-23T10:01:23Z</time>
      </trkpt>
      <trkpt lat="45.26528" lon="6.16609">
        <ele>2554.84</ele>
        <time>2010-01-23T10:01:45Z</time>
      </trkpt>
      <trkpt lat="45.26528" lon="6.16608">
        <ele>2555.32</ele>
        <time>2010-01-23T10:01:49Z</time>
      </trkpt>
      <trkpt lat="45.2653" lon="6.16607">
        <ele>2556.28</ele>
        <time>2010-01-23T10:02:10Z</time>
      </trkpt>
      <trkpt lat="45.26524" lon="6.16606">
        <ele>2559.65</ele>
        <time>2010-01-23T10:02:28Z</time>
      </trkpt>
      <trkpt lat="45.26525" lon="6.16602">
        <ele>2561.57</ele>
        <time>2010-01-23T10:03:03Z</time>
      </trkpt>
      <trkpt lat="45.26519" lon="6.166">
        <ele>2563.49</ele>
        <time>2010-01-23T10:03:16Z</time>
      </trkpt>
      <trkpt lat="45.26512" lon="6.16597">
        <ele>2563.97</ele>
        <time>2010-01-23T10:03:27Z</time>
      </trkpt>
      <trkpt lat="45.26496" lon="6.16599">
        <ele>2560.61</ele>
        <time>2010-01-23T10:03:35Z</time>
      </trkpt>
      <trkpt lat="45.26486" lon="6.16601">
        <ele>2549.55</ele>
        <time>2010-01-23T10:03:38Z</time>
      </trkpt>
      <trkpt lat="45.26485" lon="6.16602">
        <ele>2555.8</ele>
        <time>2010-01-23T10:03:39Z</time>
      </trkpt>
      <trkpt lat="45.26485" lon="6.16602">
        <ele>2556.76</ele>
        <time>2010-01-23T10:03:41Z</time>
      </trkpt>
      <trkpt lat="45.26476" lon="6.16605">
        <ele>2558.21</ele>
        <time>2010-01-23T10:05:09Z</time>
      </trkpt>
      <trkpt lat="45.26469" lon="6.16606">
        <ele>2559.17</ele>
        <time>2010-01-23T10:05:19Z</time>
      </trkpt>
      <trkpt lat="45.26463" lon="6.16607">
        <ele>2560.13</ele>
        <time>2010-01-23T10:05:30Z</time>
      </trkpt>
      <trkpt lat="45.26456" lon="6.16608">
        <ele>2562.05</ele>
        <time>2010-01-23T10:05:41Z</time>
      </trkpt>
      <trkpt lat="45.26452" lon="6.16607">
        <ele>2563.97</ele>
        <time>2010-01-23T10:05:51Z</time>
      </trkpt>
      <trkpt lat="45.26447" lon="6.1661">
        <ele>2565.42</ele>
        <time>2010-01-23T10:06:03Z</time>
      </trkpt>
      <trkpt lat="45.26438" lon="6.16612">
        <ele>2568.78</ele>
        <time>2010-01-23T10:06:20Z</time>
      </trkpt>
      <trkpt lat="45.26437" lon="6.16604">
        <ele>2569.74</ele>
        <time>2010-01-23T10:06:43Z</time>
      </trkpt>
      <trkpt lat="45.26437" lon="6.16592">
        <ele>2573.11</ele>
        <time>2010-01-23T10:07:02Z</time>
      </trkpt>
      <trkpt lat="45.26441" lon="6.1658">
        <ele>2575.99</ele>
        <time>2010-01-23T10:07:38Z</time>
      </trkpt>
      <trkpt lat="45.26435" lon="6.16573">
        <ele>2578.87</ele>
        <time>2010-01-23T10:07:58Z</time>
      </trkpt>
      <trkpt lat="45.26429" lon="6.1657">
        <ele>2581.28</ele>
        <time>2010-01-23T10:08:17Z</time>
      </trkpt>
      <trkpt lat="45.26419" lon="6.16574">
        <ele>2584.16</ele>
        <time>2010-01-23T10:08:37Z</time>
      </trkpt>
      <trkpt lat="45.26411" lon="6.16575">
        <ele>2586.08</ele>
        <time>2010-01-23T10:08:54Z</time>
      </trkpt>
      <trkpt lat="45.26406" lon="6.16573">
        <ele>2588.01</ele>
        <time>2010-01-23T10:09:05Z</time>
      </trkpt>
      <trkpt lat="45.26406" lon="6.16566">
        <ele>2589.93</ele>
        <time>2010-01-23T10:09:19Z</time>
      </trkpt>
      <trkpt lat="45.26406" lon="6.16557">
        <ele>2592.81</ele>
        <time>2010-01-23T10:09:39Z</time>
      </trkpt>
      <trkpt lat="45.26406" lon="6.16541">
        <ele>2596.18</ele>
        <time>2010-01-23T10:10:09Z</time>
      </trkpt>
      <trkpt lat="45.26398" lon="6.16546">
        <ele>2599.06</ele>
        <time>2010-01-23T10:10:31Z</time>
      </trkpt>
      <trkpt lat="45.26393" lon="6.16546">
        <ele>2599.06</ele>
        <time>2010-01-23T10:10:44Z</time>
      </trkpt>
      <trkpt lat="45.26391" lon="6.16529">
        <ele>2602.91</ele>
        <time>2010-01-23T10:11:02Z</time>
      </trkpt>
      <trkpt lat="45.26391" lon="6.16529">
        <ele>2602.43</ele>
        <time>2010-01-23T10:11:03Z</time>
      </trkpt>
      <trkpt lat="45.26395" lon="6.16514">
        <ele>2604.35</ele>
        <time>2010-01-23T10:11:17Z</time>
      </trkpt>
      <trkpt lat="45.26396" lon="6.16511">
        <ele>2607.23</ele>
        <time>2010-01-23T10:11:32Z</time>
      </trkpt>
      <trkpt lat="45.26394" lon="6.16508">
        <ele>2610.12</ele>
        <time>2010-01-23T10:12:01Z</time>
      </trkpt>
      <trkpt lat="45.26387" lon="6.16506">
        <ele>2612.52</ele>
        <time>2010-01-23T10:12:18Z</time>
      </trkpt>
      <trkpt lat="45.26387" lon="6.16502">
        <ele>2613.48</ele>
        <time>2010-01-23T10:12:36Z</time>
      </trkpt>
      <trkpt lat="45.26393" lon="6.16493">
        <ele>2616.85</ele>
        <time>2010-01-23T10:12:55Z</time>
      </trkpt>
      <trkpt lat="45.26401" lon="6.16492">
        <ele>2620.21</ele>
        <time>2010-01-23T10:13:16Z</time>
      </trkpt>
      <trkpt lat="45.26401" lon="6.16484">
        <ele>2623.58</ele>
        <time>2010-01-23T10:13:49Z</time>
      </trkpt>
      <trkpt lat="45.264" lon="6.1648">
        <ele>2626.94</ele>
        <time>2010-01-23T10:14:07Z</time>
      </trkpt>
      <trkpt lat="45.26398" lon="6.16476">
        <ele>2630.3</ele>
        <time>2010-01-23T10:14:27Z</time>
      </trkpt>
      <trkpt lat="45.26381" lon="6.16468">
        <ele>2631.75</ele>
        <time>2010-01-23T10:14:43Z</time>
      </trkpt>
      <trkpt lat="45.26372" lon="6.16466">
        <ele>2635.11</ele>
        <time>2010-01-23T10:15:02Z</time>
      </trkpt>
      <trkpt lat="45.26362" lon="6.16465">
        <ele>2637.51</ele>
        <time>2010-01-23T10:15:19Z</time>
      </trkpt>
      <trkpt lat="45.26363" lon="6.16456">
        <ele>2640.88</ele>
        <time>2010-01-23T10:15:50Z</time>
      </trkpt>
      <trkpt lat="45.26363" lon="6.16455">
        <ele>2640.88</ele>
        <time>2010-01-23T10:15:51Z</time>
      </trkpt>
      <trkpt lat="45.26368" lon="6.16443">
        <ele>2644.24</ele>
        <time>2010-01-23T10:16:10Z</time>
      </trkpt>
      <trkpt lat="45.2637" lon="6.16418">
        <ele>2647.13</ele>
        <time>2010-01-23T10:16:30Z</time>
      </trkpt>
      <trkpt lat="45.2637" lon="6.16417">
        <ele>2650.49</ele>
        <time>2010-01-23T10:16:45Z</time>
      </trkpt>
      <trkpt lat="45.26371" lon="6.164">
        <ele>2652.42</ele>
        <time>2010-01-23T10:17:03Z</time>
      </trkpt>
      <trkpt lat="45.26372" lon="6.16395">
        <ele>2655.78</ele>
        <time>2010-01-23T10:17:29Z</time>
      </trkpt>
      <trkpt lat="45.26376" lon="6.16383">
        <ele>2659.14</ele>
        <time>2010-01-23T10:17:53Z</time>
      </trkpt>
      <trkpt lat="45.26383" lon="6.16376">
        <ele>2662.03</ele>
        <time>2010-01-23T10:18:11Z</time>
      </trkpt>
      <trkpt lat="45.26393" lon="6.16368">
        <ele>2663.95</ele>
        <time>2010-01-23T10:18:22Z</time>
      </trkpt>
      <trkpt lat="45.26399" lon="6.16363">
        <ele>2667.31</ele>
        <time>2010-01-23T10:18:47Z</time>
      </trkpt>
      <trkpt lat="45.26399" lon="6.16353">
        <ele>2668.76</ele>
        <time>2010-01-23T10:19:05Z</time>
      </trkpt>
      <trkpt lat="45.26393" lon="6.16345">
        <ele>2672.12</ele>
        <time>2010-01-23T10:19:21Z</time>
      </trkpt>
      <trkpt lat="45.26388" lon="6.16339">
        <ele>2675.49</ele>
        <time>2010-01-23T10:19:42Z</time>
      </trkpt>
      <trkpt lat="45.26386" lon="6.16336">
        <ele>2676.45</ele>
        <time>2010-01-23T10:19:47Z</time>
      </trkpt>
      <trkpt lat="45.26384" lon="6.16325">
        <ele>2679.33</ele>
        <time>2010-01-23T10:20:09Z</time>
      </trkpt>
      <trkpt lat="45.26382" lon="6.16317">
        <ele>2683.18</ele>
        <time>2010-01-23T10:20:30Z</time>
      </trkpt>
      <trkpt lat="45.26382" lon="6.16295">
        <ele>2685.58</ele>
        <time>2010-01-23T10:20:47Z</time>
      </trkpt>
      <trkpt lat="45.26377" lon="6.16289">
        <ele>2688.94</ele>
        <time>2010-01-23T10:21:07Z</time>
      </trkpt>
      <trkpt lat="45.26374" lon="6.16279">
        <ele>2691.83</ele>
        <time>2010-01-23T10:21:42Z</time>
      </trkpt>
      <trkpt lat="45.2637" lon="6.1627">
        <ele>2695.19</ele>
        <time>2010-01-23T10:22:01Z</time>
      </trkpt>
      <trkpt lat="45.26367" lon="6.16263">
        <ele>2698.56</ele>
        <time>2010-01-23T10:22:19Z</time>
      </trkpt>
      <trkpt lat="45.26365" lon="6.16257">
        <ele>2701.92</ele>
        <time>2010-01-23T10:22:39Z</time>
      </trkpt>
      <trkpt lat="45.26365" lon="6.16257">
        <ele>2701.92</ele>
        <time>2010-01-23T10:22:40Z</time>
      </trkpt>
      <trkpt lat="45.26358" lon="6.16239">
        <ele>2705.29</ele>
        <time>2010-01-23T10:22:57Z</time>
      </trkpt>
      <trkpt lat="45.2636" lon="6.16227">
        <ele>2708.65</ele>
        <time>2010-01-23T10:23:33Z</time>
      </trkpt>
      <trkpt lat="45.2636" lon="6.16228">
        <ele>2711.54</ele>
        <time>2010-01-23T10:23:46Z</time>
      </trkpt>
      <trkpt lat="45.26359" lon="6.16221">
        <ele>2714.9</ele>
        <time>2010-01-23T10:24:01Z</time>
      </trkpt>
      <trkpt lat="45.2636" lon="6.16211">
        <ele>2717.78</ele>
        <time>2010-01-23T10:24:20Z</time>
      </trkpt>
      <trkpt lat="45.26359" lon="6.16196">
        <ele>2720.67</ele>
        <time>2010-01-23T10:24:38Z</time>
      </trkpt>
      <trkpt lat="45.26361" lon="6.16188">
        <ele>2723.55</ele>
        <time>2010-01-23T10:24:54Z</time>
      </trkpt>
      <trkpt lat="45.26364" lon="6.16172">
        <ele>2725.96</ele>
        <time>2010-01-23T10:25:12Z</time>
      </trkpt>
      <trkpt lat="45.26365" lon="6.1617">
        <ele>2725.96</ele>
        <time>2010-01-23T10:25:35Z</time>
      </trkpt>
      <trkpt lat="45.26364" lon="6.16168">
        <ele>2726.92</ele>
        <time>2010-01-23T10:26:47Z</time>
      </trkpt>
      <trkpt lat="45.26364" lon="6.16168">
        <ele>2726.44</ele>
        <time>2010-01-23T10:27:14Z</time>
      </trkpt>
      <trkpt lat="45.26364" lon="6.16167">
        <ele>2726.44</ele>
        <time>2010-01-23T10:27:52Z</time>
      </trkpt>
      <trkpt lat="45.26364" lon="6.16167">
        <ele>2725.96</ele>
        <time>2010-01-23T10:30:44Z</time>
      </trkpt>
      <trkpt lat="45.26365" lon="6.16165">
        <ele>2727.4</ele>
        <time>2010-01-23T10:36:22Z</time>
      </trkpt>
      <trkpt lat="45.26364" lon="6.16164">
        <ele>2727.88</ele>
        <time>2010-01-23T10:39:06Z</time>
      </trkpt>
      <trkpt lat="45.26363" lon="6.16155">
        <ele>2726.92</ele>
        <time>2010-01-23T10:40:08Z</time>
      </trkpt>
      <trkpt lat="45.26363" lon="6.16141">
        <ele>2725.96</ele>
        <time>2010-01-23T10:40:18Z</time>
      </trkpt>
      <trkpt lat="45.26366" lon="6.16133">
        <ele>2723.55</ele>
        <time>2010-01-23T10:44:50Z</time>
      </trkpt>
      <trkpt lat="45.26368" lon="6.16132">
        <ele>2721.63</ele>
        <time>2010-01-23T10:44:53Z</time>
      </trkpt>
      <trkpt lat="45.26372" lon="6.16132">
        <ele>2717.78</ele>
        <time>2010-01-23T10:44:56Z</time>
      </trkpt>
      <trkpt lat="45.26373" lon="6.16132">
        <ele>2717.78</ele>
        <time>2010-01-23T10:44:57Z</time>
      </trkpt>
      <trkpt lat="45.26373" lon="6.16132">
        <ele>2716.82</ele>
        <time>2010-01-23T10:45:04Z</time>
      </trkpt>
      <trkpt lat="45.26374" lon="6.16132">
        <ele>2713.46</ele>
        <time>2010-01-23T10:45:06Z</time>
      </trkpt>
      <trkpt lat="45.26378" lon="6.1613">
        <ele>2712.02</ele>
        <time>2010-01-23T10:45:16Z</time>
      </trkpt>
      <trkpt lat="45.26384" lon="6.16126">
        <ele>2706.73</ele>
        <time>2010-01-23T10:45:19Z</time>
      </trkpt>
      <trkpt lat="45.26387" lon="6.16123">
        <ele>2705.29</ele>
        <time>2010-01-23T10:45:23Z</time>
      </trkpt>
      <trkpt lat="45.26396" lon="6.16123">
        <ele>2701.44</ele>
        <time>2010-01-23T10:45:27Z</time>
      </trkpt>
      <trkpt lat="45.26397" lon="6.1612">
        <ele>2698.56</ele>
        <time>2010-01-23T10:45:29Z</time>
      </trkpt>
      <trkpt lat="45.26397" lon="6.1612">
        <ele>2698.08</ele>
        <time>2010-01-23T10:45:30Z</time>
      </trkpt>
      <trkpt lat="45.26398" lon="6.16119">
        <ele>2697.6</ele>
        <time>2010-01-23T10:45:32Z</time>
      </trkpt>
      <trkpt lat="45.26404" lon="6.16119">
        <ele>2693.27</ele>
        <time>2010-01-23T10:45:35Z</time>
      </trkpt>
      <trkpt lat="45.26405" lon="6.16115">
        <ele>2690.87</ele>
        <time>2010-01-23T10:45:38Z</time>
      </trkpt>
      <trkpt lat="45.26404" lon="6.16114">
        <ele>2690.39</ele>
        <time>2010-01-23T10:45:42Z</time>
      </trkpt>
      <trkpt lat="45.26412" lon="6.16116">
        <ele>2686.54</ele>
        <time>2010-01-23T10:45:45Z</time>
      </trkpt>
      <trkpt lat="45.26415" lon="6.16113">
        <ele>2681.73</ele>
        <time>2010-01-23T10:45:49Z</time>
      </trkpt>
      <trkpt lat="45.26414" lon="6.16111">
        <ele>2679.81</ele>
        <time>2010-01-23T10:46:40Z</time>
      </trkpt>
      <trkpt lat="45.26418" lon="6.16109">
        <ele>2676.93</ele>
        <time>2010-01-23T10:46:43Z</time>
      </trkpt>
      <trkpt lat="45.26418" lon="6.16109">
        <ele>2675.49</ele>
        <time>2010-01-23T10:46:47Z</time>
      </trkpt>
      <trkpt lat="45.26427" lon="6.16108">
        <ele>2671.16</ele>
        <time>2010-01-23T10:46:50Z</time>
      </trkpt>
      <trkpt lat="45.2643" lon="6.16105">
        <ele>2668.76</ele>
        <time>2010-01-23T10:46:51Z</time>
      </trkpt>
      <trkpt lat="45.26432" lon="6.16103">
        <ele>2667.8</ele>
        <time>2010-01-23T10:46:57Z</time>
      </trkpt>
      <trkpt lat="45.26433" lon="6.16113">
        <ele>2663.95</ele>
        <time>2010-01-23T10:47:00Z</time>
      </trkpt>
      <trkpt lat="45.26433" lon="6.16128">
        <ele>2660.11</ele>
        <time>2010-01-23T10:47:03Z</time>
      </trkpt>
      <trkpt lat="45.26433" lon="6.16131">
        <ele>2660.11</ele>
        <time>2010-01-23T10:47:04Z</time>
      </trkpt>
      <trkpt lat="45.26433" lon="6.16133">
        <ele>2659.62</ele>
        <time>2010-01-23T10:47:20Z</time>
      </trkpt>
      <trkpt lat="45.26433" lon="6.16133">
        <ele>2659.62</ele>
        <time>2010-01-23T10:47:47Z</time>
      </trkpt>
      <trkpt lat="45.26437" lon="6.16135">
        <ele>2657.7</ele>
        <time>2010-01-23T10:47:50Z</time>
      </trkpt>
      <trkpt lat="45.26442" lon="6.16131">
        <ele>2653.38</ele>
        <time>2010-01-23T10:47:53Z</time>
      </trkpt>
      <trkpt lat="45.26442" lon="6.16131">
        <ele>2652.9</ele>
        <time>2010-01-23T10:47:54Z</time>
      </trkpt>
      <trkpt lat="45.26445" lon="6.16132">
        <ele>2650.97</ele>
        <time>2010-01-23T10:47:56Z</time>
      </trkpt>
      <trkpt lat="45.2645" lon="6.16128">
        <ele>2645.69</ele>
        <time>2010-01-23T10:47:59Z</time>
      </trkpt>
      <trkpt lat="45.2645" lon="6.16127">
        <ele>2645.69</ele>
        <time>2010-01-23T10:48:00Z</time>
      </trkpt>
      <trkpt lat="45.2645" lon="6.16127">
        <ele>2644.72</ele>
        <time>2010-01-23T10:48:05Z</time>
      </trkpt>
      <trkpt lat="45.2646" lon="6.16128">
        <ele>2639.44</ele>
        <time>2010-01-23T10:48:10Z</time>
      </trkpt>
      <trkpt lat="45.26463" lon="6.16128">
        <ele>2637.99</ele>
        <time>2010-01-23T10:48:13Z</time>
      </trkpt>
      <trkpt lat="45.2647" lon="6.16127">
        <ele>2633.19</ele>
        <time>2010-01-23T10:48:22Z</time>
      </trkpt>
      <trkpt lat="45.26478" lon="6.16132">
        <ele>2629.82</ele>
        <time>2010-01-23T10:48:24Z</time>
      </trkpt>
      <trkpt lat="45.26479" lon="6.16135">
        <ele>2628.38</ele>
        <time>2010-01-23T10:48:26Z</time>
      </trkpt>
      <trkpt lat="45.26476" lon="6.1614">
        <ele>2627.42</ele>
        <time>2010-01-23T10:49:52Z</time>
      </trkpt>
      <trkpt lat="45.26476" lon="6.1614">
        <ele>2627.42</ele>
        <time>2010-01-23T10:50:02Z</time>
      </trkpt>
      <trkpt lat="45.26476" lon="6.16147">
        <ele>2623.09</ele>
        <time>2010-01-23T10:50:06Z</time>
      </trkpt>
      <trkpt lat="45.26482" lon="6.16152">
        <ele>2620.69</ele>
        <time>2010-01-23T10:50:09Z</time>
      </trkpt>
      <trkpt lat="45.26485" lon="6.16154">
        <ele>2618.29</ele>
        <time>2010-01-23T10:50:30Z</time>
      </trkpt>
      <trkpt lat="45.26485" lon="6.16154">
        <ele>2617.81</ele>
        <time>2010-01-23T10:50:45Z</time>
      </trkpt>
      <trkpt lat="45.26488" lon="6.16152">
        <ele>2614.44</ele>
        <time>2010-01-23T10:50:47Z</time>
      </trkpt>
      <trkpt lat="45.26488" lon="6.1615">
        <ele>2613</ele>
        <time>2010-01-23T10:50:48Z</time>
      </trkpt>
      <trkpt lat="45.26488" lon="6.16149">
        <ele>2613.48</ele>
        <time>2010-01-23T10:50:49Z</time>
      </trkpt>
      <trkpt lat="45.26492" lon="6.16148">
        <ele>2611.56</ele>
        <time>2010-01-23T10:50:51Z</time>
      </trkpt>
      <trkpt lat="45.26495" lon="6.16146">
        <ele>2607.71</ele>
        <time>2010-01-23T10:50:52Z</time>
      </trkpt>
      <trkpt lat="45.26498" lon="6.16145">
        <ele>2606.75</ele>
        <time>2010-01-23T10:50:53Z</time>
      </trkpt>
      <trkpt lat="45.26501" lon="6.16143">
        <ele>2605.79</ele>
        <time>2010-01-23T10:51:03Z</time>
      </trkpt>
      <trkpt lat="45.26501" lon="6.16143">
        <ele>2605.79</ele>
        <time>2010-01-23T10:51:08Z</time>
      </trkpt>
      <trkpt lat="45.26502" lon="6.16142">
        <ele>2600.98</ele>
        <time>2010-01-23T10:51:09Z</time>
      </trkpt>
      <trkpt lat="45.26503" lon="6.16134">
        <ele>2598.58</ele>
        <time>2010-01-23T10:51:12Z</time>
      </trkpt>
      <trkpt lat="45.26503" lon="6.16131">
        <ele>2599.06</ele>
        <time>2010-01-23T10:51:14Z</time>
      </trkpt>
      <trkpt lat="45.26507" lon="6.16129">
        <ele>2595.7</ele>
        <time>2010-01-23T10:51:17Z</time>
      </trkpt>
      <trkpt lat="45.26509" lon="6.16122">
        <ele>2590.41</ele>
        <time>2010-01-23T10:51:21Z</time>
      </trkpt>
      <trkpt lat="45.2651" lon="6.16121">
        <ele>2588.01</ele>
        <time>2010-01-23T10:51:22Z</time>
      </trkpt>
      <trkpt lat="45.26515" lon="6.16121">
        <ele>2585.6</ele>
        <time>2010-01-23T10:51:24Z</time>
      </trkpt>
      <trkpt lat="45.26517" lon="6.1612">
        <ele>2583.68</ele>
        <time>2010-01-23T10:51:25Z</time>
      </trkpt>
      <trkpt lat="45.26519" lon="6.16117">
        <ele>2580.32</ele>
        <time>2010-01-23T10:51:33Z</time>
      </trkpt>
      <trkpt lat="45.26524" lon="6.16116">
        <ele>2577.91</ele>
        <time>2010-01-23T10:51:35Z</time>
      </trkpt>
      <trkpt lat="45.26526" lon="6.16114">
        <ele>2575.51</ele>
        <time>2010-01-23T10:51:36Z</time>
      </trkpt>
      <trkpt lat="45.2653" lon="6.16111">
        <ele>2574.55</ele>
        <time>2010-01-23T10:51:37Z</time>
      </trkpt>
      <trkpt lat="45.26533" lon="6.16105">
        <ele>2569.74</ele>
        <time>2010-01-23T10:51:39Z</time>
      </trkpt>
      <trkpt lat="45.26535" lon="6.16102">
        <ele>2567.34</ele>
        <time>2010-01-23T10:51:44Z</time>
      </trkpt>
      <trkpt lat="45.26539" lon="6.161">
        <ele>2564.93</ele>
        <time>2010-01-23T10:51:46Z</time>
      </trkpt>
      <trkpt lat="45.26542" lon="6.161">
        <ele>2560.61</ele>
        <time>2010-01-23T10:51:47Z</time>
      </trkpt>
      <trkpt lat="45.26545" lon="6.161">
        <ele>2560.61</ele>
        <time>2010-01-23T10:51:48Z</time>
      </trkpt>
      <trkpt lat="45.26549" lon="6.16101">
        <ele>2558.69</ele>
        <time>2010-01-23T10:51:49Z</time>
      </trkpt>
      <trkpt lat="45.26552" lon="6.16099">
        <ele>2556.28</ele>
        <time>2010-01-23T10:51:50Z</time>
      </trkpt>
      <trkpt lat="45.26555" lon="6.16097">
        <ele>2553.88</ele>
        <time>2010-01-23T10:51:57Z</time>
      </trkpt>
      <trkpt lat="45.26563" lon="6.16102">
        <ele>2550.51</ele>
        <time>2010-01-23T10:52:00Z</time>
      </trkpt>
      <trkpt lat="45.2657" lon="6.16106">
        <ele>2548.11</ele>
        <time>2010-01-23T10:52:02Z</time>
      </trkpt>
      <trkpt lat="45.26572" lon="6.16106">
        <ele>2544.27</ele>
        <time>2010-01-23T10:52:03Z</time>
      </trkpt>
      <trkpt lat="45.26575" lon="6.16106">
        <ele>2544.27</ele>
        <time>2010-01-23T10:52:04Z</time>
      </trkpt>
      <trkpt lat="45.2658" lon="6.16106">
        <ele>2539.94</ele>
        <time>2010-01-23T10:52:14Z</time>
      </trkpt>
      <trkpt lat="45.26582" lon="6.16105">
        <ele>2538.5</ele>
        <time>2010-01-23T10:52:15Z</time>
      </trkpt>
      <trkpt lat="45.26584" lon="6.16098">
        <ele>2536.58</ele>
        <time>2010-01-23T10:52:17Z</time>
      </trkpt>
      <trkpt lat="45.26585" lon="6.16096">
        <ele>2535.13</ele>
        <time>2010-01-23T10:52:18Z</time>
      </trkpt>
      <trkpt lat="45.26585" lon="6.16095">
        <ele>2533.21</ele>
        <time>2010-01-23T10:52:19Z</time>
      </trkpt>
      <trkpt lat="45.26586" lon="6.16093">
        <ele>2531.29</ele>
        <time>2010-01-23T10:52:20Z</time>
      </trkpt>
      <trkpt lat="45.26588" lon="6.16088">
        <ele>2529.37</ele>
        <time>2010-01-23T10:52:21Z</time>
      </trkpt>
      <trkpt lat="45.2659" lon="6.16083">
        <ele>2526.48</ele>
        <time>2010-01-23T10:52:28Z</time>
      </trkpt>
      <trkpt lat="45.2659" lon="6.16084">
        <ele>2526.48</ele>
        <time>2010-01-23T10:52:29Z</time>
      </trkpt>
      <trkpt lat="45.26593" lon="6.16083">
        <ele>2523.12</ele>
        <time>2010-01-23T10:52:30Z</time>
      </trkpt>
      <trkpt lat="45.26598" lon="6.16079">
        <ele>2520.23</ele>
        <time>2010-01-23T10:52:32Z</time>
      </trkpt>
      <trkpt lat="45.26604" lon="6.1608">
        <ele>2517.83</ele>
        <time>2010-01-23T10:52:34Z</time>
      </trkpt>
      <trkpt lat="45.26607" lon="6.16083">
        <ele>2516.87</ele>
        <time>2010-01-23T10:52:35Z</time>
      </trkpt>
      <trkpt lat="45.26612" lon="6.1609">
        <ele>2513.5</ele>
        <time>2010-01-23T10:52:42Z</time>
      </trkpt>
      <trkpt lat="45.26611" lon="6.16092">
        <ele>2511.1</ele>
        <time>2010-01-23T10:52:57Z</time>
      </trkpt>
      <trkpt lat="45.26612" lon="6.16092">
        <ele>2509.66</ele>
        <time>2010-01-23T10:52:59Z</time>
      </trkpt>
      <trkpt lat="45.26614" lon="6.16088">
        <ele>2505.33</ele>
        <time>2010-01-23T10:53:01Z</time>
      </trkpt>
      <trkpt lat="45.26616" lon="6.16079">
        <ele>2501.01</ele>
        <time>2010-01-23T10:53:04Z</time>
      </trkpt>
      <trkpt lat="45.26621" lon="6.16075">
        <ele>2497.16</ele>
        <time>2010-01-23T10:53:06Z</time>
      </trkpt>
      <trkpt lat="45.26623" lon="6.16065">
        <ele>2491.87</ele>
        <time>2010-01-23T10:53:08Z</time>
      </trkpt>
      <trkpt lat="45.26622" lon="6.1606">
        <ele>2489.47</ele>
        <time>2010-01-23T10:53:09Z</time>
      </trkpt>
      <trkpt lat="45.2662" lon="6.16028">
        <ele>2480.82</ele>
        <time>2010-01-23T10:53:13Z</time>
      </trkpt>
      <trkpt lat="45.2662" lon="6.16014">
        <ele>2479.86</ele>
        <time>2010-01-23T10:53:15Z</time>
      </trkpt>
      <trkpt lat="45.26621" lon="6.16006">
        <ele>2479.38</ele>
        <time>2010-01-23T10:53:17Z</time>
      </trkpt>
      <trkpt lat="45.26623" lon="6.15997">
        <ele>2477.45</ele>
        <time>2010-01-23T10:53:20Z</time>
      </trkpt>
      <trkpt lat="45.26634" lon="6.15994">
        <ele>2471.69</ele>
        <time>2010-01-23T10:53:23Z</time>
      </trkpt>
      <trkpt lat="45.26638" lon="6.15994">
        <ele>2468.8</ele>
        <time>2010-01-23T10:53:24Z</time>
      </trkpt>
      <trkpt lat="45.26642" lon="6.15993">
        <ele>2464.96</ele>
        <time>2010-01-23T10:53:25Z</time>
      </trkpt>
      <trkpt lat="45.26651" lon="6.15993">
        <ele>2457.27</ele>
        <time>2010-01-23T10:53:28Z</time>
      </trkpt>
      <trkpt lat="45.26657" lon="6.15991">
        <ele>2453.42</ele>
        <time>2010-01-23T10:53:30Z</time>
      </trkpt>
      <trkpt lat="45.26659" lon="6.15991">
        <ele>2451.5</ele>
        <time>2010-01-23T10:53:31Z</time>
      </trkpt>
      <trkpt lat="45.26671" lon="6.1599">
        <ele>2441.89</ele>
        <time>2010-01-23T10:53:35Z</time>
      </trkpt>
      <trkpt lat="45.26673" lon="6.15992">
        <ele>2438.04</ele>
        <time>2010-01-23T10:53:37Z</time>
      </trkpt>
      <trkpt lat="45.26674" lon="6.15991">
        <ele>2433.23</ele>
        <time>2010-01-23T10:53:41Z</time>
      </trkpt>
      <trkpt lat="45.26678" lon="6.1599">
        <ele>2427.95</ele>
        <time>2010-01-23T10:53:43Z</time>
      </trkpt>
      <trkpt lat="45.26685" lon="6.1599">
        <ele>2423.14</ele>
        <time>2010-01-23T10:53:45Z</time>
      </trkpt>
      <trkpt lat="45.26689" lon="6.15991">
        <ele>2418.33</ele>
        <time>2010-01-23T10:53:47Z</time>
      </trkpt>
      <trkpt lat="45.26689" lon="6.1599">
        <ele>2418.33</ele>
        <time>2010-01-23T10:53:48Z</time>
      </trkpt>
      <trkpt lat="45.26689" lon="6.15989">
        <ele>2417.37</ele>
        <time>2010-01-23T10:53:50Z</time>
      </trkpt>
      <trkpt lat="45.26697" lon="6.15988">
        <ele>2412.57</ele>
        <time>2010-01-23T10:53:53Z</time>
      </trkpt>
      <trkpt lat="45.26701" lon="6.15987">
        <ele>2410.16</ele>
        <time>2010-01-23T10:53:54Z</time>
      </trkpt>
      <trkpt lat="45.26704" lon="6.15989">
        <ele>2403.43</ele>
        <time>2010-01-23T10:53:57Z</time>
      </trkpt>
      <trkpt lat="45.26706" lon="6.15993">
        <ele>2403.43</ele>
        <time>2010-01-23T10:53:58Z</time>
      </trkpt>
      <trkpt lat="45.2671" lon="6.15994">
        <ele>2402.47</ele>
        <time>2010-01-23T10:53:59Z</time>
      </trkpt>
      <trkpt lat="45.26724" lon="6.15992">
        <ele>2393.34</ele>
        <time>2010-01-23T10:54:02Z</time>
      </trkpt>
      <trkpt lat="45.26729" lon="6.15991">
        <ele>2389.01</ele>
        <time>2010-01-23T10:54:04Z</time>
      </trkpt>
      <trkpt lat="45.26729" lon="6.15995">
        <ele>2387.09</ele>
        <time>2010-01-23T10:54:06Z</time>
      </trkpt>
      <trkpt lat="45.26738" lon="6.16001">
        <ele>2381.32</ele>
        <time>2010-01-23T10:54:11Z</time>
      </trkpt>
      <trkpt lat="45.26744" lon="6.15996">
        <ele>2377.48</ele>
        <time>2010-01-23T10:54:13Z</time>
      </trkpt>
      <trkpt lat="45.26748" lon="6.16003">
        <ele>2373.15</ele>
        <time>2010-01-23T10:54:15Z</time>
      </trkpt>
      <trkpt lat="45.26756" lon="6.16015">
        <ele>2367.86</ele>
        <time>2010-01-23T10:54:18Z</time>
      </trkpt>
      <trkpt lat="45.26761" lon="6.16014">
        <ele>2363.54</ele>
        <time>2010-01-23T10:54:20Z</time>
      </trkpt>
      <trkpt lat="45.26766" lon="6.16017">
        <ele>2359.21</ele>
        <time>2010-01-23T10:54:23Z</time>
      </trkpt>
      <trkpt lat="45.26769" lon="6.16015">
        <ele>2355.85</ele>
        <time>2010-01-23T10:54:24Z</time>
      </trkpt>
      <trkpt lat="45.26774" lon="6.16014">
        <ele>2352</ele>
        <time>2010-01-23T10:54:26Z</time>
      </trkpt>
      <trkpt lat="45.2678" lon="6.16023">
        <ele>2347.68</ele>
        <time>2010-01-23T10:54:29Z</time>
      </trkpt>
      <trkpt lat="45.26789" lon="6.1603">
        <ele>2341.43</ele>
        <time>2010-01-23T10:54:32Z</time>
      </trkpt>
      <trkpt lat="45.26791" lon="6.16019">
        <ele>2338.06</ele>
        <time>2010-01-23T10:54:34Z</time>
      </trkpt>
      <trkpt lat="45.26795" lon="6.16006">
        <ele>2334.22</ele>
        <time>2010-01-23T10:54:37Z</time>
      </trkpt>
      <trkpt lat="45.26801" lon="6.16012">
        <ele>2330.85</ele>
        <time>2010-01-23T10:54:39Z</time>
      </trkpt>
      <trkpt lat="45.26805" lon="6.16024">
        <ele>2327.01</ele>
        <time>2010-01-23T10:54:41Z</time>
      </trkpt>
      <trkpt lat="45.2681" lon="6.1604">
        <ele>2323.64</ele>
        <time>2010-01-23T10:54:44Z</time>
      </trkpt>
      <trkpt lat="45.26812" lon="6.16044">
        <ele>2323.64</ele>
        <time>2010-01-23T10:54:45Z</time>
      </trkpt>
      <trkpt lat="45.26814" lon="6.16052">
        <ele>2321.72</ele>
        <time>2010-01-23T10:54:47Z</time>
      </trkpt>
      <trkpt lat="45.26829" lon="6.16081">
        <ele>2314.03</ele>
        <time>2010-01-23T10:54:52Z</time>
      </trkpt>
      <trkpt lat="45.26837" lon="6.16092">
        <ele>2310.19</ele>
        <time>2010-01-23T10:54:56Z</time>
      </trkpt>
      <trkpt lat="45.26837" lon="6.16094">
        <ele>2310.19</ele>
        <time>2010-01-23T10:54:57Z</time>
      </trkpt>
      <trkpt lat="45.2683" lon="6.16099">
        <ele>2310.19</ele>
        <time>2010-01-23T10:55:11Z</time>
      </trkpt>
      <trkpt lat="45.26826" lon="6.16099">
        <ele>2310.19</ele>
        <time>2010-01-23T10:55:22Z</time>
      </trkpt>
      <trkpt lat="45.26826" lon="6.161">
        <ele>2309.7</ele>
        <time>2010-01-23T10:55:25Z</time>
      </trkpt>
      <trkpt lat="45.2683" lon="6.16095">
        <ele>2305.38</ele>
        <time>2010-01-23T10:55:28Z</time>
      </trkpt>
      <trkpt lat="45.26832" lon="6.16083">
        <ele>2301.05</ele>
        <time>2010-01-23T10:55:30Z</time>
      </trkpt>
      <trkpt lat="45.26836" lon="6.16071">
        <ele>2296.25</ele>
        <time>2010-01-23T10:55:33Z</time>
      </trkpt>
      <trkpt lat="45.26844" lon="6.16068">
        <ele>2290.96</ele>
        <time>2010-01-23T10:55:35Z</time>
      </trkpt>
      <trkpt lat="45.26849" lon="6.16069">
        <ele>2287.59</ele>
        <time>2010-01-23T10:55:36Z</time>
      </trkpt>
      <trkpt lat="45.26856" lon="6.16073">
        <ele>2284.23</ele>
        <time>2010-01-23T10:55:38Z</time>
      </trkpt>
      <trkpt lat="45.26869" lon="6.16072">
        <ele>2275.1</ele>
        <time>2010-01-23T10:55:41Z</time>
      </trkpt>
      <trkpt lat="45.26873" lon="6.16062">
        <ele>2271.73</ele>
        <time>2010-01-23T10:55:44Z</time>
      </trkpt>
      <trkpt lat="45.26873" lon="6.1606">
        <ele>2271.25</ele>
        <time>2010-01-23T10:55:45Z</time>
      </trkpt>
      <trkpt lat="45.26873" lon="6.16056">
        <ele>2271.25</ele>
        <time>2010-01-23T10:55:48Z</time>
      </trkpt>
      <trkpt lat="45.26876" lon="6.16059">
        <ele>2266.45</ele>
        <time>2010-01-23T10:55:51Z</time>
      </trkpt>
      <trkpt lat="45.26885" lon="6.16061">
        <ele>2260.2</ele>
        <time>2010-01-23T10:55:54Z</time>
      </trkpt>
      <trkpt lat="45.26891" lon="6.1606">
        <ele>2257.31</ele>
        <time>2010-01-23T10:55:56Z</time>
      </trkpt>
      <trkpt lat="45.26887" lon="6.16053">
        <ele>2255.87</ele>
        <time>2010-01-23T10:56:04Z</time>
      </trkpt>
      <trkpt lat="45.26876" lon="6.1604">
        <ele>2255.87</ele>
        <time>2010-01-23T10:56:23Z</time>
      </trkpt>
      <trkpt lat="45.26875" lon="6.16039">
        <ele>2256.35</ele>
        <time>2010-01-23T10:56:38Z</time>
      </trkpt>
      <trkpt lat="45.26883" lon="6.16045">
        <ele>2251.06</ele>
        <time>2010-01-23T10:56:42Z</time>
      </trkpt>
      <trkpt lat="45.26884" lon="6.16047">
        <ele>2250.1</ele>
        <time>2010-01-23T10:56:45Z</time>
      </trkpt>
      <trkpt lat="45.26887" lon="6.16046">
        <ele>2248.18</ele>
        <time>2010-01-23T10:56:47Z</time>
      </trkpt>
      <trkpt lat="45.26891" lon="6.16044">
        <ele>2245.78</ele>
        <time>2010-01-23T10:56:49Z</time>
      </trkpt>
      <trkpt lat="45.26899" lon="6.16044">
        <ele>2241.93</ele>
        <time>2010-01-23T10:56:52Z</time>
      </trkpt>
      <trkpt lat="45.26901" lon="6.16042">
        <ele>2237.13</ele>
        <time>2010-01-23T10:56:55Z</time>
      </trkpt>
      <trkpt lat="45.269" lon="6.1604">
        <ele>2235.68</ele>
        <time>2010-01-23T10:56:57Z</time>
      </trkpt>
      <trkpt lat="45.26899" lon="6.16035">
        <ele>2235.2</ele>
        <time>2010-01-23T10:57:36Z</time>
      </trkpt>
      <trkpt lat="45.26904" lon="6.16038">
        <ele>2231.36</ele>
        <time>2010-01-23T10:57:39Z</time>
      </trkpt>
      <trkpt lat="45.26918" lon="6.16055">
        <ele>2224.63</ele>
        <time>2010-01-23T10:57:43Z</time>
      </trkpt>
      <trkpt lat="45.26924" lon="6.16062">
        <ele>2221.26</ele>
        <time>2010-01-23T10:57:45Z</time>
      </trkpt>
      <trkpt lat="45.26931" lon="6.16064">
        <ele>2215.98</ele>
        <time>2010-01-23T10:57:48Z</time>
      </trkpt>
      <trkpt lat="45.26935" lon="6.1607">
        <ele>2212.13</ele>
        <time>2010-01-23T10:57:50Z</time>
      </trkpt>
      <trkpt lat="45.26942" lon="6.16071">
        <ele>2206.36</ele>
        <time>2010-01-23T10:57:53Z</time>
      </trkpt>
      <trkpt lat="45.26947" lon="6.16075">
        <ele>2202.52</ele>
        <time>2010-01-23T10:57:55Z</time>
      </trkpt>
      <trkpt lat="45.26953" lon="6.16079">
        <ele>2197.71</ele>
        <time>2010-01-23T10:57:58Z</time>
      </trkpt>
      <trkpt lat="45.2696" lon="6.16085">
        <ele>2194.35</ele>
        <time>2010-01-23T10:58:01Z</time>
      </trkpt>
      <trkpt lat="45.26963" lon="6.16087">
        <ele>2188.58</ele>
        <time>2010-01-23T10:58:02Z</time>
      </trkpt>
      <trkpt lat="45.26966" lon="6.16088">
        <ele>2188.58</ele>
        <time>2010-01-23T10:58:03Z</time>
      </trkpt>
      <trkpt lat="45.26973" lon="6.16087">
        <ele>2185.69</ele>
        <time>2010-01-23T10:58:05Z</time>
      </trkpt>
      <trkpt lat="45.26982" lon="6.16082">
        <ele>2178.97</ele>
        <time>2010-01-23T10:58:08Z</time>
      </trkpt>
      <trkpt lat="45.26987" lon="6.16073">
        <ele>2176.56</ele>
        <time>2010-01-23T10:58:20Z</time>
      </trkpt>
      <trkpt lat="45.26988" lon="6.16071">
        <ele>2176.56</ele>
        <time>2010-01-23T10:58:24Z</time>
      </trkpt>
      <trkpt lat="45.26993" lon="6.16064">
        <ele>2172.72</ele>
        <time>2010-01-23T10:58:28Z</time>
      </trkpt>
      <trkpt lat="45.27001" lon="6.16061">
        <ele>2167.43</ele>
        <time>2010-01-23T10:58:30Z</time>
      </trkpt>
      <trkpt lat="45.27005" lon="6.16058">
        <ele>2165.51</ele>
        <time>2010-01-23T10:58:31Z</time>
      </trkpt>
      <trkpt lat="45.27011" lon="6.16047">
        <ele>2164.55</ele>
        <time>2010-01-23T10:58:33Z</time>
      </trkpt>
      <trkpt lat="45.27012" lon="6.16043">
        <ele>2165.03</ele>
        <time>2010-01-23T10:58:44Z</time>
      </trkpt>
      <trkpt lat="45.27012" lon="6.16043">
        <ele>2165.03</ele>
        <time>2010-01-23T10:58:45Z</time>
      </trkpt>
      <trkpt lat="45.27015" lon="6.16039">
        <ele>2160.7</ele>
        <time>2010-01-23T10:58:48Z</time>
      </trkpt>
      <trkpt lat="45.2702" lon="6.16046">
        <ele>2157.34</ele>
        <time>2010-01-23T10:58:51Z</time>
      </trkpt>
      <trkpt lat="45.27025" lon="6.16047">
        <ele>2153.01</ele>
        <time>2010-01-23T10:58:53Z</time>
      </trkpt>
      <trkpt lat="45.2703" lon="6.16049">
        <ele>2148.68</ele>
        <time>2010-01-23T10:58:55Z</time>
      </trkpt>
      <trkpt lat="45.2704" lon="6.16051">
        <ele>2143.4</ele>
        <time>2010-01-23T10:58:58Z</time>
      </trkpt>
      <trkpt lat="45.27045" lon="6.1605">
        <ele>2138.11</ele>
        <time>2010-01-23T10:59:00Z</time>
      </trkpt>
      <trkpt lat="45.27049" lon="6.16054">
        <ele>2134.26</ele>
        <time>2010-01-23T10:59:02Z</time>
      </trkpt>
      <trkpt lat="45.27054" lon="6.16053">
        <ele>2130.42</ele>
        <time>2010-01-23T10:59:04Z</time>
      </trkpt>
      <trkpt lat="45.27057" lon="6.16062">
        <ele>2126.57</ele>
        <time>2010-01-23T10:59:06Z</time>
      </trkpt>
      <trkpt lat="45.27064" lon="6.16063">
        <ele>2121.77</ele>
        <time>2010-01-23T10:59:08Z</time>
      </trkpt>
      <trkpt lat="45.2707" lon="6.16059">
        <ele>2120.81</ele>
        <time>2010-01-23T10:59:10Z</time>
      </trkpt>
      <trkpt lat="45.27072" lon="6.16064">
        <ele>2116.96</ele>
        <time>2010-01-23T10:59:12Z</time>
      </trkpt>
      <trkpt lat="45.27075" lon="6.1607">
        <ele>2113.12</ele>
        <time>2010-01-23T10:59:14Z</time>
      </trkpt>
      <trkpt lat="45.27081" lon="6.16067">
        <ele>2109.27</ele>
        <time>2010-01-23T10:59:17Z</time>
      </trkpt>
      <trkpt lat="45.27086" lon="6.16071">
        <ele>2105.42</ele>
        <time>2010-01-23T10:59:19Z</time>
      </trkpt>
      <trkpt lat="45.27091" lon="6.16078">
        <ele>2102.06</ele>
        <time>2010-01-23T10:59:21Z</time>
      </trkpt>
      <trkpt lat="45.27091" lon="6.16086">
        <ele>2098.7</ele>
        <time>2010-01-23T10:59:23Z</time>
      </trkpt>
      <trkpt lat="45.27093" lon="6.1609">
        <ele>2094.37</ele>
        <time>2010-01-23T10:59:25Z</time>
      </trkpt>
      <trkpt lat="45.27097" lon="6.16088">
        <ele>2091.49</ele>
        <time>2010-01-23T10:59:26Z</time>
      </trkpt>
      <trkpt lat="45.27104" lon="6.16088">
        <ele>2089.56</ele>
        <time>2010-01-23T10:59:29Z</time>
      </trkpt>
      <trkpt lat="45.27104" lon="6.16087">
        <ele>2089.56</ele>
        <time>2010-01-23T10:59:40Z</time>
      </trkpt>
      <trkpt lat="45.27111" lon="6.16095">
        <ele>2083.79</ele>
        <time>2010-01-23T10:59:43Z</time>
      </trkpt>
      <trkpt lat="45.2712" lon="6.16099">
        <ele>2078.51</ele>
        <time>2010-01-23T10:59:45Z</time>
      </trkpt>
      <trkpt lat="45.27127" lon="6.16109">
        <ele>2073.7</ele>
        <time>2010-01-23T10:59:47Z</time>
      </trkpt>
      <trkpt lat="45.27133" lon="6.16115">
        <ele>2070.34</ele>
        <time>2010-01-23T10:59:49Z</time>
      </trkpt>
      <trkpt lat="45.27136" lon="6.16114">
        <ele>2068.89</ele>
        <time>2010-01-23T10:59:50Z</time>
      </trkpt>
      <trkpt lat="45.27147" lon="6.16109">
        <ele>2062.17</ele>
        <time>2010-01-23T10:59:53Z</time>
      </trkpt>
      <trkpt lat="45.2715" lon="6.16114">
        <ele>2058.8</ele>
        <time>2010-01-23T10:59:54Z</time>
      </trkpt>
      <trkpt lat="45.27159" lon="6.16123">
        <ele>2054.47</ele>
        <time>2010-01-23T10:59:56Z</time>
      </trkpt>
      <trkpt lat="45.27163" lon="6.16123">
        <ele>2051.59</ele>
        <time>2010-01-23T10:59:57Z</time>
      </trkpt>
      <trkpt lat="45.27165" lon="6.16121">
        <ele>2047.75</ele>
        <time>2010-01-23T10:59:58Z</time>
      </trkpt>
      <trkpt lat="45.27172" lon="6.16108">
        <ele>2041.98</ele>
        <time>2010-01-23T11:00:01Z</time>
      </trkpt>
      <trkpt lat="45.2718" lon="6.16112">
        <ele>2037.17</ele>
        <time>2010-01-23T11:00:03Z</time>
      </trkpt>
      <trkpt lat="45.27186" lon="6.16116">
        <ele>2035.73</ele>
        <time>2010-01-23T11:00:05Z</time>
      </trkpt>
      <trkpt lat="45.27191" lon="6.16121">
        <ele>2030.44</ele>
        <time>2010-01-23T11:00:07Z</time>
      </trkpt>
      <trkpt lat="45.27191" lon="6.16118">
        <ele>2027.56</ele>
        <time>2010-01-23T11:00:09Z</time>
      </trkpt>
      <trkpt lat="45.27193" lon="6.16115">
        <ele>2024.19</ele>
        <time>2010-01-23T11:00:12Z</time>
      </trkpt>
      <trkpt lat="45.27203" lon="6.16108">
        <ele>2022.75</ele>
        <time>2010-01-23T11:00:24Z</time>
      </trkpt>
      <trkpt lat="45.272" lon="6.16101">
        <ele>2021.79</ele>
        <time>2010-01-23T11:00:28Z</time>
      </trkpt>
      <trkpt lat="45.27204" lon="6.16096">
        <ele>2015.54</ele>
        <time>2010-01-23T11:00:31Z</time>
      </trkpt>
      <trkpt lat="45.27217" lon="6.16085">
        <ele>2011.22</ele>
        <time>2010-01-23T11:00:35Z</time>
      </trkpt>
      <trkpt lat="45.27221" lon="6.16082">
        <ele>2010.73</ele>
        <time>2010-01-23T11:00:36Z</time>
      </trkpt>
      <trkpt lat="45.27233" lon="6.1607">
        <ele>2003.52</ele>
        <time>2010-01-23T11:00:40Z</time>
      </trkpt>
      <trkpt lat="45.27238" lon="6.16064">
        <ele>1998.72</ele>
        <time>2010-01-23T11:00:42Z</time>
      </trkpt>
      <trkpt lat="45.27245" lon="6.16062">
        <ele>1995.35</ele>
        <time>2010-01-23T11:00:44Z</time>
      </trkpt>
      <trkpt lat="45.27255" lon="6.1606">
        <ele>1989.59</ele>
        <time>2010-01-23T11:00:46Z</time>
      </trkpt>
      <trkpt lat="45.27261" lon="6.16059">
        <ele>1986.22</ele>
        <time>2010-01-23T11:00:47Z</time>
      </trkpt>
      <trkpt lat="45.27266" lon="6.16058">
        <ele>1983.34</ele>
        <time>2010-01-23T11:00:48Z</time>
      </trkpt>
      <trkpt lat="45.27276" lon="6.16055">
        <ele>1979.97</ele>
        <time>2010-01-23T11:00:50Z</time>
      </trkpt>
      <trkpt lat="45.27296" lon="6.16053">
        <ele>1968.92</ele>
        <time>2010-01-23T11:00:54Z</time>
      </trkpt>
      <trkpt lat="45.27308" lon="6.16054">
        <ele>1966.51</ele>
        <time>2010-01-23T11:00:56Z</time>
      </trkpt>
      <trkpt lat="45.27319" lon="6.16058">
        <ele>1964.59</ele>
        <time>2010-01-23T11:00:58Z</time>
      </trkpt>
      <trkpt lat="45.27337" lon="6.16063">
        <ele>1959.3</ele>
        <time>2010-01-23T11:01:02Z</time>
      </trkpt>
      <trkpt lat="45.27352" lon="6.16066">
        <ele>1952.09</ele>
        <time>2010-01-23T11:01:05Z</time>
      </trkpt>
      <trkpt lat="45.27364" lon="6.16069">
        <ele>1947.29</ele>
        <time>2010-01-23T11:01:08Z</time>
      </trkpt>
      <trkpt lat="45.27372" lon="6.16077">
        <ele>1943.92</ele>
        <time>2010-01-23T11:01:10Z</time>
      </trkpt>
      <trkpt lat="45.27377" lon="6.16079">
        <ele>1938.64</ele>
        <time>2010-01-23T11:01:13Z</time>
      </trkpt>
      <trkpt lat="45.27374" lon="6.16075">
        <ele>1934.31</ele>
        <time>2010-01-23T11:01:15Z</time>
      </trkpt>
      <trkpt lat="45.27376" lon="6.16072">
        <ele>1930.95</ele>
        <time>2010-01-23T11:01:18Z</time>
      </trkpt>
      <trkpt lat="45.27396" lon="6.16077">
        <ele>1926.62</ele>
        <time>2010-01-23T11:01:21Z</time>
      </trkpt>
      <trkpt lat="45.27412" lon="6.16083">
        <ele>1923.74</ele>
        <time>2010-01-23T11:01:23Z</time>
      </trkpt>
      <trkpt lat="45.27429" lon="6.16094">
        <ele>1920.37</ele>
        <time>2010-01-23T11:01:26Z</time>
      </trkpt>
      <trkpt lat="45.27445" lon="6.16109">
        <ele>1917.49</ele>
        <time>2010-01-23T11:01:31Z</time>
      </trkpt>
      <trkpt lat="45.27451" lon="6.16119">
        <ele>1914.12</ele>
        <time>2010-01-23T11:01:33Z</time>
      </trkpt>
      <trkpt lat="45.27453" lon="6.16126">
        <ele>1914.12</ele>
        <time>2010-01-23T11:01:42Z</time>
      </trkpt>
      <trkpt lat="45.27454" lon="6.16125">
        <ele>1913.16</ele>
        <time>2010-01-23T11:01:54Z</time>
      </trkpt>
      <trkpt lat="45.27464" lon="6.16124">
        <ele>1909.32</ele>
        <time>2010-01-23T11:01:58Z</time>
      </trkpt>
      <trkpt lat="45.27475" lon="6.16129">
        <ele>1905.95</ele>
        <time>2010-01-23T11:02:01Z</time>
      </trkpt>
      <trkpt lat="45.27483" lon="6.1612">
        <ele>1902.59</ele>
        <time>2010-01-23T11:02:04Z</time>
      </trkpt>
      <trkpt lat="45.27492" lon="6.16113">
        <ele>1896.82</ele>
        <time>2010-01-23T11:02:07Z</time>
      </trkpt>
      <trkpt lat="45.27495" lon="6.16114">
        <ele>1893.93</ele>
        <time>2010-01-23T11:02:08Z</time>
      </trkpt>
      <trkpt lat="45.275" lon="6.16116">
        <ele>1890.57</ele>
        <time>2010-01-23T11:02:09Z</time>
      </trkpt>
      <trkpt lat="45.27512" lon="6.16123">
        <ele>1886.72</ele>
        <time>2010-01-23T11:02:11Z</time>
      </trkpt>
      <trkpt lat="45.27524" lon="6.16127">
        <ele>1881.92</ele>
        <time>2010-01-23T11:02:13Z</time>
      </trkpt>
      <trkpt lat="45.2753" lon="6.16127">
        <ele>1879.03</ele>
        <time>2010-01-23T11:02:14Z</time>
      </trkpt>
      <trkpt lat="45.27563" lon="6.16132">
        <ele>1870.38</ele>
        <time>2010-01-23T11:02:19Z</time>
      </trkpt>
      <trkpt lat="45.276" lon="6.16145">
        <ele>1866.06</ele>
        <time>2010-01-23T11:02:24Z</time>
      </trkpt>
      <trkpt lat="45.27617" lon="6.16149">
        <ele>1861.73</ele>
        <time>2010-01-23T11:02:26Z</time>
      </trkpt>
      <trkpt lat="45.27654" lon="6.16153">
        <ele>1859.33</ele>
        <time>2010-01-23T11:02:31Z</time>
      </trkpt>
      <trkpt lat="45.27676" lon="6.16156">
        <ele>1856.92</ele>
        <time>2010-01-23T11:02:34Z</time>
      </trkpt>
      <trkpt lat="45.27693" lon="6.1615">
        <ele>1852.12</ele>
        <time>2010-01-23T11:02:38Z</time>
      </trkpt>
      <trkpt lat="45.27711" lon="6.16142">
        <ele>1847.79</ele>
        <time>2010-01-23T11:02:41Z</time>
      </trkpt>
      <trkpt lat="45.27713" lon="6.16141">
        <ele>1847.79</ele>
        <time>2010-01-23T11:02:42Z</time>
      </trkpt>
      <trkpt lat="45.27726" lon="6.16144">
        <ele>1841.54</ele>
        <time>2010-01-23T11:02:45Z</time>
      </trkpt>
      <trkpt lat="45.27735" lon="6.16153">
        <ele>1835.77</ele>
        <time>2010-01-23T11:02:48Z</time>
      </trkpt>
      <trkpt lat="45.27741" lon="6.16158">
        <ele>1830.01</ele>
        <time>2010-01-23T11:02:50Z</time>
      </trkpt>
      <trkpt lat="45.27745" lon="6.16161">
        <ele>1827.12</ele>
        <time>2010-01-23T11:02:51Z</time>
      </trkpt>
      <trkpt lat="45.27756" lon="6.16174">
        <ele>1820.39</ele>
        <time>2010-01-23T11:02:54Z</time>
      </trkpt>
      <trkpt lat="45.27762" lon="6.16175">
        <ele>1818.47</ele>
        <time>2010-01-23T11:02:55Z</time>
      </trkpt>
      <trkpt lat="45.27779" lon="6.16187">
        <ele>1812.7</ele>
        <time>2010-01-23T11:02:58Z</time>
      </trkpt>
      <trkpt lat="45.27787" lon="6.16196">
        <ele>1807.42</ele>
        <time>2010-01-23T11:03:02Z</time>
      </trkpt>
      <trkpt lat="45.27797" lon="6.162">
        <ele>1804.05</ele>
        <time>2010-01-23T11:03:04Z</time>
      </trkpt>
      <trkpt lat="45.27813" lon="6.162">
        <ele>1801.17</ele>
        <time>2010-01-23T11:03:07Z</time>
      </trkpt>
      <trkpt lat="45.27822" lon="6.16211">
        <ele>1796.84</ele>
        <time>2010-01-23T11:03:10Z</time>
      </trkpt>
      <trkpt lat="45.27825" lon="6.16213">
        <ele>1794.92</ele>
        <time>2010-01-23T11:03:11Z</time>
      </trkpt>
      <trkpt lat="45.27835" lon="6.16228">
        <ele>1787.71</ele>
        <time>2010-01-23T11:03:14Z</time>
      </trkpt>
      <trkpt lat="45.27838" lon="6.16238">
        <ele>1783.38</ele>
        <time>2010-01-23T11:03:15Z</time>
      </trkpt>
      <trkpt lat="45.2785" lon="6.16255">
        <ele>1777.13</ele>
        <time>2010-01-23T11:03:17Z</time>
      </trkpt>
      <trkpt lat="45.27857" lon="6.16265">
        <ele>1773.77</ele>
        <time>2010-01-23T11:03:18Z</time>
      </trkpt>
      <trkpt lat="45.27868" lon="6.16278">
        <ele>1770.41</ele>
        <time>2010-01-23T11:03:20Z</time>
      </trkpt>
      <trkpt lat="45.27878" lon="6.16286">
        <ele>1768.96</ele>
        <time>2010-01-23T11:03:22Z</time>
      </trkpt>
      <trkpt lat="45.27882" lon="6.1629">
        <ele>1768.96</ele>
        <time>2010-01-23T11:03:23Z</time>
      </trkpt>
      <trkpt lat="45.27907" lon="6.1632">
        <ele>1765.6</ele>
        <time>2010-01-23T11:03:30Z</time>
      </trkpt>
      <trkpt lat="45.2792" lon="6.16333">
        <ele>1764.16</ele>
        <time>2010-01-23T11:03:35Z</time>
      </trkpt>
      <trkpt lat="45.27924" lon="6.16337">
        <ele>1763.68</ele>
        <time>2010-01-23T11:03:46Z</time>
      </trkpt>
      <trkpt lat="45.27925" lon="6.16338">
        <ele>1764.64</ele>
        <time>2010-01-23T11:05:15Z</time>
      </trkpt>
      <trkpt lat="45.27925" lon="6.16338">
        <ele>1763.68</ele>
        <time>2010-01-23T11:05:36Z</time>
      </trkpt>
      <trkpt lat="45.27925" lon="6.1634">
        <ele>1762.71</ele>
        <time>2010-01-23T11:05:38Z</time>
      </trkpt>
      <trkpt lat="45.27925" lon="6.1634">
        <ele>1764.64</ele>
        <time>2010-01-23T11:05:41Z</time>
      </trkpt>
      <trkpt lat="45.27925" lon="6.1634">
        <ele>1761.27</ele>
        <time>2010-01-23T11:05:54Z</time>
      </trkpt>
      <trkpt lat="45.27925" lon="6.1634">
        <ele>1764.64</ele>
        <time>2010-01-23T11:05:55Z</time>
      </trkpt>
      <trkpt lat="45.27925" lon="6.1634">
        <ele>1762.71</ele>
        <time>2010-01-23T11:06:14Z</time>
      </trkpt>
      <trkpt lat="45.27925" lon="6.1634">
        <ele>1765.6</ele>
        <time>2010-01-23T11:06:17Z</time>
      </trkpt>
      <trkpt lat="45.27928" lon="6.16342">
        <ele>1758.39</ele>
        <time>2010-01-23T11:08:51Z</time>
      </trkpt>
      <trkpt lat="45.27928" lon="6.16342">
        <ele>1765.12</ele>
        <time>2010-01-23T11:08:52Z</time>
      </trkpt>
      <trkpt lat="45.27929" lon="6.16344">
        <ele>1764.64</ele>
        <time>2010-01-23T11:11:06Z</time>
      </trkpt>
      <trkpt lat="45.27934" lon="6.16347">
        <ele>1765.6</ele>
        <time>2010-01-23T11:14:07Z</time>
      </trkpt>
      <trkpt lat="45.27936" lon="6.16353">
        <ele>1766.08</ele>
        <time>2010-01-23T11:14:35Z</time>
      </trkpt>
      <trkpt lat="45.27941" lon="6.16364">
        <ele>1767.04</ele>
        <time>2010-01-23T11:14:51Z</time>
      </trkpt>
      <trkpt lat="45.27949" lon="6.16361">
        <ele>1768.96</ele>
        <time>2010-01-23T11:15:00Z</time>
      </trkpt>
      <trkpt lat="45.27958" lon="6.16361">
        <ele>1770.41</ele>
        <time>2010-01-23T11:15:11Z</time>
      </trkpt>
      <trkpt lat="45.27968" lon="6.16355">
        <ele>1773.29</ele>
        <time>2010-01-23T11:15:30Z</time>
      </trkpt>
      <trkpt lat="45.27974" lon="6.16356">
        <ele>1774.25</ele>
        <time>2010-01-23T11:15:41Z</time>
      </trkpt>
      <trkpt lat="45.27984" lon="6.16362">
        <ele>1775.69</ele>
        <time>2010-01-23T11:15:55Z</time>
      </trkpt>
      <trkpt lat="45.27992" lon="6.16365">
        <ele>1777.13</ele>
        <time>2010-01-23T11:16:06Z</time>
      </trkpt>
      <trkpt lat="45.27998" lon="6.16374">
        <ele>1776.17</ele>
        <time>2010-01-23T11:16:17Z</time>
      </trkpt>
      <trkpt lat="45.28006" lon="6.16378">
        <ele>1776.65</ele>
        <time>2010-01-23T11:16:30Z</time>
      </trkpt>
      <trkpt lat="45.28012" lon="6.1637">
        <ele>1778.1</ele>
        <time>2010-01-23T11:16:39Z</time>
      </trkpt>
      <trkpt lat="45.28015" lon="6.1636">
        <ele>1780.02</ele>
        <time>2010-01-23T11:16:48Z</time>
      </trkpt>
      <trkpt lat="45.28014" lon="6.16348">
        <ele>1782.42</ele>
        <time>2010-01-23T11:16:59Z</time>
      </trkpt>
      <trkpt lat="45.28012" lon="6.16337">
        <ele>1784.34</ele>
        <time>2010-01-23T11:17:10Z</time>
      </trkpt>
      <trkpt lat="45.28013" lon="6.16326">
        <ele>1785.79</ele>
        <time>2010-01-23T11:17:20Z</time>
      </trkpt>
      <trkpt lat="45.28014" lon="6.16324">
        <ele>1786.75</ele>
        <time>2010-01-23T11:17:24Z</time>
      </trkpt>
      <trkpt lat="45.28018" lon="6.1631">
        <ele>1788.19</ele>
        <time>2010-01-23T11:17:35Z</time>
      </trkpt>
      <trkpt lat="45.28021" lon="6.16302">
        <ele>1790.11</ele>
        <time>2010-01-23T11:17:45Z</time>
      </trkpt>
      <trkpt lat="45.28025" lon="6.16298">
        <ele>1792.03</ele>
        <time>2010-01-23T11:17:56Z</time>
      </trkpt>
      <trkpt lat="45.28031" lon="6.16299">
        <ele>1793.96</ele>
        <time>2010-01-23T11:18:09Z</time>
      </trkpt>
      <trkpt lat="45.28041" lon="6.16305">
        <ele>1796.36</ele>
        <time>2010-01-23T11:18:21Z</time>
      </trkpt>
      <trkpt lat="45.28048" lon="6.1631">
        <ele>1796.84</ele>
        <time>2010-01-23T11:18:31Z</time>
      </trkpt>
      <trkpt lat="45.28062" lon="6.16319">
        <ele>1797.32</ele>
        <time>2010-01-23T11:18:45Z</time>
      </trkpt>
      <trkpt lat="45.28069" lon="6.16324">
        <ele>1798.28</ele>
        <time>2010-01-23T11:18:54Z</time>
      </trkpt>
      <trkpt lat="45.28077" lon="6.16329">
        <ele>1799.24</ele>
        <time>2010-01-23T11:19:02Z</time>
      </trkpt>
      <trkpt lat="45.28081" lon="6.16332">
        <ele>1798.76</ele>
        <time>2010-01-23T11:19:06Z</time>
      </trkpt>
      <trkpt lat="45.2809" lon="6.16341">
        <ele>1800.69</ele>
        <time>2010-01-23T11:19:20Z</time>
      </trkpt>
      <trkpt lat="45.28091" lon="6.16342">
        <ele>1800.69</ele>
        <time>2010-01-23T11:19:21Z</time>
      </trkpt>
      <trkpt lat="45.28096" lon="6.1635">
        <ele>1800.21</ele>
        <time>2010-01-23T11:19:27Z</time>
      </trkpt>
      <trkpt lat="45.28109" lon="6.16367">
        <ele>1799.73</ele>
        <time>2010-01-23T11:19:41Z</time>
      </trkpt>
      <trkpt lat="45.28115" lon="6.16388">
        <ele>1797.8</ele>
        <time>2010-01-23T11:19:55Z</time>
      </trkpt>
      <trkpt lat="45.28116" lon="6.16395">
        <ele>1797.32</ele>
        <time>2010-01-23T11:19:59Z</time>
      </trkpt>
      <trkpt lat="45.28118" lon="6.16402">
        <ele>1797.32</ele>
        <time>2010-01-23T11:20:05Z</time>
      </trkpt>
      <trkpt lat="45.28121" lon="6.16406">
        <ele>1797.32</ele>
        <time>2010-01-23T11:20:09Z</time>
      </trkpt>
      <trkpt lat="45.28125" lon="6.16419">
        <ele>1799.73</ele>
        <time>2010-01-23T11:20:23Z</time>
      </trkpt>
      <trkpt lat="45.2813" lon="6.1643">
        <ele>1801.65</ele>
        <time>2010-01-23T11:20:36Z</time>
      </trkpt>
      <trkpt lat="45.28135" lon="6.16439">
        <ele>1804.05</ele>
        <time>2010-01-23T11:20:49Z</time>
      </trkpt>
      <trkpt lat="45.28139" lon="6.1645">
        <ele>1805.97</ele>
        <time>2010-01-23T11:21:01Z</time>
      </trkpt>
      <trkpt lat="45.28144" lon="6.16457">
        <ele>1808.86</ele>
        <time>2010-01-23T11:21:15Z</time>
      </trkpt>
      <trkpt lat="45.28148" lon="6.16461">
        <ele>1810.78</ele>
        <time>2010-01-23T11:21:27Z</time>
      </trkpt>
      <trkpt lat="45.28148" lon="6.16461">
        <ele>1810.78</ele>
        <time>2010-01-23T11:22:16Z</time>
      </trkpt>
      <trkpt lat="45.28149" lon="6.16461">
        <ele>1810.78</ele>
        <time>2010-01-23T11:23:31Z</time>
      </trkpt>
      <trkpt lat="45.28152" lon="6.16467">
        <ele>1812.22</ele>
        <time>2010-01-23T11:24:29Z</time>
      </trkpt>
      <trkpt lat="45.28156" lon="6.16474">
        <ele>1813.66</ele>
        <time>2010-01-23T11:24:40Z</time>
      </trkpt>
      <trkpt lat="45.2816" lon="6.16479">
        <ele>1815.59</ele>
        <time>2010-01-23T11:24:53Z</time>
      </trkpt>
      <trkpt lat="45.28165" lon="6.16485">
        <ele>1817.51</ele>
        <time>2010-01-23T11:25:07Z</time>
      </trkpt>
      <trkpt lat="45.28171" lon="6.1649">
        <ele>1818.95</ele>
        <time>2010-01-23T11:25:19Z</time>
      </trkpt>
      <trkpt lat="45.28177" lon="6.16494">
        <ele>1820.87</ele>
        <time>2010-01-23T11:25:30Z</time>
      </trkpt>
      <trkpt lat="45.28181" lon="6.16499">
        <ele>1822.8</ele>
        <time>2010-01-23T11:25:42Z</time>
      </trkpt>
      <trkpt lat="45.28186" lon="6.16504">
        <ele>1824.24</ele>
        <time>2010-01-23T11:25:52Z</time>
      </trkpt>
      <trkpt lat="45.28192" lon="6.1651">
        <ele>1826.16</ele>
        <time>2010-01-23T11:26:05Z</time>
      </trkpt>
      <trkpt lat="45.28195" lon="6.16519">
        <ele>1829.05</ele>
        <time>2010-01-23T11:26:18Z</time>
      </trkpt>
      <trkpt lat="45.28198" lon="6.16528">
        <ele>1831.93</ele>
        <time>2010-01-23T11:26:33Z</time>
      </trkpt>
      <trkpt lat="45.282" lon="6.16533">
        <ele>1833.37</ele>
        <time>2010-01-23T11:26:47Z</time>
      </trkpt>
      <trkpt lat="45.28204" lon="6.16542">
        <ele>1835.29</ele>
        <time>2010-01-23T11:26:57Z</time>
      </trkpt>
      <trkpt lat="45.28207" lon="6.16549">
        <ele>1837.22</ele>
        <time>2010-01-23T11:27:08Z</time>
      </trkpt>
      <trkpt lat="45.28209" lon="6.16555">
        <ele>1839.62</ele>
        <time>2010-01-23T11:27:21Z</time>
      </trkpt>
      <trkpt lat="45.28211" lon="6.16566">
        <ele>1841.54</ele>
        <time>2010-01-23T11:27:30Z</time>
      </trkpt>
      <trkpt lat="45.28214" lon="6.16574">
        <ele>1843.95</ele>
        <time>2010-01-23T11:27:44Z</time>
      </trkpt>
      <trkpt lat="45.28217" lon="6.1658">
        <ele>1846.35</ele>
        <time>2010-01-23T11:28:07Z</time>
      </trkpt>
      <trkpt lat="45.28222" lon="6.16594">
        <ele>1849.23</ele>
        <time>2010-01-23T11:28:23Z</time>
      </trkpt>
      <trkpt lat="45.28225" lon="6.166">
        <ele>1851.16</ele>
        <time>2010-01-23T11:28:36Z</time>
      </trkpt>
      <trkpt lat="45.28228" lon="6.16609">
        <ele>1854.04</ele>
        <time>2010-01-23T11:28:50Z</time>
      </trkpt>
      <trkpt lat="45.2823" lon="6.16616">
        <ele>1855.96</ele>
        <time>2010-01-23T11:28:59Z</time>
      </trkpt>
      <trkpt lat="45.28233" lon="6.16625">
        <ele>1857.89</ele>
        <time>2010-01-23T11:29:11Z</time>
      </trkpt>
      <trkpt lat="45.28236" lon="6.16633">
        <ele>1860.29</ele>
        <time>2010-01-23T11:29:23Z</time>
      </trkpt>
      <trkpt lat="45.2824" lon="6.16642">
        <ele>1862.69</ele>
        <time>2010-01-23T11:29:56Z</time>
      </trkpt>
      <trkpt lat="45.28246" lon="6.16651">
        <ele>1865.58</ele>
        <time>2010-01-23T11:30:12Z</time>
      </trkpt>
      <trkpt lat="45.28248" lon="6.16654">
        <ele>1867.98</ele>
        <time>2010-01-23T11:30:22Z</time>
      </trkpt>
      <trkpt lat="45.28253" lon="6.1666">
        <ele>1870.38</ele>
        <time>2010-01-23T11:30:37Z</time>
      </trkpt>
      <trkpt lat="45.2826" lon="6.16666">
        <ele>1872.3</ele>
        <time>2010-01-23T11:32:15Z</time>
      </trkpt>
      <trkpt lat="45.28267" lon="6.16669">
        <ele>1873.75</ele>
        <time>2010-01-23T11:32:25Z</time>
      </trkpt>
      <trkpt lat="45.28273" lon="6.16673">
        <ele>1875.67</ele>
        <time>2010-01-23T11:32:36Z</time>
      </trkpt>
      <trkpt lat="45.28276" lon="6.16678">
        <ele>1877.59</ele>
        <time>2010-01-23T11:32:50Z</time>
      </trkpt>
      <trkpt lat="45.2828" lon="6.16686">
        <ele>1880.48</ele>
        <time>2010-01-23T11:33:11Z</time>
      </trkpt>
      <trkpt lat="45.28283" lon="6.16691">
        <ele>1882.4</ele>
        <time>2010-01-23T11:33:22Z</time>
      </trkpt>
      <trkpt lat="45.28287" lon="6.16684">
        <ele>1884.32</ele>
        <time>2010-01-23T11:33:37Z</time>
      </trkpt>
      <trkpt lat="45.28289" lon="6.16681">
        <ele>1886.24</ele>
        <time>2010-01-23T11:33:54Z</time>
      </trkpt>
      <trkpt lat="45.28291" lon="6.16688">
        <ele>1887.69</ele>
        <time>2010-01-23T11:34:05Z</time>
      </trkpt>
      <trkpt lat="45.28293" lon="6.16688">
        <ele>1888.17</ele>
        <time>2010-01-23T11:34:07Z</time>
      </trkpt>
      <trkpt lat="45.28294" lon="6.16694">
        <ele>1890.57</ele>
        <time>2010-01-23T11:34:20Z</time>
      </trkpt>
      <trkpt lat="45.28296" lon="6.16697">
        <ele>1892.01</ele>
        <time>2010-01-23T11:34:36Z</time>
      </trkpt>
      <trkpt lat="45.28299" lon="6.16698">
        <ele>1893.93</ele>
        <time>2010-01-23T11:34:53Z</time>
      </trkpt>
      <trkpt lat="45.28304" lon="6.16688">
        <ele>1896.82</ele>
        <time>2010-01-23T11:35:11Z</time>
      </trkpt>
      <trkpt lat="45.28306" lon="6.16673">
        <ele>1899.7</ele>
        <time>2010-01-23T11:35:28Z</time>
      </trkpt>
      <trkpt lat="45.2831" lon="6.16665">
        <ele>1901.63</ele>
        <time>2010-01-23T11:35:40Z</time>
      </trkpt>
      <trkpt lat="45.28312" lon="6.1667">
        <ele>1903.55</ele>
        <time>2010-01-23T11:35:53Z</time>
      </trkpt>
      <trkpt lat="45.28314" lon="6.16677">
        <ele>1905.47</ele>
        <time>2010-01-23T11:36:07Z</time>
      </trkpt>
      <trkpt lat="45.28322" lon="6.16685">
        <ele>1908.83</ele>
        <time>2010-01-23T11:36:24Z</time>
      </trkpt>
      <trkpt lat="45.28327" lon="6.1669">
        <ele>1910.76</ele>
        <time>2010-01-23T11:36:37Z</time>
      </trkpt>
      <trkpt lat="45.28332" lon="6.16697">
        <ele>1913.64</ele>
        <time>2010-01-23T11:36:53Z</time>
      </trkpt>
      <trkpt lat="45.28336" lon="6.16701">
        <ele>1916.04</ele>
        <time>2010-01-23T11:37:07Z</time>
      </trkpt>
      <trkpt lat="45.28343" lon="6.16709">
        <ele>1918.93</ele>
        <time>2010-01-23T11:37:36Z</time>
      </trkpt>
      <trkpt lat="45.2835" lon="6.16716">
        <ele>1921.81</ele>
        <time>2010-01-23T11:37:53Z</time>
      </trkpt>
      <trkpt lat="45.28353" lon="6.16717">
        <ele>1924.22</ele>
        <time>2010-01-23T11:38:10Z</time>
      </trkpt>
      <trkpt lat="45.28358" lon="6.16722">
        <ele>1925.66</ele>
        <time>2010-01-23T11:38:23Z</time>
      </trkpt>
      <trkpt lat="45.28366" lon="6.16729">
        <ele>1928.54</ele>
        <time>2010-01-23T11:38:41Z</time>
      </trkpt>
      <trkpt lat="45.28372" lon="6.16732">
        <ele>1931.43</ele>
        <time>2010-01-23T11:38:59Z</time>
      </trkpt>
      <trkpt lat="45.28376" lon="6.16735">
        <ele>1933.83</ele>
        <time>2010-01-23T11:39:12Z</time>
      </trkpt>
      <trkpt lat="45.28384" lon="6.16738">
        <ele>1936.23</ele>
        <time>2010-01-23T11:39:25Z</time>
      </trkpt>
      <trkpt lat="45.2839" lon="6.16743">
        <ele>1939.12</ele>
        <time>2010-01-23T11:39:40Z</time>
      </trkpt>
      <trkpt lat="45.28397" lon="6.16751">
        <ele>1942</ele>
        <time>2010-01-23T11:39:55Z</time>
      </trkpt>
      <trkpt lat="45.28398" lon="6.16754">
        <ele>1943.44</ele>
        <time>2010-01-23T11:40:15Z</time>
      </trkpt>
      <trkpt lat="45.28402" lon="6.16753">
        <ele>1946.33</ele>
        <time>2010-01-23T11:41:14Z</time>
      </trkpt>
      <trkpt lat="45.28409" lon="6.16748">
        <ele>1948.73</ele>
        <time>2010-01-23T11:41:31Z</time>
      </trkpt>
      <trkpt lat="45.2841" lon="6.16741">
        <ele>1951.61</ele>
        <time>2010-01-23T11:41:48Z</time>
      </trkpt>
      <trkpt lat="45.2841" lon="6.1673">
        <ele>1953.54</ele>
        <time>2010-01-23T11:42:00Z</time>
      </trkpt>
      <trkpt lat="45.28409" lon="6.16721">
        <ele>1954.98</ele>
        <time>2010-01-23T11:42:13Z</time>
      </trkpt>
      <trkpt lat="45.28408" lon="6.16711">
        <ele>1957.86</ele>
        <time>2010-01-23T11:42:29Z</time>
      </trkpt>
      <trkpt lat="45.28408" lon="6.16709">
        <ele>1957.86</ele>
        <time>2010-01-23T11:43:02Z</time>
      </trkpt>
      <trkpt lat="45.28414" lon="6.16715">
        <ele>1960.27</ele>
        <time>2010-01-23T11:43:38Z</time>
      </trkpt>
      <trkpt lat="45.2842" lon="6.16719">
        <ele>1963.15</ele>
        <time>2010-01-23T11:43:50Z</time>
      </trkpt>
      <trkpt lat="45.28423" lon="6.16721">
        <ele>1964.11</ele>
        <time>2010-01-23T11:44:07Z</time>
      </trkpt>
      <trkpt lat="45.28429" lon="6.16726">
        <ele>1966.51</ele>
        <time>2010-01-23T11:44:28Z</time>
      </trkpt>
      <trkpt lat="45.28434" lon="6.16734">
        <ele>1969.4</ele>
        <time>2010-01-23T11:44:43Z</time>
      </trkpt>
      <trkpt lat="45.28439" lon="6.16741">
        <ele>1972.28</ele>
        <time>2010-01-23T11:44:56Z</time>
      </trkpt>
      <trkpt lat="45.28443" lon="6.16747">
        <ele>1974.2</ele>
        <time>2010-01-23T11:45:14Z</time>
      </trkpt>
      <trkpt lat="45.2845" lon="6.16752">
        <ele>1976.13</ele>
        <time>2010-01-23T11:45:26Z</time>
      </trkpt>
      <trkpt lat="45.28456" lon="6.16756">
        <ele>1978.53</ele>
        <time>2010-01-23T11:45:44Z</time>
      </trkpt>
      <trkpt lat="45.28463" lon="6.16759">
        <ele>1980.45</ele>
        <time>2010-01-23T11:45:56Z</time>
      </trkpt>
      <trkpt lat="45.28469" lon="6.16764">
        <ele>1982.38</ele>
        <time>2010-01-23T11:46:10Z</time>
      </trkpt>
      <trkpt lat="45.28475" lon="6.16767">
        <ele>1983.82</ele>
        <time>2010-01-23T11:46:22Z</time>
      </trkpt>
      <trkpt lat="45.28479" lon="6.16771">
        <ele>1985.74</ele>
        <time>2010-01-23T11:46:33Z</time>
      </trkpt>
      <trkpt lat="45.28487" lon="6.16777">
        <ele>1988.62</ele>
        <time>2010-01-23T11:46:47Z</time>
      </trkpt>
      <trkpt lat="45.28498" lon="6.16781">
        <ele>1991.99</ele>
        <time>2010-01-23T11:47:10Z</time>
      </trkpt>
      <trkpt lat="45.28498" lon="6.16781">
        <ele>1992.47</ele>
        <time>2010-01-23T11:47:14Z</time>
      </trkpt>
      <trkpt lat="45.28499" lon="6.16783">
        <ele>1993.43</ele>
        <time>2010-01-23T11:47:21Z</time>
      </trkpt>
      <trkpt lat="45.28512" lon="6.1679">
        <ele>1996.32</ele>
        <time>2010-01-23T11:47:41Z</time>
      </trkpt>
      <trkpt lat="45.28517" lon="6.16803">
        <ele>1998.72</ele>
        <time>2010-01-23T11:47:57Z</time>
      </trkpt>
      <trkpt lat="45.28519" lon="6.16806">
        <ele>1999.68</ele>
        <time>2010-01-23T11:48:12Z</time>
      </trkpt>
      <trkpt lat="45.28523" lon="6.16798">
        <ele>2002.08</ele>
        <time>2010-01-23T11:48:29Z</time>
      </trkpt>
      <trkpt lat="45.28524" lon="6.16789">
        <ele>2003.04</ele>
        <time>2010-01-23T11:48:45Z</time>
      </trkpt>
      <trkpt lat="45.28524" lon="6.16781">
        <ele>2004.49</ele>
        <time>2010-01-23T11:48:56Z</time>
      </trkpt>
      <trkpt lat="45.28524" lon="6.16781">
        <ele>2006.89</ele>
        <time>2010-01-23T11:49:18Z</time>
      </trkpt>
      <trkpt lat="45.28528" lon="6.16788">
        <ele>2009.29</ele>
        <time>2010-01-23T11:49:34Z</time>
      </trkpt>
      <trkpt lat="45.28534" lon="6.16798">
        <ele>2012.18</ele>
        <time>2010-01-23T11:49:53Z</time>
      </trkpt>
      <trkpt lat="45.28535" lon="6.16803">
        <ele>2014.58</ele>
        <time>2010-01-23T11:50:11Z</time>
      </trkpt>
      <trkpt lat="45.2854" lon="6.16799">
        <ele>2016.02</ele>
        <time>2010-01-23T11:50:27Z</time>
      </trkpt>
      <trkpt lat="45.28544" lon="6.16797">
        <ele>2017.94</ele>
        <time>2010-01-23T11:50:53Z</time>
      </trkpt>
      <trkpt lat="45.2855" lon="6.16808">
        <ele>2020.83</ele>
        <time>2010-01-23T11:51:22Z</time>
      </trkpt>
      <trkpt lat="45.28553" lon="6.16806">
        <ele>2024.19</ele>
        <time>2010-01-23T11:51:48Z</time>
      </trkpt>
      <trkpt lat="45.28557" lon="6.16805">
        <ele>2027.08</ele>
        <time>2010-01-23T11:52:32Z</time>
      </trkpt>
      <trkpt lat="45.28558" lon="6.16809">
        <ele>2028.52</ele>
        <time>2010-01-23T11:52:43Z</time>
      </trkpt>
      <trkpt lat="45.28563" lon="6.16804">
        <ele>2030.44</ele>
        <time>2010-01-23T11:53:02Z</time>
      </trkpt>
      <trkpt lat="45.28567" lon="6.16797">
        <ele>2032.84</ele>
        <time>2010-01-23T11:53:27Z</time>
      </trkpt>
      <trkpt lat="45.28568" lon="6.16802">
        <ele>2035.25</ele>
        <time>2010-01-23T11:53:48Z</time>
      </trkpt>
      <trkpt lat="45.2857" lon="6.16792">
        <ele>2038.13</ele>
        <time>2010-01-23T11:54:13Z</time>
      </trkpt>
      <trkpt lat="45.28575" lon="6.16797">
        <ele>2040.54</ele>
        <time>2010-01-23T11:54:41Z</time>
      </trkpt>
      <trkpt lat="45.28577" lon="6.16787">
        <ele>2043.9</ele>
        <time>2010-01-23T11:55:10Z</time>
      </trkpt>
      <trkpt lat="45.28574" lon="6.16778">
        <ele>2045.82</ele>
        <time>2010-01-23T11:55:22Z</time>
      </trkpt>
      <trkpt lat="45.28573" lon="6.16773">
        <ele>2046.3</ele>
        <time>2010-01-23T11:55:35Z</time>
      </trkpt>
      <trkpt lat="45.28577" lon="6.16775">
        <ele>2050.15</ele>
        <time>2010-01-23T11:56:12Z</time>
      </trkpt>
      <trkpt lat="45.28587" lon="6.1678">
        <ele>2052.55</ele>
        <time>2010-01-23T11:56:32Z</time>
      </trkpt>
      <trkpt lat="45.28587" lon="6.16779">
        <ele>2052.55</ele>
        <time>2010-01-23T11:56:35Z</time>
      </trkpt>
      <trkpt lat="45.28587" lon="6.16771">
        <ele>2054.47</ele>
        <time>2010-01-23T11:56:46Z</time>
      </trkpt>
      <trkpt lat="45.28585" lon="6.16769">
        <ele>2055.92</ele>
        <time>2010-01-23T11:56:58Z</time>
      </trkpt>
      <trkpt lat="45.28588" lon="6.16765">
        <ele>2059.28</ele>
        <time>2010-01-23T11:57:53Z</time>
      </trkpt>
      <trkpt lat="45.2859" lon="6.16757">
        <ele>2061.68</ele>
        <time>2010-01-23T11:58:12Z</time>
      </trkpt>
      <trkpt lat="45.28591" lon="6.16754">
        <ele>2065.05</ele>
        <time>2010-01-23T11:58:48Z</time>
      </trkpt>
      <trkpt lat="45.28589" lon="6.16746">
        <ele>2066.97</ele>
        <time>2010-01-23T11:59:05Z</time>
      </trkpt>
      <trkpt lat="45.28596" lon="6.16747">
        <ele>2068.89</ele>
        <time>2010-01-23T11:59:21Z</time>
      </trkpt>
      <trkpt lat="45.28601" lon="6.16752">
        <ele>2071.3</ele>
        <time>2010-01-23T11:59:39Z</time>
      </trkpt>
      <trkpt lat="45.28601" lon="6.16745">
        <ele>2072.26</ele>
        <time>2010-01-23T11:59:50Z</time>
      </trkpt>
      <trkpt lat="45.28598" lon="6.16735">
        <ele>2074.66</ele>
        <time>2010-01-23T12:00:04Z</time>
      </trkpt>
      <trkpt lat="45.28598" lon="6.16734">
        <ele>2075.62</ele>
        <time>2010-01-23T12:00:22Z</time>
      </trkpt>
      <trkpt lat="45.28607" lon="6.16739">
        <ele>2077.07</ele>
        <time>2010-01-23T12:00:35Z</time>
      </trkpt>
      <trkpt lat="45.28612" lon="6.16742">
        <ele>2078.99</ele>
        <time>2010-01-23T12:00:44Z</time>
      </trkpt>
      <trkpt lat="45.28618" lon="6.16749">
        <ele>2081.87</ele>
        <time>2010-01-23T12:01:02Z</time>
      </trkpt>
      <trkpt lat="45.2862" lon="6.16754">
        <ele>2083.31</ele>
        <time>2010-01-23T12:01:12Z</time>
      </trkpt>
      <trkpt lat="45.2862" lon="6.16751">
        <ele>2084.28</ele>
        <time>2010-01-23T12:01:35Z</time>
      </trkpt>
      <trkpt lat="45.28623" lon="6.1674">
        <ele>2086.68</ele>
        <time>2010-01-23T12:01:51Z</time>
      </trkpt>
      <trkpt lat="45.28624" lon="6.16745">
        <ele>2089.56</ele>
        <time>2010-01-23T12:02:11Z</time>
      </trkpt>
      <trkpt lat="45.2863" lon="6.1675">
        <ele>2091.97</ele>
        <time>2010-01-23T12:02:26Z</time>
      </trkpt>
      <trkpt lat="45.28637" lon="6.16759">
        <ele>2095.33</ele>
        <time>2010-01-23T12:03:30Z</time>
      </trkpt>
      <trkpt lat="45.2864" lon="6.16761">
        <ele>2098.7</ele>
        <time>2010-01-23T12:03:52Z</time>
      </trkpt>
      <trkpt lat="45.28645" lon="6.16744">
        <ele>2101.1</ele>
        <time>2010-01-23T12:04:06Z</time>
      </trkpt>
      <trkpt lat="45.28649" lon="6.16753">
        <ele>2104.46</ele>
        <time>2010-01-23T12:04:32Z</time>
      </trkpt>
      <trkpt lat="45.28652" lon="6.16759">
        <ele>2106.39</ele>
        <time>2010-01-23T12:04:46Z</time>
      </trkpt>
      <trkpt lat="45.28654" lon="6.16768">
        <ele>2108.31</ele>
        <time>2010-01-23T12:05:07Z</time>
      </trkpt>
      <trkpt lat="45.28656" lon="6.16773">
        <ele>2110.71</ele>
        <time>2010-01-23T12:05:15Z</time>
      </trkpt>
      <trkpt lat="45.2866" lon="6.16778">
        <ele>2112.15</ele>
        <time>2010-01-23T12:05:24Z</time>
      </trkpt>
      <trkpt lat="45.28662" lon="6.16779">
        <ele>2115.52</ele>
        <time>2010-01-23T12:05:53Z</time>
      </trkpt>
      <trkpt lat="45.28676" lon="6.16769">
        <ele>2118.88</ele>
        <time>2010-01-23T12:06:08Z</time>
      </trkpt>
      <trkpt lat="45.28676" lon="6.16771">
        <ele>2121.77</ele>
        <time>2010-01-23T12:06:31Z</time>
      </trkpt>
      <trkpt lat="45.28678" lon="6.16772">
        <ele>2122.25</ele>
        <time>2010-01-23T12:07:19Z</time>
      </trkpt>
      <trkpt lat="45.2868" lon="6.16772">
        <ele>2121.77</ele>
        <time>2010-01-23T12:07:40Z</time>
      </trkpt>
      <trkpt lat="45.28681" lon="6.16772">
        <ele>2117.44</ele>
        <time>2010-01-23T12:07:58Z</time>
      </trkpt>
      <trkpt lat="45.2868" lon="6.16771">
        <ele>2112.15</ele>
        <time>2010-01-23T12:07:59Z</time>
      </trkpt>
      <trkpt lat="45.2868" lon="6.1677">
        <ele>2132.34</ele>
        <time>2010-01-23T12:08:00Z</time>
      </trkpt>
      <trkpt lat="45.2868" lon="6.1677">
        <ele>2127.05</ele>
        <time>2010-01-23T12:08:01Z</time>
      </trkpt>
      <trkpt lat="45.2868" lon="6.1677">
        <ele>2118.88</ele>
        <time>2010-01-23T12:08:02Z</time>
      </trkpt>
      <trkpt lat="45.2868" lon="6.1677">
        <ele>2124.65</ele>
        <time>2010-01-23T12:08:03Z</time>
      </trkpt>
      <trkpt lat="45.2868" lon="6.1677">
        <ele>2122.25</ele>
        <time>2010-01-23T12:08:06Z</time>
      </trkpt>
      <trkpt lat="45.2868" lon="6.16771">
        <ele>2121.29</ele>
        <time>2010-01-23T12:08:27Z</time>
      </trkpt>
      <trkpt lat="45.28677" lon="6.16774">
        <ele>2123.21</ele>
        <time>2010-01-23T12:08:42Z</time>
      </trkpt>
      <trkpt lat="45.2868" lon="6.16773">
        <ele>2124.65</ele>
        <time>2010-01-23T12:09:08Z</time>
      </trkpt>
      <trkpt lat="45.28684" lon="6.16774">
        <ele>2126.57</ele>
        <time>2010-01-23T12:09:24Z</time>
      </trkpt>
      <trkpt lat="45.28694" lon="6.16776">
        <ele>2128.02</ele>
        <time>2010-01-23T12:09:49Z</time>
      </trkpt>
      <trkpt lat="45.287" lon="6.16778">
        <ele>2129.46</ele>
        <time>2010-01-23T12:10:01Z</time>
      </trkpt>
      <trkpt lat="45.28708" lon="6.1678">
        <ele>2131.86</ele>
        <time>2010-01-23T12:10:15Z</time>
      </trkpt>
      <trkpt lat="45.28717" lon="6.16781">
        <ele>2133.78</ele>
        <time>2010-01-23T12:10:31Z</time>
      </trkpt>
      <trkpt lat="45.28729" lon="6.16785">
        <ele>2135.71</ele>
        <time>2010-01-23T12:10:44Z</time>
      </trkpt>
      <trkpt lat="45.28736" lon="6.1679">
        <ele>2136.67</ele>
        <time>2010-01-23T12:10:55Z</time>
      </trkpt>
      <trkpt lat="45.28744" lon="6.16795">
        <ele>2138.11</ele>
        <time>2010-01-23T12:11:05Z</time>
      </trkpt>
      <trkpt lat="45.2875" lon="6.16801">
        <ele>2140.99</ele>
        <time>2010-01-23T12:11:17Z</time>
      </trkpt>
      <trkpt lat="45.28752" lon="6.16803">
        <ele>2141.95</ele>
        <time>2010-01-23T12:11:21Z</time>
      </trkpt>
      <trkpt lat="45.28755" lon="6.16807">
        <ele>2143.4</ele>
        <time>2010-01-23T12:11:34Z</time>
      </trkpt>
      <trkpt lat="45.28756" lon="6.1681">
        <ele>2144.36</ele>
        <time>2010-01-23T12:11:50Z</time>
      </trkpt>
      <trkpt lat="45.28761" lon="6.1682">
        <ele>2146.76</ele>
        <time>2010-01-23T12:12:03Z</time>
      </trkpt>
      <trkpt lat="45.28761" lon="6.1682">
        <ele>2147.24</ele>
        <time>2010-01-23T12:12:04Z</time>
      </trkpt>
      <trkpt lat="45.28766" lon="6.16832">
        <ele>2149.65</ele>
        <time>2010-01-23T12:12:17Z</time>
      </trkpt>
      <trkpt lat="45.28772" lon="6.16839">
        <ele>2151.57</ele>
        <time>2010-01-23T12:12:29Z</time>
      </trkpt>
      <trkpt lat="45.28775" lon="6.16843">
        <ele>2153.49</ele>
        <time>2010-01-23T12:12:41Z</time>
      </trkpt>
      <trkpt lat="45.28781" lon="6.1685">
        <ele>2155.89</ele>
        <time>2010-01-23T12:13:16Z</time>
      </trkpt>
      <trkpt lat="45.28785" lon="6.16855">
        <ele>2157.34</ele>
        <time>2010-01-23T12:13:27Z</time>
      </trkpt>
      <trkpt lat="45.2879" lon="6.16862">
        <ele>2159.26</ele>
        <time>2010-01-23T12:13:37Z</time>
      </trkpt>
      <trkpt lat="45.28793" lon="6.16867">
        <ele>2161.18</ele>
        <time>2010-01-23T12:13:48Z</time>
      </trkpt>
      <trkpt lat="45.28796" lon="6.16871">
        <ele>2162.62</ele>
        <time>2010-01-23T12:13:58Z</time>
      </trkpt>
      <trkpt lat="45.28801" lon="6.16876">
        <ele>2164.06</ele>
        <time>2010-01-23T12:14:15Z</time>
      </trkpt>
      <trkpt lat="45.28805" lon="6.1688">
        <ele>2165.99</ele>
        <time>2010-01-23T12:14:26Z</time>
      </trkpt>
      <trkpt lat="45.28808" lon="6.16887">
        <ele>2167.91</ele>
        <time>2010-01-23T12:14:37Z</time>
      </trkpt>
      <trkpt lat="45.28813" lon="6.16893">
        <ele>2169.83</ele>
        <time>2010-01-23T12:14:49Z</time>
      </trkpt>
      <trkpt lat="45.2882" lon="6.169">
        <ele>2172.72</ele>
        <time>2010-01-23T12:15:02Z</time>
      </trkpt>
      <trkpt lat="45.28823" lon="6.16907">
        <ele>2174.16</ele>
        <time>2010-01-23T12:15:13Z</time>
      </trkpt>
      <trkpt lat="45.28829" lon="6.16914">
        <ele>2176.08</ele>
        <time>2010-01-23T12:15:26Z</time>
      </trkpt>
      <trkpt lat="45.28835" lon="6.1692">
        <ele>2178.48</ele>
        <time>2010-01-23T12:15:54Z</time>
      </trkpt>
      <trkpt lat="45.2884" lon="6.16921">
        <ele>2180.41</ele>
        <time>2010-01-23T12:16:06Z</time>
      </trkpt>
      <trkpt lat="45.28843" lon="6.16918">
        <ele>2181.37</ele>
        <time>2010-01-23T12:16:19Z</time>
      </trkpt>
      <trkpt lat="45.28845" lon="6.16911">
        <ele>2182.81</ele>
        <time>2010-01-23T12:16:42Z</time>
      </trkpt>
      <trkpt lat="45.28845" lon="6.16903">
        <ele>2184.73</ele>
        <time>2010-01-23T12:16:54Z</time>
      </trkpt>
      <trkpt lat="45.28845" lon="6.16895">
        <ele>2186.66</ele>
        <time>2010-01-23T12:17:04Z</time>
      </trkpt>
      <trkpt lat="45.28848" lon="6.16884">
        <ele>2188.58</ele>
        <time>2010-01-23T12:17:39Z</time>
      </trkpt>
      <trkpt lat="45.2885" lon="6.16878">
        <ele>2190.5</ele>
        <time>2010-01-23T12:17:50Z</time>
      </trkpt>
      <trkpt lat="45.28855" lon="6.16871">
        <ele>2192.9</ele>
        <time>2010-01-23T12:18:03Z</time>
      </trkpt>
      <trkpt lat="45.28859" lon="6.16864">
        <ele>2195.79</ele>
        <time>2010-01-23T12:18:21Z</time>
      </trkpt>
      <trkpt lat="45.28864" lon="6.16857">
        <ele>2198.19</ele>
        <time>2010-01-23T12:18:35Z</time>
      </trkpt>
      <trkpt lat="45.28867" lon="6.16856">
        <ele>2198.67</ele>
        <time>2010-01-23T12:19:00Z</time>
      </trkpt>
      <trkpt lat="45.28875" lon="6.16854">
        <ele>2201.56</ele>
        <time>2010-01-23T12:19:18Z</time>
      </trkpt>
      <trkpt lat="45.28883" lon="6.16849">
        <ele>2204.44</ele>
        <time>2010-01-23T12:19:35Z</time>
      </trkpt>
      <trkpt lat="45.28889" lon="6.16844">
        <ele>2206.84</ele>
        <time>2010-01-23T12:19:50Z</time>
      </trkpt>
      <trkpt lat="45.28896" lon="6.16841">
        <ele>2209.25</ele>
        <time>2010-01-23T12:20:04Z</time>
      </trkpt>
      <trkpt lat="45.289" lon="6.1684">
        <ele>2209.73</ele>
        <time>2010-01-23T12:20:25Z</time>
      </trkpt>
      <trkpt lat="45.28902" lon="6.16837">
        <ele>2211.17</ele>
        <time>2010-01-23T12:20:41Z</time>
      </trkpt>
      <trkpt lat="45.289" lon="6.16829">
        <ele>2213.57</ele>
        <time>2010-01-23T12:20:53Z</time>
      </trkpt>
      <trkpt lat="45.28898" lon="6.16822">
        <ele>2215.5</ele>
        <time>2010-01-23T12:21:05Z</time>
      </trkpt>
      <trkpt lat="45.28897" lon="6.16821">
        <ele>2216.46</ele>
        <time>2010-01-23T12:21:21Z</time>
      </trkpt>
      <trkpt lat="45.28903" lon="6.16815">
        <ele>2218.86</ele>
        <time>2010-01-23T12:21:41Z</time>
      </trkpt>
      <trkpt lat="45.2891" lon="6.16813">
        <ele>2221.26</ele>
        <time>2010-01-23T12:21:54Z</time>
      </trkpt>
      <trkpt lat="45.28917" lon="6.16811">
        <ele>2222.71</ele>
        <time>2010-01-23T12:22:07Z</time>
      </trkpt>
      <trkpt lat="45.28923" lon="6.16806">
        <ele>2225.59</ele>
        <time>2010-01-23T12:22:21Z</time>
      </trkpt>
      <trkpt lat="45.28931" lon="6.16805">
        <ele>2227.99</ele>
        <time>2010-01-23T12:22:40Z</time>
      </trkpt>
      <trkpt lat="45.28935" lon="6.16802">
        <ele>2230.4</ele>
        <time>2010-01-23T12:23:14Z</time>
      </trkpt>
      <trkpt lat="45.28935" lon="6.16793">
        <ele>2232.32</ele>
        <time>2010-01-23T12:23:25Z</time>
      </trkpt>
      <trkpt lat="45.28933" lon="6.16786">
        <ele>2233.76</ele>
        <time>2010-01-23T12:23:40Z</time>
      </trkpt>
      <trkpt lat="45.28932" lon="6.16778">
        <ele>2235.68</ele>
        <time>2010-01-23T12:23:53Z</time>
      </trkpt>
      <trkpt lat="45.28931" lon="6.16772">
        <ele>2237.13</ele>
        <time>2010-01-23T12:24:12Z</time>
      </trkpt>
      <trkpt lat="45.28929" lon="6.16762">
        <ele>2238.57</ele>
        <time>2010-01-23T12:24:25Z</time>
      </trkpt>
      <trkpt lat="45.28928" lon="6.16753">
        <ele>2241.45</ele>
        <time>2010-01-23T12:24:51Z</time>
      </trkpt>
      <trkpt lat="45.28933" lon="6.16747">
        <ele>2243.85</ele>
        <time>2010-01-23T12:25:08Z</time>
      </trkpt>
      <trkpt lat="45.28942" lon="6.16745">
        <ele>2246.26</ele>
        <time>2010-01-23T12:25:24Z</time>
      </trkpt>
      <trkpt lat="45.28947" lon="6.16744">
        <ele>2247.7</ele>
        <time>2010-01-23T12:25:35Z</time>
      </trkpt>
      <trkpt lat="45.28954" lon="6.16745">
        <ele>2251.06</ele>
        <time>2010-01-23T12:25:59Z</time>
      </trkpt>
      <trkpt lat="45.28966" lon="6.16761">
        <ele>2253.95</ele>
        <time>2010-01-23T12:26:18Z</time>
      </trkpt>
      <trkpt lat="45.28966" lon="6.16764">
        <ele>2254.43</ele>
        <time>2010-01-23T12:26:39Z</time>
      </trkpt>
      <trkpt lat="45.2897" lon="6.1676">
        <ele>2255.87</ele>
        <time>2010-01-23T12:26:51Z</time>
      </trkpt>
      <trkpt lat="45.28972" lon="6.16754">
        <ele>2257.79</ele>
        <time>2010-01-23T12:27:03Z</time>
      </trkpt>
      <trkpt lat="45.28973" lon="6.16754">
        <ele>2259.72</ele>
        <time>2010-01-23T12:27:27Z</time>
      </trkpt>
      <trkpt lat="45.28977" lon="6.16757">
        <ele>2260.68</ele>
        <time>2010-01-23T12:27:36Z</time>
      </trkpt>
      <trkpt lat="45.28985" lon="6.16764">
        <ele>2263.56</ele>
        <time>2010-01-23T12:28:02Z</time>
      </trkpt>
      <trkpt lat="45.28993" lon="6.16769">
        <ele>2265.48</ele>
        <time>2010-01-23T12:28:25Z</time>
      </trkpt>
      <trkpt lat="45.28996" lon="6.16771">
        <ele>2267.41</ele>
        <time>2010-01-23T12:28:45Z</time>
      </trkpt>
      <trkpt lat="45.29" lon="6.16775">
        <ele>2269.33</ele>
        <time>2010-01-23T12:28:59Z</time>
      </trkpt>
      <trkpt lat="45.29003" lon="6.1678">
        <ele>2272.21</ele>
        <time>2010-01-23T12:29:16Z</time>
      </trkpt>
      <trkpt lat="45.29012" lon="6.1679">
        <ele>2273.66</ele>
        <time>2010-01-23T12:29:27Z</time>
      </trkpt>
      <trkpt lat="45.29019" lon="6.16797">
        <ele>2275.58</ele>
        <time>2010-01-23T12:29:38Z</time>
      </trkpt>
      <trkpt lat="45.29019" lon="6.16798">
        <ele>2276.06</ele>
        <time>2010-01-23T12:29:56Z</time>
      </trkpt>
      <trkpt lat="45.2902" lon="6.16791">
        <ele>2277.5</ele>
        <time>2010-01-23T12:30:51Z</time>
      </trkpt>
      <trkpt lat="45.29025" lon="6.16786">
        <ele>2279.9</ele>
        <time>2010-01-23T12:31:04Z</time>
      </trkpt>
      <trkpt lat="45.29029" lon="6.1678">
        <ele>2283.27</ele>
        <time>2010-01-23T12:31:20Z</time>
      </trkpt>
      <trkpt lat="45.29024" lon="6.16762">
        <ele>2286.63</ele>
        <time>2010-01-23T12:31:42Z</time>
      </trkpt>
      <trkpt lat="45.29023" lon="6.16752">
        <ele>2288.56</ele>
        <time>2010-01-23T12:32:13Z</time>
      </trkpt>
      <trkpt lat="45.29024" lon="6.16751">
        <ele>2290.48</ele>
        <time>2010-01-23T12:32:25Z</time>
      </trkpt>
      <trkpt lat="45.29029" lon="6.16753">
        <ele>2292.4</ele>
        <time>2010-01-23T12:32:38Z</time>
      </trkpt>
      <trkpt lat="45.29035" lon="6.16752">
        <ele>2295.28</ele>
        <time>2010-01-23T12:33:08Z</time>
      </trkpt>
      <trkpt lat="45.29039" lon="6.16742">
        <ele>2297.69</ele>
        <time>2010-01-23T12:33:24Z</time>
      </trkpt>
      <trkpt lat="45.29043" lon="6.16734">
        <ele>2299.61</ele>
        <time>2010-01-23T12:34:12Z</time>
      </trkpt>
      <trkpt lat="45.29046" lon="6.16724">
        <ele>2302.01</ele>
        <time>2010-01-23T12:34:29Z</time>
      </trkpt>
      <trkpt lat="45.29051" lon="6.16723">
        <ele>2303.46</ele>
        <time>2010-01-23T12:34:54Z</time>
      </trkpt>
      <trkpt lat="45.29052" lon="6.16715">
        <ele>2304.9</ele>
        <time>2010-01-23T12:35:54Z</time>
      </trkpt>
      <trkpt lat="45.29055" lon="6.16713">
        <ele>2307.78</ele>
        <time>2010-01-23T12:36:17Z</time>
      </trkpt>
      <trkpt lat="45.29054" lon="6.16698">
        <ele>2309.7</ele>
        <time>2010-01-23T12:36:43Z</time>
      </trkpt>
      <trkpt lat="45.29058" lon="6.16698">
        <ele>2311.15</ele>
        <time>2010-01-23T12:36:52Z</time>
      </trkpt>
      <trkpt lat="45.29064" lon="6.16703">
        <ele>2313.07</ele>
        <time>2010-01-23T12:37:05Z</time>
      </trkpt>
      <trkpt lat="45.2907" lon="6.16709">
        <ele>2314.03</ele>
        <time>2010-01-23T12:37:16Z</time>
      </trkpt>
      <trkpt lat="45.29071" lon="6.16708">
        <ele>2315.95</ele>
        <time>2010-01-23T12:37:35Z</time>
      </trkpt>
      <trkpt lat="45.29075" lon="6.16708">
        <ele>2319.32</ele>
        <time>2010-01-23T12:38:00Z</time>
      </trkpt>
      <trkpt lat="45.29075" lon="6.16699">
        <ele>2320.76</ele>
        <time>2010-01-23T12:38:21Z</time>
      </trkpt>
      <trkpt lat="45.29082" lon="6.16706">
        <ele>2322.2</ele>
        <time>2010-01-23T12:38:35Z</time>
      </trkpt>
      <trkpt lat="45.29085" lon="6.1671">
        <ele>2325.57</ele>
        <time>2010-01-23T12:38:51Z</time>
      </trkpt>
      <trkpt lat="45.29085" lon="6.1671">
        <ele>2325.09</ele>
        <time>2010-01-23T12:39:08Z</time>
      </trkpt>
      <trkpt lat="45.29086" lon="6.16707">
        <ele>2326.05</ele>
        <time>2010-01-23T12:39:28Z</time>
      </trkpt>
      <trkpt lat="45.2909" lon="6.16708">
        <ele>2327.49</ele>
        <time>2010-01-23T12:39:40Z</time>
      </trkpt>
      <trkpt lat="45.2909" lon="6.16707">
        <ele>2328.93</ele>
        <time>2010-01-23T12:39:54Z</time>
      </trkpt>
      <trkpt lat="45.29095" lon="6.16715">
        <ele>2330.37</ele>
        <time>2010-01-23T12:40:03Z</time>
      </trkpt>
      <trkpt lat="45.29094" lon="6.16713">
        <ele>2330.37</ele>
        <time>2010-01-23T12:40:11Z</time>
      </trkpt>
      <trkpt lat="45.291" lon="6.1671">
        <ele>2333.26</ele>
        <time>2010-01-23T12:40:26Z</time>
      </trkpt>
      <trkpt lat="45.29104" lon="6.16703">
        <ele>2333.74</ele>
        <time>2010-01-23T12:40:37Z</time>
      </trkpt>
      <trkpt lat="45.29105" lon="6.16704">
        <ele>2336.14</ele>
        <time>2010-01-23T12:41:05Z</time>
      </trkpt>
      <trkpt lat="45.29105" lon="6.16704">
        <ele>2336.14</ele>
        <time>2010-01-23T12:41:06Z</time>
      </trkpt>
      <trkpt lat="45.29108" lon="6.16708">
        <ele>2337.58</ele>
        <time>2010-01-23T12:41:11Z</time>
      </trkpt>
      <trkpt lat="45.29111" lon="6.16716">
        <ele>2339.51</ele>
        <time>2010-01-23T12:41:27Z</time>
      </trkpt>
      <trkpt lat="45.2911" lon="6.16716">
        <ele>2340.47</ele>
        <time>2010-01-23T12:41:47Z</time>
      </trkpt>
      <trkpt lat="45.29112" lon="6.16715">
        <ele>2340.95</ele>
        <time>2010-01-23T12:41:50Z</time>
      </trkpt>
      <trkpt lat="45.29115" lon="6.16712">
        <ele>2342.39</ele>
        <time>2010-01-23T12:42:02Z</time>
      </trkpt>
      <trkpt lat="45.29113" lon="6.16709">
        <ele>2343.83</ele>
        <time>2010-01-23T12:42:28Z</time>
      </trkpt>
      <trkpt lat="45.29112" lon="6.16709">
        <ele>2346.72</ele>
        <time>2010-01-23T12:42:45Z</time>
      </trkpt>
      <trkpt lat="45.29115" lon="6.16721">
        <ele>2349.6</ele>
        <time>2010-01-23T12:43:01Z</time>
      </trkpt>
      <trkpt lat="45.29113" lon="6.16721">
        <ele>2349.6</ele>
        <time>2010-01-23T12:43:52Z</time>
      </trkpt>
      <trkpt lat="45.29117" lon="6.16715">
        <ele>2351.04</ele>
        <time>2010-01-23T12:44:07Z</time>
      </trkpt>
      <trkpt lat="45.29118" lon="6.1672">
        <ele>2353.44</ele>
        <time>2010-01-23T12:44:23Z</time>
      </trkpt>
      <trkpt lat="45.29123" lon="6.1672">
        <ele>2356.81</ele>
        <time>2010-01-23T12:44:51Z</time>
      </trkpt>
      <trkpt lat="45.29128" lon="6.16721">
        <ele>2358.25</ele>
        <time>2010-01-23T12:45:14Z</time>
      </trkpt>
      <trkpt lat="45.2913" lon="6.16723">
        <ele>2361.62</ele>
        <time>2010-01-23T12:45:51Z</time>
      </trkpt>
      <trkpt lat="45.29131" lon="6.16722">
        <ele>2363.06</ele>
        <time>2010-01-23T12:46:10Z</time>
      </trkpt>
      <trkpt lat="45.29135" lon="6.16723">
        <ele>2365.94</ele>
        <time>2010-01-23T12:46:54Z</time>
      </trkpt>
      <trkpt lat="45.29136" lon="6.16719">
        <ele>2366.9</ele>
        <time>2010-01-23T12:47:10Z</time>
      </trkpt>
      <trkpt lat="45.29143" lon="6.16719">
        <ele>2370.27</ele>
        <time>2010-01-23T12:47:25Z</time>
      </trkpt>
      <trkpt lat="45.29147" lon="6.16724">
        <ele>2371.23</ele>
        <time>2010-01-23T12:47:35Z</time>
      </trkpt>
      <trkpt lat="45.29149" lon="6.16725">
        <ele>2374.59</ele>
        <time>2010-01-23T12:48:12Z</time>
      </trkpt>
      <trkpt lat="45.29151" lon="6.16722">
        <ele>2377.48</ele>
        <time>2010-01-23T12:48:46Z</time>
      </trkpt>
      <trkpt lat="45.29157" lon="6.16722">
        <ele>2379.88</ele>
        <time>2010-01-23T12:49:17Z</time>
      </trkpt>
      <trkpt lat="45.29157" lon="6.16718">
        <ele>2381.8</ele>
        <time>2010-01-23T12:49:28Z</time>
      </trkpt>
      <trkpt lat="45.29156" lon="6.16715">
        <ele>2383.25</ele>
        <time>2010-01-23T12:49:43Z</time>
      </trkpt>
      <trkpt lat="45.2916" lon="6.16713">
        <ele>2385.17</ele>
        <time>2010-01-23T12:50:02Z</time>
      </trkpt>
      <trkpt lat="45.29163" lon="6.16717">
        <ele>2386.61</ele>
        <time>2010-01-23T12:50:14Z</time>
      </trkpt>
      <trkpt lat="45.29164" lon="6.16723">
        <ele>2389.01</ele>
        <time>2010-01-23T12:50:28Z</time>
      </trkpt>
      <trkpt lat="45.29165" lon="6.16722">
        <ele>2390.94</ele>
        <time>2010-01-23T12:50:55Z</time>
      </trkpt>
      <trkpt lat="45.29167" lon="6.16717">
        <ele>2393.82</ele>
        <time>2010-01-23T12:51:07Z</time>
      </trkpt>
      <trkpt lat="45.29166" lon="6.16716">
        <ele>2393.82</ele>
        <time>2010-01-23T12:51:22Z</time>
      </trkpt>
      <trkpt lat="45.29168" lon="6.16716">
        <ele>2394.3</ele>
        <time>2010-01-23T12:51:31Z</time>
      </trkpt>
      <trkpt lat="45.29171" lon="6.16714">
        <ele>2396.22</ele>
        <time>2010-01-23T12:52:25Z</time>
      </trkpt>
      <trkpt lat="45.29173" lon="6.16723">
        <ele>2396.7</ele>
        <time>2010-01-23T12:52:35Z</time>
      </trkpt>
      <trkpt lat="45.29173" lon="6.16724">
        <ele>2398.15</ele>
        <time>2010-01-23T12:52:52Z</time>
      </trkpt>
      <trkpt lat="45.29176" lon="6.16725">
        <ele>2400.07</ele>
        <time>2010-01-23T12:53:07Z</time>
      </trkpt>
      <trkpt lat="45.29178" lon="6.16723">
        <ele>2401.03</ele>
        <time>2010-01-23T12:53:21Z</time>
      </trkpt>
      <trkpt lat="45.2918" lon="6.16725">
        <ele>2401.99</ele>
        <time>2010-01-23T12:53:40Z</time>
      </trkpt>
      <trkpt lat="45.29182" lon="6.16726">
        <ele>2403.91</ele>
        <time>2010-01-23T12:53:54Z</time>
      </trkpt>
      <trkpt lat="45.29182" lon="6.16727">
        <ele>2405.36</ele>
        <time>2010-01-23T12:54:08Z</time>
      </trkpt>
      <trkpt lat="45.29181" lon="6.16727">
        <ele>2406.32</ele>
        <time>2010-01-23T12:54:20Z</time>
      </trkpt>
      <trkpt lat="45.29182" lon="6.16729">
        <ele>2407.76</ele>
        <time>2010-01-23T12:54:32Z</time>
      </trkpt>
      <trkpt lat="45.29183" lon="6.16731">
        <ele>2408.24</ele>
        <time>2010-01-23T12:54:58Z</time>
      </trkpt>
      <trkpt lat="45.29188" lon="6.1673">
        <ele>2409.2</ele>
        <time>2010-01-23T12:55:10Z</time>
      </trkpt>
      <trkpt lat="45.29187" lon="6.16735">
        <ele>2409.68</ele>
        <time>2010-01-23T12:55:29Z</time>
      </trkpt>
      <trkpt lat="45.29186" lon="6.16735">
        <ele>2412.57</ele>
        <time>2010-01-23T12:55:48Z</time>
      </trkpt>
      <trkpt lat="45.29188" lon="6.16738">
        <ele>2413.05</ele>
        <time>2010-01-23T12:56:06Z</time>
      </trkpt>
      <trkpt lat="45.29187" lon="6.16738">
        <ele>2416.41</ele>
        <time>2010-01-23T12:56:32Z</time>
      </trkpt>
      <trkpt lat="45.29188" lon="6.16737">
        <ele>2416.41</ele>
        <time>2010-01-23T12:56:43Z</time>
      </trkpt>
      <trkpt lat="45.29188" lon="6.16738">
        <ele>2416.89</ele>
        <time>2010-01-23T12:57:00Z</time>
      </trkpt>
      <trkpt lat="45.29187" lon="6.16739">
        <ele>2419.3</ele>
        <time>2010-01-23T12:57:16Z</time>
      </trkpt>
      <trkpt lat="45.29187" lon="6.16742">
        <ele>2419.78</ele>
        <time>2010-01-23T12:57:40Z</time>
      </trkpt>
      <trkpt lat="45.29186" lon="6.16744">
        <ele>2421.7</ele>
        <time>2010-01-23T12:57:54Z</time>
      </trkpt>
      <trkpt lat="45.29185" lon="6.16746">
        <ele>2422.18</ele>
        <time>2010-01-23T12:58:07Z</time>
      </trkpt>
      <trkpt lat="45.29186" lon="6.16745">
        <ele>2424.1</ele>
        <time>2010-01-23T12:58:22Z</time>
      </trkpt>
      <trkpt lat="45.29185" lon="6.16745">
        <ele>2426.02</ele>
        <time>2010-01-23T12:58:35Z</time>
      </trkpt>
      <trkpt lat="45.2919" lon="6.16748">
        <ele>2427.47</ele>
        <time>2010-01-23T12:58:54Z</time>
      </trkpt>
      <trkpt lat="45.29193" lon="6.16746">
        <ele>2428.91</ele>
        <time>2010-01-23T12:59:07Z</time>
      </trkpt>
      <trkpt lat="45.29197" lon="6.16751">
        <ele>2430.35</ele>
        <time>2010-01-23T12:59:18Z</time>
      </trkpt>
      <trkpt lat="45.29199" lon="6.16758">
        <ele>2431.79</ele>
        <time>2010-01-23T12:59:32Z</time>
      </trkpt>
      <trkpt lat="45.29199" lon="6.16757">
        <ele>2434.2</ele>
        <time>2010-01-23T12:59:52Z</time>
      </trkpt>
      <trkpt lat="45.29198" lon="6.16759">
        <ele>2433.23</ele>
        <time>2010-01-23T13:01:33Z</time>
      </trkpt>
      <trkpt lat="45.292" lon="6.1676">
        <ele>2436.12</ele>
        <time>2010-01-23T13:02:08Z</time>
      </trkpt>
      <trkpt lat="45.29202" lon="6.1676">
        <ele>2438.04</ele>
        <time>2010-01-23T13:02:25Z</time>
      </trkpt>
      <trkpt lat="45.29208" lon="6.16763">
        <ele>2440.44</ele>
        <time>2010-01-23T13:02:58Z</time>
      </trkpt>
      <trkpt lat="45.29213" lon="6.16768">
        <ele>2443.33</ele>
        <time>2010-01-23T13:03:24Z</time>
      </trkpt>
      <trkpt lat="45.29218" lon="6.16776">
        <ele>2445.25</ele>
        <time>2010-01-23T13:03:47Z</time>
      </trkpt>
      <trkpt lat="45.29211" lon="6.1677">
        <ele>2447.17</ele>
        <time>2010-01-23T13:04:39Z</time>
      </trkpt>
      <trkpt lat="45.29211" lon="6.1677">
        <ele>2448.62</ele>
        <time>2010-01-23T13:04:57Z</time>
      </trkpt>
      <trkpt lat="45.29211" lon="6.1677">
        <ele>2452.46</ele>
        <time>2010-01-23T13:05:29Z</time>
      </trkpt>
      <trkpt lat="45.29211" lon="6.1677">
        <ele>2448.62</ele>
        <time>2010-01-23T13:05:30Z</time>
      </trkpt>
      <trkpt lat="45.2921" lon="6.1677">
        <ele>2447.17</ele>
        <time>2010-01-23T13:05:36Z</time>
      </trkpt>
      <trkpt lat="45.2921" lon="6.16772">
        <ele>2447.65</ele>
        <time>2010-01-23T13:05:49Z</time>
      </trkpt>
      <trkpt lat="45.29208" lon="6.16777">
        <ele>2447.65</ele>
        <time>2010-01-23T13:05:58Z</time>
      </trkpt>
      <trkpt lat="45.29196" lon="6.16796">
        <ele>2448.62</ele>
        <time>2010-01-23T13:09:59Z</time>
      </trkpt>
      <trkpt lat="45.29189" lon="6.16808">
        <ele>2448.13</ele>
        <time>2010-01-23T13:10:14Z</time>
      </trkpt>
      <trkpt lat="45.29188" lon="6.16823">
        <ele>2448.62</ele>
        <time>2010-01-23T13:10:27Z</time>
      </trkpt>
      <trkpt lat="45.29188" lon="6.16839">
        <ele>2446.69</ele>
        <time>2010-01-23T13:10:39Z</time>
      </trkpt>
      <trkpt lat="45.29193" lon="6.1687">
        <ele>2449.58</ele>
        <time>2010-01-23T13:11:37Z</time>
      </trkpt>
      <trkpt lat="45.292" lon="6.16883">
        <ele>2450.54</ele>
        <time>2010-01-23T13:11:55Z</time>
      </trkpt>
      <trkpt lat="45.29202" lon="6.16886">
        <ele>2450.06</ele>
        <time>2010-01-23T13:12:00Z</time>
      </trkpt>
      <trkpt lat="45.29207" lon="6.16892">
        <ele>2450.06</ele>
        <time>2010-01-23T13:12:15Z</time>
      </trkpt>
      <trkpt lat="45.29208" lon="6.16891">
        <ele>2443.81</ele>
        <time>2010-01-23T13:12:50Z</time>
      </trkpt>
      <trkpt lat="45.29208" lon="6.16891">
        <ele>2450.54</ele>
        <time>2010-01-23T13:12:51Z</time>
      </trkpt>
      <trkpt lat="45.29208" lon="6.16891">
        <ele>2449.58</ele>
        <time>2010-01-23T13:13:23Z</time>
      </trkpt>
      <trkpt lat="45.29212" lon="6.16893">
        <ele>2452.46</ele>
        <time>2010-01-23T13:15:39Z</time>
      </trkpt>
      <trkpt lat="45.29212" lon="6.16894">
        <ele>2455.34</ele>
        <time>2010-01-23T13:16:11Z</time>
      </trkpt>
      <trkpt lat="45.29212" lon="6.16899">
        <ele>2458.71</ele>
        <time>2010-01-23T13:17:07Z</time>
      </trkpt>
      <trkpt lat="45.29213" lon="6.16905">
        <ele>2462.07</ele>
        <time>2010-01-23T13:18:15Z</time>
      </trkpt>
      <trkpt lat="45.29213" lon="6.16905">
        <ele>2464.96</ele>
        <time>2010-01-23T13:19:10Z</time>
      </trkpt>
      <trkpt lat="45.29212" lon="6.16924">
        <ele>2468.32</ele>
        <time>2010-01-23T13:21:08Z</time>
      </trkpt>
      <trkpt lat="45.29211" lon="6.16934">
        <ele>2469.28</ele>
        <time>2010-01-23T13:21:19Z</time>
      </trkpt>
      <trkpt lat="45.29216" lon="6.16943">
        <ele>2471.69</ele>
        <time>2010-01-23T13:21:37Z</time>
      </trkpt>
      <trkpt lat="45.29218" lon="6.16944">
        <ele>2473.61</ele>
        <time>2010-01-23T13:21:43Z</time>
      </trkpt>
      <trkpt lat="45.29219" lon="6.16955">
        <ele>2475.05</ele>
        <time>2010-01-23T13:21:59Z</time>
      </trkpt>
      <trkpt lat="45.29217" lon="6.16961">
        <ele>2476.01</ele>
        <time>2010-01-23T13:22:11Z</time>
      </trkpt>
      <trkpt lat="45.29224" lon="6.16971">
        <ele>2475.53</ele>
        <time>2010-01-23T13:22:34Z</time>
      </trkpt>
      <trkpt lat="45.29225" lon="6.16979">
        <ele>2476.01</ele>
        <time>2010-01-23T13:22:39Z</time>
      </trkpt>
      <trkpt lat="45.29223" lon="6.16995">
        <ele>2476.49</ele>
        <time>2010-01-23T13:22:52Z</time>
      </trkpt>
      <trkpt lat="45.29218" lon="6.17007">
        <ele>2478.42</ele>
        <time>2010-01-23T13:23:05Z</time>
      </trkpt>
      <trkpt lat="45.29215" lon="6.17016">
        <ele>2479.86</ele>
        <time>2010-01-23T13:23:23Z</time>
      </trkpt>
      <trkpt lat="45.29224" lon="6.17014">
        <ele>2482.26</ele>
        <time>2010-01-23T13:23:53Z</time>
      </trkpt>
      <trkpt lat="45.29225" lon="6.17023">
        <ele>2483.7</ele>
        <time>2010-01-23T13:24:06Z</time>
      </trkpt>
      <trkpt lat="45.29227" lon="6.17027">
        <ele>2484.18</ele>
        <time>2010-01-23T13:24:25Z</time>
      </trkpt>
      <trkpt lat="45.29227" lon="6.17032">
        <ele>2486.11</ele>
        <time>2010-01-23T13:24:55Z</time>
      </trkpt>
      <trkpt lat="45.29226" lon="6.17037">
        <ele>2488.51</ele>
        <time>2010-01-23T13:25:59Z</time>
      </trkpt>
      <trkpt lat="45.29225" lon="6.17042">
        <ele>2491.87</ele>
        <time>2010-01-23T13:28:09Z</time>
      </trkpt>
      <trkpt lat="45.29228" lon="6.17048">
        <ele>2493.8</ele>
        <time>2010-01-23T13:28:33Z</time>
      </trkpt>
      <trkpt lat="45.29225" lon="6.17051">
        <ele>2494.76</ele>
        <time>2010-01-23T13:28:56Z</time>
      </trkpt>
      <trkpt lat="45.29224" lon="6.17051">
        <ele>2495.72</ele>
        <time>2010-01-23T13:29:31Z</time>
      </trkpt>
      <trkpt lat="45.29224" lon="6.17055">
        <ele>2499.08</ele>
        <time>2010-01-23T13:30:07Z</time>
      </trkpt>
      <trkpt lat="45.29221" lon="6.1706">
        <ele>2500.53</ele>
        <time>2010-01-23T13:30:29Z</time>
      </trkpt>
      <trkpt lat="45.29218" lon="6.17069">
        <ele>2502.93</ele>
        <time>2010-01-23T13:31:27Z</time>
      </trkpt>
      <trkpt lat="45.29216" lon="6.17082">
        <ele>2505.33</ele>
        <time>2010-01-23T13:31:41Z</time>
      </trkpt>
      <trkpt lat="45.29219" lon="6.17094">
        <ele>2505.81</ele>
        <time>2010-01-23T13:31:54Z</time>
      </trkpt>
      <trkpt lat="45.29218" lon="6.17107">
        <ele>2504.85</ele>
        <time>2010-01-23T13:32:03Z</time>
      </trkpt>
      <trkpt lat="45.29226" lon="6.1712">
        <ele>2505.33</ele>
        <time>2010-01-23T13:32:20Z</time>
      </trkpt>
      <trkpt lat="45.29227" lon="6.17123">
        <ele>2506.77</ele>
        <time>2010-01-23T13:32:36Z</time>
      </trkpt>
      <trkpt lat="45.29225" lon="6.17128">
        <ele>2507.74</ele>
        <time>2010-01-23T13:32:48Z</time>
      </trkpt>
      <trkpt lat="45.29222" lon="6.17138">
        <ele>2509.66</ele>
        <time>2010-01-23T13:33:03Z</time>
      </trkpt>
      <trkpt lat="45.29222" lon="6.17143">
        <ele>2511.1</ele>
        <time>2010-01-23T13:33:17Z</time>
      </trkpt>
      <trkpt lat="45.29223" lon="6.17146">
        <ele>2511.58</ele>
        <time>2010-01-23T13:33:42Z</time>
      </trkpt>
      <trkpt lat="45.29224" lon="6.17144">
        <ele>2514.95</ele>
        <time>2010-01-23T13:34:21Z</time>
      </trkpt>
      <trkpt lat="45.29225" lon="6.17146">
        <ele>2515.43</ele>
        <time>2010-01-23T13:34:45Z</time>
      </trkpt>
      <trkpt lat="45.29225" lon="6.17153">
        <ele>2514.47</ele>
        <time>2010-01-23T13:34:52Z</time>
      </trkpt>
      <trkpt lat="45.29227" lon="6.17168">
        <ele>2512.06</ele>
        <time>2010-01-23T13:34:57Z</time>
      </trkpt>
      <trkpt lat="45.29227" lon="6.1717">
        <ele>2512.06</ele>
        <time>2010-01-23T13:34:58Z</time>
      </trkpt>
      <trkpt lat="45.2923" lon="6.17176">
        <ele>2510.62</ele>
        <time>2010-01-23T13:35:01Z</time>
      </trkpt>
      <trkpt lat="45.29242" lon="6.17194">
        <ele>2508.22</ele>
        <time>2010-01-23T13:35:10Z</time>
      </trkpt>
      <trkpt lat="45.2925" lon="6.17207">
        <ele>2509.18</ele>
        <time>2010-01-23T13:35:24Z</time>
      </trkpt>
      <trkpt lat="45.29253" lon="6.1722">
        <ele>2507.26</ele>
        <time>2010-01-23T13:35:37Z</time>
      </trkpt>
      <trkpt lat="45.29253" lon="6.17221">
        <ele>2507.26</ele>
        <time>2010-01-23T13:35:42Z</time>
      </trkpt>
      <trkpt lat="45.29245" lon="6.17228">
        <ele>2507.26</ele>
        <time>2010-01-23T13:35:55Z</time>
      </trkpt>
      <trkpt lat="45.29248" lon="6.17224">
        <ele>2506.77</ele>
        <time>2010-01-23T13:36:08Z</time>
      </trkpt>
      <trkpt lat="45.29253" lon="6.17221">
        <ele>2504.85</ele>
        <time>2010-01-23T13:36:24Z</time>
      </trkpt>
      <trkpt lat="45.29253" lon="6.17221">
        <ele>2510.62</ele>
        <time>2010-01-23T13:37:00Z</time>
      </trkpt>
      <trkpt lat="45.29252" lon="6.1722">
        <ele>2507.26</ele>
        <time>2010-01-23T13:37:02Z</time>
      </trkpt>
      <trkpt lat="45.29252" lon="6.1722">
        <ele>2507.26</ele>
        <time>2010-01-23T13:37:35Z</time>
      </trkpt>
      <trkpt lat="45.29252" lon="6.1722">
        <ele>2510.62</ele>
        <time>2010-01-23T13:47:38Z</time>
      </trkpt>
      <trkpt lat="45.29252" lon="6.1722">
        <ele>2507.26</ele>
        <time>2010-01-23T13:47:39Z</time>
      </trkpt>
      <trkpt lat="45.29255" lon="6.1722">
        <ele>2507.26</ele>
        <time>2010-01-23T13:50:43Z</time>
      </trkpt>
      <trkpt lat="45.29256" lon="6.17225">
        <ele>2505.81</ele>
        <time>2010-01-23T13:51:02Z</time>
      </trkpt>
      <trkpt lat="45.29258" lon="6.17226">
        <ele>2503.89</ele>
        <time>2010-01-23T13:51:08Z</time>
      </trkpt>
      <trkpt lat="45.29261" lon="6.17228">
        <ele>2501.49</ele>
        <time>2010-01-23T13:51:13Z</time>
      </trkpt>
      <trkpt lat="45.29267" lon="6.17232">
        <ele>2497.16</ele>
        <time>2010-01-23T13:51:17Z</time>
      </trkpt>
      <trkpt lat="45.29268" lon="6.17232">
        <ele>2497.16</ele>
        <time>2010-01-23T13:51:18Z</time>
      </trkpt>
      <trkpt lat="45.29269" lon="6.17234">
        <ele>2495.72</ele>
        <time>2010-01-23T13:51:42Z</time>
      </trkpt>
      <trkpt lat="45.2927" lon="6.17242">
        <ele>2492.84</ele>
        <time>2010-01-23T13:55:01Z</time>
      </trkpt>
      <trkpt lat="45.2927" lon="6.17245">
        <ele>2490.43</ele>
        <time>2010-01-23T13:55:09Z</time>
      </trkpt>
      <trkpt lat="45.29264" lon="6.17256">
        <ele>2486.59</ele>
        <time>2010-01-23T13:55:38Z</time>
      </trkpt>
      <trkpt lat="45.29269" lon="6.1726">
        <ele>2483.22</ele>
        <time>2010-01-23T13:55:57Z</time>
      </trkpt>
      <trkpt lat="45.29269" lon="6.17261">
        <ele>2482.26</ele>
        <time>2010-01-23T13:56:01Z</time>
      </trkpt>
      <trkpt lat="45.29274" lon="6.17259">
        <ele>2478.9</ele>
        <time>2010-01-23T13:56:05Z</time>
      </trkpt>
      <trkpt lat="45.29274" lon="6.17259">
        <ele>2475.53</ele>
        <time>2010-01-23T13:56:08Z</time>
      </trkpt>
      <trkpt lat="45.29277" lon="6.17262">
        <ele>2474.09</ele>
        <time>2010-01-23T13:56:09Z</time>
      </trkpt>
      <trkpt lat="45.29281" lon="6.17265">
        <ele>2474.09</ele>
        <time>2010-01-23T13:56:10Z</time>
      </trkpt>
      <trkpt lat="45.29287" lon="6.17271">
        <ele>2472.17</ele>
        <time>2010-01-23T13:56:19Z</time>
      </trkpt>
      <trkpt lat="45.29296" lon="6.17277">
        <ele>2467.84</ele>
        <time>2010-01-23T13:56:23Z</time>
      </trkpt>
      <trkpt lat="45.29297" lon="6.17278">
        <ele>2466.88</ele>
        <time>2010-01-23T13:56:25Z</time>
      </trkpt>
      <trkpt lat="45.29295" lon="6.1728">
        <ele>2464.48</ele>
        <time>2010-01-23T13:56:30Z</time>
      </trkpt>
      <trkpt lat="45.29293" lon="6.17286">
        <ele>2461.11</ele>
        <time>2010-01-23T13:56:33Z</time>
      </trkpt>
      <trkpt lat="45.29291" lon="6.17289">
        <ele>2459.19</ele>
        <time>2010-01-23T13:56:35Z</time>
      </trkpt>
      <trkpt lat="45.29291" lon="6.17289">
        <ele>2458.71</ele>
        <time>2010-01-23T13:56:38Z</time>
      </trkpt>
      <trkpt lat="45.29283" lon="6.17295">
        <ele>2451.98</ele>
        <time>2010-01-23T13:56:41Z</time>
      </trkpt>
      <trkpt lat="45.2928" lon="6.17298">
        <ele>2450.54</ele>
        <time>2010-01-23T13:56:42Z</time>
      </trkpt>
      <trkpt lat="45.29272" lon="6.17309">
        <ele>2445.73</ele>
        <time>2010-01-23T13:56:45Z</time>
      </trkpt>
      <trkpt lat="45.2927" lon="6.17313">
        <ele>2443.81</ele>
        <time>2010-01-23T13:56:46Z</time>
      </trkpt>
      <trkpt lat="45.29267" lon="6.17321">
        <ele>2438.04</ele>
        <time>2010-01-23T13:56:48Z</time>
      </trkpt>
      <trkpt lat="45.29266" lon="6.17325">
        <ele>2435.64</ele>
        <time>2010-01-23T13:56:49Z</time>
      </trkpt>
      <trkpt lat="45.2927" lon="6.1734">
        <ele>2426.99</ele>
        <time>2010-01-23T13:56:52Z</time>
      </trkpt>
      <trkpt lat="45.29271" lon="6.17344">
        <ele>2424.58</ele>
        <time>2010-01-23T13:56:53Z</time>
      </trkpt>
      <trkpt lat="45.29275" lon="6.17348">
        <ele>2419.78</ele>
        <time>2010-01-23T13:56:54Z</time>
      </trkpt>
      <trkpt lat="45.29282" lon="6.17362">
        <ele>2414.97</ele>
        <time>2010-01-23T13:56:57Z</time>
      </trkpt>
      <trkpt lat="45.29288" lon="6.17372">
        <ele>2409.68</ele>
        <time>2010-01-23T13:56:59Z</time>
      </trkpt>
      <trkpt lat="45.29285" lon="6.17383">
        <ele>2404.88</ele>
        <time>2010-01-23T13:57:01Z</time>
      </trkpt>
      <trkpt lat="45.29284" lon="6.17392">
        <ele>2400.07</ele>
        <time>2010-01-23T13:57:04Z</time>
      </trkpt>
      <trkpt lat="45.29284" lon="6.17393">
        <ele>2400.55</ele>
        <time>2010-01-23T13:57:05Z</time>
      </trkpt>
      <trkpt lat="45.29286" lon="6.17406">
        <ele>2396.22</ele>
        <time>2010-01-23T13:57:32Z</time>
      </trkpt>
      <trkpt lat="45.29288" lon="6.17412">
        <ele>2392.38</ele>
        <time>2010-01-23T13:57:33Z</time>
      </trkpt>
      <trkpt lat="45.29288" lon="6.17418">
        <ele>2387.09</ele>
        <time>2010-01-23T13:57:34Z</time>
      </trkpt>
      <trkpt lat="45.29288" lon="6.17426">
        <ele>2387.09</ele>
        <time>2010-01-23T13:57:35Z</time>
      </trkpt>
      <trkpt lat="45.29292" lon="6.17444">
        <ele>2380.36</ele>
        <time>2010-01-23T13:57:37Z</time>
      </trkpt>
      <trkpt lat="45.29295" lon="6.17462">
        <ele>2373.63</ele>
        <time>2010-01-23T13:57:39Z</time>
      </trkpt>
      <trkpt lat="45.29302" lon="6.17474">
        <ele>2369.31</ele>
        <time>2010-01-23T13:57:41Z</time>
      </trkpt>
      <trkpt lat="45.29302" lon="6.1748">
        <ele>2365.46</ele>
        <time>2010-01-23T13:57:42Z</time>
      </trkpt>
      <trkpt lat="45.29301" lon="6.17501">
        <ele>2357.29</ele>
        <time>2010-01-23T13:57:45Z</time>
      </trkpt>
      <trkpt lat="45.293" lon="6.17507">
        <ele>2353.93</ele>
        <time>2010-01-23T13:57:46Z</time>
      </trkpt>
      <trkpt lat="45.29301" lon="6.17512">
        <ele>2350.08</ele>
        <time>2010-01-23T13:57:47Z</time>
      </trkpt>
      <trkpt lat="45.29306" lon="6.17517">
        <ele>2345.75</ele>
        <time>2010-01-23T13:57:49Z</time>
      </trkpt>
      <trkpt lat="45.29305" lon="6.1753">
        <ele>2338.54</ele>
        <time>2010-01-23T13:57:51Z</time>
      </trkpt>
      <trkpt lat="45.29305" lon="6.17538">
        <ele>2334.22</ele>
        <time>2010-01-23T13:57:52Z</time>
      </trkpt>
      <trkpt lat="45.29306" lon="6.17546">
        <ele>2330.37</ele>
        <time>2010-01-23T13:57:53Z</time>
      </trkpt>
      <trkpt lat="45.29316" lon="6.17576">
        <ele>2320.76</ele>
        <time>2010-01-23T13:57:56Z</time>
      </trkpt>
      <trkpt lat="45.29319" lon="6.17596">
        <ele>2314.03</ele>
        <time>2010-01-23T13:57:58Z</time>
      </trkpt>
      <trkpt lat="45.29326" lon="6.17613">
        <ele>2311.63</ele>
        <time>2010-01-23T13:58:01Z</time>
      </trkpt>
      <trkpt lat="45.29329" lon="6.17618">
        <ele>2310.19</ele>
        <time>2010-01-23T13:58:03Z</time>
      </trkpt>
      <trkpt lat="45.29336" lon="6.176">
        <ele>2310.67</ele>
        <time>2010-01-23T13:58:31Z</time>
      </trkpt>
      <trkpt lat="45.29331" lon="6.17593">
        <ele>2309.7</ele>
        <time>2010-01-23T13:58:39Z</time>
      </trkpt>
      <trkpt lat="45.29336" lon="6.17614">
        <ele>2307.78</ele>
        <time>2010-01-23T13:58:43Z</time>
      </trkpt>
      <trkpt lat="45.29336" lon="6.17634">
        <ele>2300.57</ele>
        <time>2010-01-23T13:58:46Z</time>
      </trkpt>
      <trkpt lat="45.29348" lon="6.17652">
        <ele>2291.92</ele>
        <time>2010-01-23T13:58:49Z</time>
      </trkpt>
      <trkpt lat="45.29356" lon="6.17667">
        <ele>2286.15</ele>
        <time>2010-01-23T13:58:51Z</time>
      </trkpt>
      <trkpt lat="45.2936" lon="6.17675">
        <ele>2283.27</ele>
        <time>2010-01-23T13:58:52Z</time>
      </trkpt>
      <trkpt lat="45.29364" lon="6.17678">
        <ele>2279.9</ele>
        <time>2010-01-23T13:58:53Z</time>
      </trkpt>
      <trkpt lat="45.29373" lon="6.17684">
        <ele>2276.54</ele>
        <time>2010-01-23T13:58:55Z</time>
      </trkpt>
      <trkpt lat="45.29378" lon="6.17684">
        <ele>2273.17</ele>
        <time>2010-01-23T13:58:56Z</time>
      </trkpt>
      <trkpt lat="45.29385" lon="6.1769">
        <ele>2267.89</ele>
        <time>2010-01-23T13:58:58Z</time>
      </trkpt>
      <trkpt lat="45.29387" lon="6.17702">
        <ele>2264.04</ele>
        <time>2010-01-23T13:59:00Z</time>
      </trkpt>
      <trkpt lat="45.29391" lon="6.17708">
        <ele>2258.27</ele>
        <time>2010-01-23T13:59:02Z</time>
      </trkpt>
      <trkpt lat="45.29394" lon="6.17708">
        <ele>2253.95</ele>
        <time>2010-01-23T13:59:03Z</time>
      </trkpt>
      <trkpt lat="45.29407" lon="6.17712">
        <ele>2246.26</ele>
        <time>2010-01-23T13:59:06Z</time>
      </trkpt>
      <trkpt lat="45.29411" lon="6.17717">
        <ele>2241.93</ele>
        <time>2010-01-23T13:59:07Z</time>
      </trkpt>
      <trkpt lat="45.29417" lon="6.17731">
        <ele>2238.09</ele>
        <time>2010-01-23T13:59:09Z</time>
      </trkpt>
      <trkpt lat="45.29417" lon="6.17741">
        <ele>2237.13</ele>
        <time>2010-01-23T13:59:11Z</time>
      </trkpt>
      <trkpt lat="45.29417" lon="6.17743">
        <ele>2231.36</ele>
        <time>2010-01-23T13:59:13Z</time>
      </trkpt>
      <trkpt lat="45.29418" lon="6.17744">
        <ele>2229.92</ele>
        <time>2010-01-23T13:59:14Z</time>
      </trkpt>
      <trkpt lat="45.29419" lon="6.17763">
        <ele>2223.67</ele>
        <time>2010-01-23T13:59:17Z</time>
      </trkpt>
      <trkpt lat="45.29419" lon="6.17772">
        <ele>2220.78</ele>
        <time>2010-01-23T13:59:19Z</time>
      </trkpt>
      <trkpt lat="45.29417" lon="6.17785">
        <ele>2215.5</ele>
        <time>2010-01-23T13:59:24Z</time>
      </trkpt>
      <trkpt lat="45.29418" lon="6.17788">
        <ele>2214.53</ele>
        <time>2010-01-23T13:59:25Z</time>
      </trkpt>
      <trkpt lat="45.29424" lon="6.17792">
        <ele>2213.57</ele>
        <time>2010-01-23T13:59:29Z</time>
      </trkpt>
      <trkpt lat="45.29425" lon="6.17806">
        <ele>2207.32</ele>
        <time>2010-01-23T13:59:32Z</time>
      </trkpt>
      <trkpt lat="45.29424" lon="6.17822">
        <ele>2203</ele>
        <time>2010-01-23T13:59:34Z</time>
      </trkpt>
      <trkpt lat="45.29424" lon="6.17829">
        <ele>2203</ele>
        <time>2010-01-23T13:59:35Z</time>
      </trkpt>
      <trkpt lat="45.29418" lon="6.17858">
        <ele>2197.23</ele>
        <time>2010-01-23T13:59:39Z</time>
      </trkpt>
      <trkpt lat="45.29414" lon="6.17872">
        <ele>2196.27</ele>
        <time>2010-01-23T13:59:41Z</time>
      </trkpt>
      <trkpt lat="45.29411" lon="6.17889">
        <ele>2191.94</ele>
        <time>2010-01-23T13:59:43Z</time>
      </trkpt>
      <trkpt lat="45.29414" lon="6.17912">
        <ele>2188.1</ele>
        <time>2010-01-23T13:59:46Z</time>
      </trkpt>
      <trkpt lat="45.29424" lon="6.17933">
        <ele>2184.73</ele>
        <time>2010-01-23T13:59:51Z</time>
      </trkpt>
      <trkpt lat="45.29459" lon="6.17941">
        <ele>2180.89</ele>
        <time>2010-01-23T14:00:53Z</time>
      </trkpt>
      <trkpt lat="45.29459" lon="6.17954">
        <ele>2177.52</ele>
        <time>2010-01-23T14:00:55Z</time>
      </trkpt>
      <trkpt lat="45.29459" lon="6.17974">
        <ele>2173.2</ele>
        <time>2010-01-23T14:00:58Z</time>
      </trkpt>
      <trkpt lat="45.2946" lon="6.17978">
        <ele>2173.68</ele>
        <time>2010-01-23T14:00:59Z</time>
      </trkpt>
      <trkpt lat="45.29459" lon="6.17982">
        <ele>2172.24</ele>
        <time>2010-01-23T14:01:00Z</time>
      </trkpt>
      <trkpt lat="45.29462" lon="6.17991">
        <ele>2165.51</ele>
        <time>2010-01-23T14:01:03Z</time>
      </trkpt>
      <trkpt lat="45.29463" lon="6.17998">
        <ele>2162.14</ele>
        <time>2010-01-23T14:01:04Z</time>
      </trkpt>
      <trkpt lat="45.29463" lon="6.18009">
        <ele>2156.86</ele>
        <time>2010-01-23T14:01:05Z</time>
      </trkpt>
      <trkpt lat="45.29466" lon="6.18044">
        <ele>2150.61</ele>
        <time>2010-01-23T14:01:08Z</time>
      </trkpt>
      <trkpt lat="45.29469" lon="6.18054">
        <ele>2151.57</ele>
        <time>2010-01-23T14:01:14Z</time>
      </trkpt>
      <trkpt lat="45.29465" lon="6.18063">
        <ele>2148.68</ele>
        <time>2010-01-23T14:01:41Z</time>
      </trkpt>
      <trkpt lat="45.29474" lon="6.18067">
        <ele>2141.95</ele>
        <time>2010-01-23T14:01:44Z</time>
      </trkpt>
      <trkpt lat="45.29484" lon="6.18071">
        <ele>2136.67</ele>
        <time>2010-01-23T14:01:46Z</time>
      </trkpt>
      <trkpt lat="45.2949" lon="6.18072">
        <ele>2132.82</ele>
        <time>2010-01-23T14:01:47Z</time>
      </trkpt>
      <trkpt lat="45.29502" lon="6.18078">
        <ele>2128.02</ele>
        <time>2010-01-23T14:01:49Z</time>
      </trkpt>
      <trkpt lat="45.29513" lon="6.18084">
        <ele>2124.65</ele>
        <time>2010-01-23T14:01:51Z</time>
      </trkpt>
      <trkpt lat="45.2952" lon="6.18085">
        <ele>2123.21</ele>
        <time>2010-01-23T14:02:11Z</time>
      </trkpt>
      <trkpt lat="45.2952" lon="6.18085">
        <ele>2122.73</ele>
        <time>2010-01-23T14:03:44Z</time>
      </trkpt>
      <trkpt lat="45.29521" lon="6.18094">
        <ele>2119.36</ele>
        <time>2010-01-23T14:03:47Z</time>
      </trkpt>
      <trkpt lat="45.29521" lon="6.18102">
        <ele>2114.56</ele>
        <time>2010-01-23T14:03:49Z</time>
      </trkpt>
      <trkpt lat="45.29522" lon="6.18106">
        <ele>2111.19</ele>
        <time>2010-01-23T14:03:50Z</time>
      </trkpt>
      <trkpt lat="45.29521" lon="6.18116">
        <ele>2107.35</ele>
        <time>2010-01-23T14:03:52Z</time>
      </trkpt>
      <trkpt lat="45.29518" lon="6.18139">
        <ele>2096.29</ele>
        <time>2010-01-23T14:03:56Z</time>
      </trkpt>
      <trkpt lat="45.29518" lon="6.18145">
        <ele>2092.93</ele>
        <time>2010-01-23T14:03:57Z</time>
      </trkpt>
      <trkpt lat="45.29524" lon="6.18157">
        <ele>2088.6</ele>
        <time>2010-01-23T14:03:59Z</time>
      </trkpt>
      <trkpt lat="45.2953" lon="6.18165">
        <ele>2080.43</ele>
        <time>2010-01-23T14:04:02Z</time>
      </trkpt>
      <trkpt lat="45.29533" lon="6.18168">
        <ele>2077.07</ele>
        <time>2010-01-23T14:04:03Z</time>
      </trkpt>
      <trkpt lat="45.29534" lon="6.18171">
        <ele>2077.07</ele>
        <time>2010-01-23T14:04:04Z</time>
      </trkpt>
      <trkpt lat="45.29541" lon="6.18185">
        <ele>2074.18</ele>
        <time>2010-01-23T14:04:08Z</time>
      </trkpt>
      <trkpt lat="45.29545" lon="6.18185">
        <ele>2070.34</ele>
        <time>2010-01-23T14:04:27Z</time>
      </trkpt>
      <trkpt lat="45.2955" lon="6.18186">
        <ele>2065.53</ele>
        <time>2010-01-23T14:04:29Z</time>
      </trkpt>
      <trkpt lat="45.29552" lon="6.1819">
        <ele>2065.53</ele>
        <time>2010-01-23T14:04:30Z</time>
      </trkpt>
      <trkpt lat="45.29556" lon="6.18199">
        <ele>2061.2</ele>
        <time>2010-01-23T14:04:32Z</time>
      </trkpt>
      <trkpt lat="45.29561" lon="6.18205">
        <ele>2059.28</ele>
        <time>2010-01-23T14:04:34Z</time>
      </trkpt>
      <trkpt lat="45.2956" lon="6.18215">
        <ele>2057.36</ele>
        <time>2010-01-23T14:04:36Z</time>
      </trkpt>
      <trkpt lat="45.29559" lon="6.18221">
        <ele>2054.47</ele>
        <time>2010-01-23T14:04:37Z</time>
      </trkpt>
      <trkpt lat="45.29555" lon="6.18233">
        <ele>2051.59</ele>
        <time>2010-01-23T14:04:39Z</time>
      </trkpt>
      <trkpt lat="45.29546" lon="6.18236">
        <ele>2051.11</ele>
        <time>2010-01-23T14:04:44Z</time>
      </trkpt>
      <trkpt lat="45.29527" lon="6.18235">
        <ele>2051.11</ele>
        <time>2010-01-23T14:05:05Z</time>
      </trkpt>
      <trkpt lat="45.29533" lon="6.1823">
        <ele>2050.63</ele>
        <time>2010-01-23T14:06:43Z</time>
      </trkpt>
      <trkpt lat="45.2954" lon="6.18228">
        <ele>2046.78</ele>
        <time>2010-01-23T14:06:45Z</time>
      </trkpt>
      <trkpt lat="45.29577" lon="6.18213">
        <ele>2044.38</ele>
        <time>2010-01-23T14:07:00Z</time>
      </trkpt>
      <trkpt lat="45.29576" lon="6.18213">
        <ele>2044.38</ele>
        <time>2010-01-23T14:07:34Z</time>
      </trkpt>
      <trkpt lat="45.29576" lon="6.18215">
        <ele>2041.98</ele>
        <time>2010-01-23T14:07:37Z</time>
      </trkpt>
      <trkpt lat="45.29576" lon="6.18218">
        <ele>2039.09</ele>
        <time>2010-01-23T14:07:38Z</time>
      </trkpt>
      <trkpt lat="45.2957" lon="6.18226">
        <ele>2034.29</ele>
        <time>2010-01-23T14:07:49Z</time>
      </trkpt>
      <trkpt lat="45.29572" lon="6.18226">
        <ele>2029.96</ele>
        <time>2010-01-23T14:08:04Z</time>
      </trkpt>
      <trkpt lat="45.29571" lon="6.18227">
        <ele>2029</ele>
        <time>2010-01-23T14:08:05Z</time>
      </trkpt>
      <trkpt lat="45.29574" lon="6.1824">
        <ele>2024.19</ele>
        <time>2010-01-23T14:08:11Z</time>
      </trkpt>
      <trkpt lat="45.29579" lon="6.18242">
        <ele>2020.35</ele>
        <time>2010-01-23T14:08:15Z</time>
      </trkpt>
      <trkpt lat="45.2958" lon="6.1824">
        <ele>2017.94</ele>
        <time>2010-01-23T14:08:19Z</time>
      </trkpt>
      <trkpt lat="45.29582" lon="6.18246">
        <ele>2013.62</ele>
        <time>2010-01-23T14:08:22Z</time>
      </trkpt>
      <trkpt lat="45.29584" lon="6.18248">
        <ele>2011.7</ele>
        <time>2010-01-23T14:08:24Z</time>
      </trkpt>
      <trkpt lat="45.29587" lon="6.18249">
        <ele>2010.25</ele>
        <time>2010-01-23T14:08:28Z</time>
      </trkpt>
      <trkpt lat="45.29587" lon="6.18253">
        <ele>2006.41</ele>
        <time>2010-01-23T14:08:31Z</time>
      </trkpt>
      <trkpt lat="45.29588" lon="6.18254">
        <ele>2003.04</ele>
        <time>2010-01-23T14:08:33Z</time>
      </trkpt>
      <trkpt lat="45.2959" lon="6.18266">
        <ele>1997.28</ele>
        <time>2010-01-23T14:08:50Z</time>
      </trkpt>
      <trkpt lat="45.29592" lon="6.18276">
        <ele>1993.91</ele>
        <time>2010-01-23T14:08:52Z</time>
      </trkpt>
      <trkpt lat="45.29594" lon="6.18281">
        <ele>1990.07</ele>
        <time>2010-01-23T14:08:53Z</time>
      </trkpt>
      <trkpt lat="45.29596" lon="6.18285">
        <ele>1987.18</ele>
        <time>2010-01-23T14:08:54Z</time>
      </trkpt>
      <trkpt lat="45.29601" lon="6.18293">
        <ele>1985.26</ele>
        <time>2010-01-23T14:09:03Z</time>
      </trkpt>
      <trkpt lat="45.29601" lon="6.18293">
        <ele>1985.26</ele>
        <time>2010-01-23T14:09:07Z</time>
      </trkpt>
      <trkpt lat="45.29601" lon="6.18303">
        <ele>1979.97</ele>
        <time>2010-01-23T14:09:11Z</time>
      </trkpt>
      <trkpt lat="45.296" lon="6.1831">
        <ele>1976.61</ele>
        <time>2010-01-23T14:09:13Z</time>
      </trkpt>
      <trkpt lat="45.29599" lon="6.18315">
        <ele>1972.28</ele>
        <time>2010-01-23T14:09:15Z</time>
      </trkpt>
      <trkpt lat="45.29599" lon="6.18315">
        <ele>1969.88</ele>
        <time>2010-01-23T14:09:18Z</time>
      </trkpt>
      <trkpt lat="45.296" lon="6.18321">
        <ele>1966.99</ele>
        <time>2010-01-23T14:09:28Z</time>
      </trkpt>
      <trkpt lat="45.29603" lon="6.18325">
        <ele>1962.67</ele>
        <time>2010-01-23T14:09:30Z</time>
      </trkpt>
      <trkpt lat="45.29605" lon="6.18331">
        <ele>1960.27</ele>
        <time>2010-01-23T14:09:32Z</time>
      </trkpt>
      <trkpt lat="45.29604" lon="6.18339">
        <ele>1956.42</ele>
        <time>2010-01-23T14:09:34Z</time>
      </trkpt>
      <trkpt lat="45.29604" lon="6.18351">
        <ele>1952.09</ele>
        <time>2010-01-23T14:09:39Z</time>
      </trkpt>
      <trkpt lat="45.29605" lon="6.18357">
        <ele>1946.81</ele>
        <time>2010-01-23T14:09:40Z</time>
      </trkpt>
      <trkpt lat="45.29605" lon="6.18363">
        <ele>1943.92</ele>
        <time>2010-01-23T14:09:41Z</time>
      </trkpt>
      <trkpt lat="45.29606" lon="6.18372">
        <ele>1944.4</ele>
        <time>2010-01-23T14:09:42Z</time>
      </trkpt>
      <trkpt lat="45.29608" lon="6.18392">
        <ele>1943.44</ele>
        <time>2010-01-23T14:10:00Z</time>
      </trkpt>
      <trkpt lat="45.29582" lon="6.18401">
        <ele>1944.4</ele>
        <time>2010-01-23T14:10:14Z</time>
      </trkpt>
      <trkpt lat="45.2958" lon="6.18402">
        <ele>1942.96</ele>
        <time>2010-01-23T14:10:15Z</time>
      </trkpt>
      <trkpt lat="45.29578" lon="6.18403">
        <ele>1940.08</ele>
        <time>2010-01-23T14:10:16Z</time>
      </trkpt>
      <trkpt lat="45.29577" lon="6.18405">
        <ele>1940.08</ele>
        <time>2010-01-23T14:10:17Z</time>
      </trkpt>
      <trkpt lat="45.29577" lon="6.18407">
        <ele>1937.67</ele>
        <time>2010-01-23T14:10:18Z</time>
      </trkpt>
      <trkpt lat="45.29576" lon="6.18408">
        <ele>1934.31</ele>
        <time>2010-01-23T14:10:19Z</time>
      </trkpt>
      <trkpt lat="45.29575" lon="6.1841">
        <ele>1932.87</ele>
        <time>2010-01-23T14:10:20Z</time>
      </trkpt>
      <trkpt lat="45.29574" lon="6.18412">
        <ele>1928.06</ele>
        <time>2010-01-23T14:10:21Z</time>
      </trkpt>
      <trkpt lat="45.29573" lon="6.18415">
        <ele>1926.14</ele>
        <time>2010-01-23T14:10:22Z</time>
      </trkpt>
      <trkpt lat="45.29571" lon="6.1842">
        <ele>1923.74</ele>
        <time>2010-01-23T14:10:23Z</time>
      </trkpt>
      <trkpt lat="45.29569" lon="6.18425">
        <ele>1921.33</ele>
        <time>2010-01-23T14:10:24Z</time>
      </trkpt>
      <trkpt lat="45.29568" lon="6.1843">
        <ele>1918.93</ele>
        <time>2010-01-23T14:10:25Z</time>
      </trkpt>
      <trkpt lat="45.29567" lon="6.18434">
        <ele>1915.56</ele>
        <time>2010-01-23T14:10:26Z</time>
      </trkpt>
      <trkpt lat="45.29566" lon="6.18438">
        <ele>1913.64</ele>
        <time>2010-01-23T14:10:27Z</time>
      </trkpt>
      <trkpt lat="45.29565" lon="6.18442">
        <ele>1910.76</ele>
        <time>2010-01-23T14:10:28Z</time>
      </trkpt>
      <trkpt lat="45.29564" lon="6.18447">
        <ele>1907.39</ele>
        <time>2010-01-23T14:10:29Z</time>
      </trkpt>
      <trkpt lat="45.29562" lon="6.18452">
        <ele>1904.51</ele>
        <time>2010-01-23T14:10:30Z</time>
      </trkpt>
      <trkpt lat="45.29559" lon="6.18459">
        <ele>1899.7</ele>
        <time>2010-01-23T14:10:31Z</time>
      </trkpt>
      <trkpt lat="45.29598" lon="6.1847">
        <ele>1894.42</ele>
        <time>2010-01-23T14:10:34Z</time>
      </trkpt>
      <trkpt lat="45.29593" lon="6.18476">
        <ele>1891.53</ele>
        <time>2010-01-23T14:10:36Z</time>
      </trkpt>
      <trkpt lat="45.29585" lon="6.18484">
        <ele>1889.13</ele>
        <time>2010-01-23T14:10:38Z</time>
      </trkpt>
      <trkpt lat="45.29613" lon="6.18485">
        <ele>1886.72</ele>
        <time>2010-01-23T14:10:39Z</time>
      </trkpt>
      <trkpt lat="45.29671" lon="6.18478">
        <ele>1884.32</ele>
        <time>2010-01-23T14:10:42Z</time>
      </trkpt>
      <trkpt lat="45.29676" lon="6.18487">
        <ele>1880</ele>
        <time>2010-01-23T14:11:08Z</time>
      </trkpt>
      <trkpt lat="45.2968" lon="6.18492">
        <ele>1874.71</ele>
        <time>2010-01-23T14:11:10Z</time>
      </trkpt>
      <trkpt lat="45.29682" lon="6.18494">
        <ele>1870.86</ele>
        <time>2010-01-23T14:11:11Z</time>
      </trkpt>
      <trkpt lat="45.29685" lon="6.18496">
        <ele>1867.5</ele>
        <time>2010-01-23T14:11:12Z</time>
      </trkpt>
      <trkpt lat="45.29691" lon="6.185">
        <ele>1864.61</ele>
        <time>2010-01-23T14:11:14Z</time>
      </trkpt>
      <trkpt lat="45.29702" lon="6.18511">
        <ele>1855.96</ele>
        <time>2010-01-23T14:11:17Z</time>
      </trkpt>
      <trkpt lat="45.29704" lon="6.18514">
        <ele>1854.52</ele>
        <time>2010-01-23T14:11:18Z</time>
      </trkpt>
      <trkpt lat="45.2971" lon="6.1852">
        <ele>1848.27</ele>
        <time>2010-01-23T14:11:21Z</time>
      </trkpt>
      <trkpt lat="45.29714" lon="6.18524">
        <ele>1842.02</ele>
        <time>2010-01-23T14:11:23Z</time>
      </trkpt>
      <trkpt lat="45.29718" lon="6.18531">
        <ele>1839.14</ele>
        <time>2010-01-23T14:11:25Z</time>
      </trkpt>
      <trkpt lat="45.29722" lon="6.18538">
        <ele>1832.89</ele>
        <time>2010-01-23T14:11:27Z</time>
      </trkpt>
      <trkpt lat="45.29725" lon="6.18544">
        <ele>1827.12</ele>
        <time>2010-01-23T14:11:29Z</time>
      </trkpt>
      <trkpt lat="45.29729" lon="6.18548">
        <ele>1822.8</ele>
        <time>2010-01-23T14:11:31Z</time>
      </trkpt>
      <trkpt lat="45.29734" lon="6.1855">
        <ele>1818.95</ele>
        <time>2010-01-23T14:11:33Z</time>
      </trkpt>
      <trkpt lat="45.29736" lon="6.18551">
        <ele>1815.59</ele>
        <time>2010-01-23T14:11:34Z</time>
      </trkpt>
      <trkpt lat="45.2974" lon="6.1855">
        <ele>1814.15</ele>
        <time>2010-01-23T14:11:36Z</time>
      </trkpt>
      <trkpt lat="45.29748" lon="6.1855">
        <ele>1814.15</ele>
        <time>2010-01-23T14:11:51Z</time>
      </trkpt>
      <trkpt lat="45.29748" lon="6.18553">
        <ele>1809.34</ele>
        <time>2010-01-23T14:11:53Z</time>
      </trkpt>
      <trkpt lat="45.29748" lon="6.18561">
        <ele>1805.01</ele>
        <time>2010-01-23T14:11:55Z</time>
      </trkpt>
      <trkpt lat="45.2975" lon="6.1857">
        <ele>1799.73</ele>
        <time>2010-01-23T14:11:57Z</time>
      </trkpt>
      <trkpt lat="45.29751" lon="6.18576">
        <ele>1797.32</ele>
        <time>2010-01-23T14:11:58Z</time>
      </trkpt>
      <trkpt lat="45.29769" lon="6.1856">
        <ele>1791.07</ele>
        <time>2010-01-23T14:12:01Z</time>
      </trkpt>
      <trkpt lat="45.29781" lon="6.18549">
        <ele>1791.55</ele>
        <time>2010-01-23T14:12:09Z</time>
      </trkpt>
      <trkpt lat="45.29781" lon="6.18549">
        <ele>1790.59</ele>
        <time>2010-01-23T14:12:41Z</time>
      </trkpt>
      <trkpt lat="45.29786" lon="6.18544">
        <ele>1783.86</ele>
        <time>2010-01-23T14:12:44Z</time>
      </trkpt>
      <trkpt lat="45.29793" lon="6.18537">
        <ele>1780.02</ele>
        <time>2010-01-23T14:12:46Z</time>
      </trkpt>
      <trkpt lat="45.298" lon="6.18538">
        <ele>1776.17</ele>
        <time>2010-01-23T14:12:48Z</time>
      </trkpt>
      <trkpt lat="45.29812" lon="6.18532">
        <ele>1768.96</ele>
        <time>2010-01-23T14:12:52Z</time>
      </trkpt>
      <trkpt lat="45.29817" lon="6.18537">
        <ele>1762.23</ele>
        <time>2010-01-23T14:12:54Z</time>
      </trkpt>
      <trkpt lat="45.29819" lon="6.18539">
        <ele>1759.83</ele>
        <time>2010-01-23T14:12:55Z</time>
      </trkpt>
      <trkpt lat="45.29828" lon="6.18549">
        <ele>1750.7</ele>
        <time>2010-01-23T14:12:58Z</time>
      </trkpt>
      <trkpt lat="45.29831" lon="6.18552">
        <ele>1747.33</ele>
        <time>2010-01-23T14:12:59Z</time>
      </trkpt>
      <trkpt lat="45.29835" lon="6.18556">
        <ele>1744.45</ele>
        <time>2010-01-23T14:13:00Z</time>
      </trkpt>
      <trkpt lat="45.29837" lon="6.1856">
        <ele>1741.08</ele>
        <time>2010-01-23T14:13:01Z</time>
      </trkpt>
      <trkpt lat="45.2984" lon="6.18565">
        <ele>1737.72</ele>
        <time>2010-01-23T14:13:02Z</time>
      </trkpt>
      <trkpt lat="45.29841" lon="6.18568">
        <ele>1733.88</ele>
        <time>2010-01-23T14:13:03Z</time>
      </trkpt>
      <trkpt lat="45.29847" lon="6.18568">
        <ele>1727.63</ele>
        <time>2010-01-23T14:13:05Z</time>
      </trkpt>
      <trkpt lat="45.29849" lon="6.18568">
        <ele>1722.34</ele>
        <time>2010-01-23T14:13:06Z</time>
      </trkpt>
      <trkpt lat="45.29854" lon="6.18569">
        <ele>1722.34</ele>
        <time>2010-01-23T14:13:07Z</time>
      </trkpt>
      <trkpt lat="45.29866" lon="6.18569">
        <ele>1715.61</ele>
        <time>2010-01-23T14:13:10Z</time>
      </trkpt>
      <trkpt lat="45.29869" lon="6.18571">
        <ele>1712.25</ele>
        <time>2010-01-23T14:13:12Z</time>
      </trkpt>
      <trkpt lat="45.29871" lon="6.18573">
        <ele>1712.25</ele>
        <time>2010-01-23T14:13:13Z</time>
      </trkpt>
      <trkpt lat="45.29899" lon="6.1857">
        <ele>1706.96</ele>
        <time>2010-01-23T14:13:17Z</time>
      </trkpt>
      <trkpt lat="45.29931" lon="6.1856">
        <ele>1706</ele>
        <time>2010-01-23T14:13:25Z</time>
      </trkpt>
      <trkpt lat="45.29942" lon="6.18555">
        <ele>1705.04</ele>
        <time>2010-01-23T14:13:30Z</time>
      </trkpt>
      <trkpt lat="45.29945" lon="6.18561">
        <ele>1700.71</ele>
        <time>2010-01-23T14:13:34Z</time>
      </trkpt>
      <trkpt lat="45.29947" lon="6.18562">
        <ele>1697.83</ele>
        <time>2010-01-23T14:13:35Z</time>
      </trkpt>
      <trkpt lat="45.29957" lon="6.18561">
        <ele>1692.54</ele>
        <time>2010-01-23T14:13:37Z</time>
      </trkpt>
      <trkpt lat="45.29959" lon="6.18564">
        <ele>1689.17</ele>
        <time>2010-01-23T14:13:38Z</time>
      </trkpt>
      <trkpt lat="45.29959" lon="6.18569">
        <ele>1687.73</ele>
        <time>2010-01-23T14:13:39Z</time>
      </trkpt>
      <trkpt lat="45.2996" lon="6.18574">
        <ele>1684.85</ele>
        <time>2010-01-23T14:13:40Z</time>
      </trkpt>
      <trkpt lat="45.29949" lon="6.18573">
        <ele>1681</ele>
        <time>2010-01-23T14:13:41Z</time>
      </trkpt>
      <trkpt lat="45.29949" lon="6.18573">
        <ele>1681</ele>
        <time>2010-01-23T14:13:42Z</time>
      </trkpt>
      <trkpt lat="45.29944" lon="6.18575">
        <ele>1678.12</ele>
        <time>2010-01-23T14:13:56Z</time>
      </trkpt>
      <trkpt lat="45.29943" lon="6.1858">
        <ele>1677.16</ele>
        <time>2010-01-23T14:13:57Z</time>
      </trkpt>
      <trkpt lat="45.29942" lon="6.18585">
        <ele>1676.2</ele>
        <time>2010-01-23T14:13:58Z</time>
      </trkpt>
      <trkpt lat="45.2994" lon="6.1859">
        <ele>1675.23</ele>
        <time>2010-01-23T14:13:59Z</time>
      </trkpt>
      <trkpt lat="45.29941" lon="6.18594">
        <ele>1672.35</ele>
        <time>2010-01-23T14:14:00Z</time>
      </trkpt>
      <trkpt lat="45.29948" lon="6.18601">
        <ele>1667.06</ele>
        <time>2010-01-23T14:14:03Z</time>
      </trkpt>
      <trkpt lat="45.2995" lon="6.18606">
        <ele>1663.7</ele>
        <time>2010-01-23T14:14:04Z</time>
      </trkpt>
      <trkpt lat="45.29953" lon="6.1861">
        <ele>1660.81</ele>
        <time>2010-01-23T14:14:05Z</time>
      </trkpt>
      <trkpt lat="45.29958" lon="6.18612">
        <ele>1658.89</ele>
        <time>2010-01-23T14:14:06Z</time>
      </trkpt>
      <trkpt lat="45.29967" lon="6.18615">
        <ele>1655.05</ele>
        <time>2010-01-23T14:14:08Z</time>
      </trkpt>
      <trkpt lat="45.29972" lon="6.18622">
        <ele>1651.68</ele>
        <time>2010-01-23T14:14:09Z</time>
      </trkpt>
      <trkpt lat="45.29976" lon="6.1863">
        <ele>1648.8</ele>
        <time>2010-01-23T14:14:10Z</time>
      </trkpt>
      <trkpt lat="45.2998" lon="6.18637">
        <ele>1644.95</ele>
        <time>2010-01-23T14:14:11Z</time>
      </trkpt>
      <trkpt lat="45.29986" lon="6.1864">
        <ele>1642.55</ele>
        <time>2010-01-23T14:14:12Z</time>
      </trkpt>
      <trkpt lat="45.29992" lon="6.18643">
        <ele>1641.11</ele>
        <time>2010-01-23T14:14:13Z</time>
      </trkpt>
      <trkpt lat="45.29997" lon="6.18645">
        <ele>1640.15</ele>
        <time>2010-01-23T14:14:14Z</time>
      </trkpt>
      <trkpt lat="45.30001" lon="6.18647">
        <ele>1637.26</ele>
        <time>2010-01-23T14:14:15Z</time>
      </trkpt>
      <trkpt lat="45.30004" lon="6.18651">
        <ele>1635.34</ele>
        <time>2010-01-23T14:14:16Z</time>
      </trkpt>
      <trkpt lat="45.30003" lon="6.18656">
        <ele>1633.42</ele>
        <time>2010-01-23T14:14:17Z</time>
      </trkpt>
      <trkpt lat="45.29999" lon="6.18662">
        <ele>1632.46</ele>
        <time>2010-01-23T14:14:18Z</time>
      </trkpt>
      <trkpt lat="45.29992" lon="6.18667">
        <ele>1631.49</ele>
        <time>2010-01-23T14:14:19Z</time>
      </trkpt>
      <trkpt lat="45.29988" lon="6.18672">
        <ele>1631.49</ele>
        <time>2010-01-23T14:14:20Z</time>
      </trkpt>
      <trkpt lat="45.29978" lon="6.18686">
        <ele>1628.61</ele>
        <time>2010-01-23T14:14:24Z</time>
      </trkpt>
      <trkpt lat="45.29965" lon="6.18698">
        <ele>1626.21</ele>
        <time>2010-01-23T14:14:28Z</time>
      </trkpt>
      <trkpt lat="45.29957" lon="6.18697">
        <ele>1626.69</ele>
        <time>2010-01-23T14:14:38Z</time>
      </trkpt>
      <trkpt lat="45.29958" lon="6.18697">
        <ele>1624.77</ele>
        <time>2010-01-23T14:15:03Z</time>
      </trkpt>
      <trkpt lat="45.29959" lon="6.18704">
        <ele>1619.96</ele>
        <time>2010-01-23T14:15:05Z</time>
      </trkpt>
      <trkpt lat="45.29965" lon="6.1871">
        <ele>1616.11</ele>
        <time>2010-01-23T14:15:07Z</time>
      </trkpt>
      <trkpt lat="45.29968" lon="6.18718">
        <ele>1610.83</ele>
        <time>2010-01-23T14:15:09Z</time>
      </trkpt>
      <trkpt lat="45.29968" lon="6.18728">
        <ele>1605.54</ele>
        <time>2010-01-23T14:15:11Z</time>
      </trkpt>
      <trkpt lat="45.29968" lon="6.18737">
        <ele>1602.17</ele>
        <time>2010-01-23T14:15:13Z</time>
      </trkpt>
      <trkpt lat="45.29968" lon="6.18746">
        <ele>1597.37</ele>
        <time>2010-01-23T14:15:15Z</time>
      </trkpt>
      <trkpt lat="45.29967" lon="6.1875">
        <ele>1595.45</ele>
        <time>2010-01-23T14:15:16Z</time>
      </trkpt>
      <trkpt lat="45.29966" lon="6.18758">
        <ele>1589.2</ele>
        <time>2010-01-23T14:15:18Z</time>
      </trkpt>
      <trkpt lat="45.29964" lon="6.18763">
        <ele>1588.72</ele>
        <time>2010-01-23T14:15:19Z</time>
      </trkpt>
      <trkpt lat="45.29962" lon="6.18769">
        <ele>1587.27</ele>
        <time>2010-01-23T14:15:20Z</time>
      </trkpt>
      <trkpt lat="45.29959" lon="6.18775">
        <ele>1585.83</ele>
        <time>2010-01-23T14:15:21Z</time>
      </trkpt>
      <trkpt lat="45.29955" lon="6.18781">
        <ele>1583.91</ele>
        <time>2010-01-23T14:15:22Z</time>
      </trkpt>
      <trkpt lat="45.29952" lon="6.18788">
        <ele>1582.47</ele>
        <time>2010-01-23T14:15:23Z</time>
      </trkpt>
      <trkpt lat="45.29948" lon="6.18794">
        <ele>1581.51</ele>
        <time>2010-01-23T14:15:24Z</time>
      </trkpt>
      <trkpt lat="45.29943" lon="6.188">
        <ele>1580.54</ele>
        <time>2010-01-23T14:15:25Z</time>
      </trkpt>
      <trkpt lat="45.29939" lon="6.18805">
        <ele>1579.58</ele>
        <time>2010-01-23T14:15:26Z</time>
      </trkpt>
      <trkpt lat="45.29932" lon="6.18814">
        <ele>1576.22</ele>
        <time>2010-01-23T14:15:28Z</time>
      </trkpt>
      <trkpt lat="45.29928" lon="6.1882">
        <ele>1574.3</ele>
        <time>2010-01-23T14:15:29Z</time>
      </trkpt>
      <trkpt lat="45.29925" lon="6.18826">
        <ele>1573.82</ele>
        <time>2010-01-23T14:15:30Z</time>
      </trkpt>
      <trkpt lat="45.29921" lon="6.18832">
        <ele>1572.37</ele>
        <time>2010-01-23T14:15:31Z</time>
      </trkpt>
      <trkpt lat="45.29917" lon="6.18839">
        <ele>1570.45</ele>
        <time>2010-01-23T14:15:32Z</time>
      </trkpt>
      <trkpt lat="45.29913" lon="6.18846">
        <ele>1569.97</ele>
        <time>2010-01-23T14:15:33Z</time>
      </trkpt>
      <trkpt lat="45.2991" lon="6.18853">
        <ele>1569.49</ele>
        <time>2010-01-23T14:15:34Z</time>
      </trkpt>
      <trkpt lat="45.29908" lon="6.18858">
        <ele>1568.53</ele>
        <time>2010-01-23T14:15:35Z</time>
      </trkpt>
      <trkpt lat="45.29908" lon="6.18864">
        <ele>1567.09</ele>
        <time>2010-01-23T14:15:36Z</time>
      </trkpt>
      <trkpt lat="45.29908" lon="6.18868">
        <ele>1564.68</ele>
        <time>2010-01-23T14:15:37Z</time>
      </trkpt>
      <trkpt lat="45.29908" lon="6.1888">
        <ele>1559.88</ele>
        <time>2010-01-23T14:15:39Z</time>
      </trkpt>
      <trkpt lat="45.29908" lon="6.18886">
        <ele>1559.88</ele>
        <time>2010-01-23T14:15:40Z</time>
      </trkpt>
      <trkpt lat="45.29906" lon="6.189">
        <ele>1556.99</ele>
        <time>2010-01-23T14:15:49Z</time>
      </trkpt>
      <trkpt lat="45.29902" lon="6.18911">
        <ele>1553.15</ele>
        <time>2010-01-23T14:15:51Z</time>
      </trkpt>
      <trkpt lat="45.299" lon="6.18918">
        <ele>1550.26</ele>
        <time>2010-01-23T14:15:52Z</time>
      </trkpt>
      <trkpt lat="45.29898" lon="6.18925">
        <ele>1547.86</ele>
        <time>2010-01-23T14:15:53Z</time>
      </trkpt>
      <trkpt lat="45.29897" lon="6.18932">
        <ele>1547.38</ele>
        <time>2010-01-23T14:15:54Z</time>
      </trkpt>
      <trkpt lat="45.29894" lon="6.18944">
        <ele>1545.46</ele>
        <time>2010-01-23T14:15:57Z</time>
      </trkpt>
      <trkpt lat="45.29902" lon="6.18957">
        <ele>1545.94</ele>
        <time>2010-01-23T14:16:13Z</time>
      </trkpt>
      <trkpt lat="45.29904" lon="6.18974">
        <ele>1542.09</ele>
        <time>2010-01-23T14:17:33Z</time>
      </trkpt>
      <trkpt lat="45.29903" lon="6.18977">
        <ele>1541.61</ele>
        <time>2010-01-23T14:17:34Z</time>
      </trkpt>
      <trkpt lat="45.29901" lon="6.18981">
        <ele>1538.73</ele>
        <time>2010-01-23T14:17:35Z</time>
      </trkpt>
      <trkpt lat="45.29901" lon="6.18987">
        <ele>1536.8</ele>
        <time>2010-01-23T14:17:36Z</time>
      </trkpt>
      <trkpt lat="45.299" lon="6.18995">
        <ele>1534.88</ele>
        <time>2010-01-23T14:17:37Z</time>
      </trkpt>
      <trkpt lat="45.29896" lon="6.19029">
        <ele>1530.56</ele>
        <time>2010-01-23T14:17:40Z</time>
      </trkpt>
      <trkpt lat="45.29894" lon="6.19041">
        <ele>1529.11</ele>
        <time>2010-01-23T14:17:41Z</time>
      </trkpt>
      <trkpt lat="45.29892" lon="6.19051">
        <ele>1528.15</ele>
        <time>2010-01-23T14:17:42Z</time>
      </trkpt>
      <trkpt lat="45.2989" lon="6.19067">
        <ele>1526.71</ele>
        <time>2010-01-23T14:17:44Z</time>
      </trkpt>
      <trkpt lat="45.29886" lon="6.19082">
        <ele>1524.79</ele>
        <time>2010-01-23T14:17:46Z</time>
      </trkpt>
      <trkpt lat="45.29883" lon="6.19088">
        <ele>1524.79</ele>
        <time>2010-01-23T14:17:47Z</time>
      </trkpt>
      <trkpt lat="45.2988" lon="6.19095">
        <ele>1524.31</ele>
        <time>2010-01-23T14:17:48Z</time>
      </trkpt>
      <trkpt lat="45.29878" lon="6.19102">
        <ele>1523.83</ele>
        <time>2010-01-23T14:17:49Z</time>
      </trkpt>
      <trkpt lat="45.29875" lon="6.19108">
        <ele>1524.31</ele>
        <time>2010-01-23T14:17:50Z</time>
      </trkpt>
      <trkpt lat="45.29871" lon="6.19116">
        <ele>1524.31</ele>
        <time>2010-01-23T14:17:51Z</time>
      </trkpt>
      <trkpt lat="45.29869" lon="6.19122">
        <ele>1523.83</ele>
        <time>2010-01-23T14:17:52Z</time>
      </trkpt>
      <trkpt lat="45.29866" lon="6.19127">
        <ele>1524.31</ele>
        <time>2010-01-23T14:17:53Z</time>
      </trkpt>
      <trkpt lat="45.29865" lon="6.19131">
        <ele>1524.31</ele>
        <time>2010-01-23T14:17:54Z</time>
      </trkpt>
      <trkpt lat="45.29864" lon="6.19134">
        <ele>1524.31</ele>
        <time>2010-01-23T14:18:07Z</time>
      </trkpt>
      <trkpt lat="45.29858" lon="6.19145">
        <ele>1524.31</ele>
        <time>2010-01-23T14:18:17Z</time>
      </trkpt>
      <trkpt lat="45.29857" lon="6.19147">
        <ele>1524.31</ele>
        <time>2010-01-23T14:18:18Z</time>
      </trkpt>
      <trkpt lat="45.29841" lon="6.19176">
        <ele>1522.87</ele>
        <time>2010-01-23T14:18:30Z</time>
      </trkpt>
      <trkpt lat="45.29837" lon="6.19193">
        <ele>1519.5</ele>
        <time>2010-01-23T14:18:35Z</time>
      </trkpt>
      <trkpt lat="45.29836" lon="6.19206">
        <ele>1514.69</ele>
        <time>2010-01-23T14:18:37Z</time>
      </trkpt>
      <trkpt lat="45.29834" lon="6.19215">
        <ele>1514.69</ele>
        <time>2010-01-23T14:18:38Z</time>
      </trkpt>
      <trkpt lat="45.29832" lon="6.19225">
        <ele>1513.25</ele>
        <time>2010-01-23T14:18:39Z</time>
      </trkpt>
      <trkpt lat="45.29824" lon="6.19246">
        <ele>1511.81</ele>
        <time>2010-01-23T14:18:41Z</time>
      </trkpt>
      <trkpt lat="45.2982" lon="6.19256">
        <ele>1509.89</ele>
        <time>2010-01-23T14:18:42Z</time>
      </trkpt>
      <trkpt lat="45.2981" lon="6.19278">
        <ele>1508.45</ele>
        <time>2010-01-23T14:18:44Z</time>
      </trkpt>
      <trkpt lat="45.29802" lon="6.19296">
        <ele>1509.41</ele>
        <time>2010-01-23T14:18:46Z</time>
      </trkpt>
      <trkpt lat="45.29778" lon="6.19344">
        <ele>1507.97</ele>
        <time>2010-01-23T14:18:55Z</time>
      </trkpt>
      <trkpt lat="45.29764" lon="6.19365">
        <ele>1506.52</ele>
        <time>2010-01-23T14:19:01Z</time>
      </trkpt>
      <trkpt lat="45.29751" lon="6.19383">
        <ele>1504.6</ele>
        <time>2010-01-23T14:19:06Z</time>
      </trkpt>
      <trkpt lat="45.29733" lon="6.19405">
        <ele>1504.6</ele>
        <time>2010-01-23T14:19:14Z</time>
      </trkpt>
      <trkpt lat="45.29731" lon="6.19407">
        <ele>1504.6</ele>
        <time>2010-01-23T14:19:15Z</time>
      </trkpt>
      <trkpt lat="45.29729" lon="6.19409">
        <ele>1505.08</ele>
        <time>2010-01-23T14:19:16Z</time>
      </trkpt>
      <trkpt lat="45.29705" lon="6.19441">
        <ele>1501.72</ele>
        <time>2010-01-23T14:19:26Z</time>
      </trkpt>
      <trkpt lat="45.29688" lon="6.19466">
        <ele>1499.31</ele>
        <time>2010-01-23T14:19:36Z</time>
      </trkpt>
      <trkpt lat="45.29685" lon="6.19472">
        <ele>1498.35</ele>
        <time>2010-01-23T14:19:37Z</time>
      </trkpt>
      <trkpt lat="45.29676" lon="6.19484">
        <ele>1496.91</ele>
        <time>2010-01-23T14:19:39Z</time>
      </trkpt>
      <trkpt lat="45.29672" lon="6.19491">
        <ele>1496.91</ele>
        <time>2010-01-23T14:19:40Z</time>
      </trkpt>
      <trkpt lat="45.29668" lon="6.19498">
        <ele>1495.95</ele>
        <time>2010-01-23T14:19:41Z</time>
      </trkpt>
      <trkpt lat="45.29646" lon="6.1954">
        <ele>1492.58</ele>
        <time>2010-01-23T14:19:47Z</time>
      </trkpt>
      <trkpt lat="45.29642" lon="6.19547">
        <ele>1492.58</ele>
        <time>2010-01-23T14:19:48Z</time>
      </trkpt>
      <trkpt lat="45.29635" lon="6.19559">
        <ele>1491.62</ele>
        <time>2010-01-23T14:19:50Z</time>
      </trkpt>
      <trkpt lat="45.29616" lon="6.19586">
        <ele>1488.26</ele>
        <time>2010-01-23T14:19:54Z</time>
      </trkpt>
      <trkpt lat="45.29603" lon="6.19613">
        <ele>1487.78</ele>
        <time>2010-01-23T14:19:57Z</time>
      </trkpt>
      <trkpt lat="45.296" lon="6.19629">
        <ele>1487.3</ele>
        <time>2010-01-23T14:19:58Z</time>
      </trkpt>
      <trkpt lat="45.29596" lon="6.19637">
        <ele>1486.82</ele>
        <time>2010-01-23T14:19:59Z</time>
      </trkpt>
      <trkpt lat="45.29592" lon="6.19645">
        <ele>1486.82</ele>
        <time>2010-01-23T14:20:00Z</time>
      </trkpt>
      <trkpt lat="45.29582" lon="6.1966">
        <ele>1485.37</ele>
        <time>2010-01-23T14:20:03Z</time>
      </trkpt>
      <trkpt lat="45.29579" lon="6.19661">
        <ele>1485.37</ele>
        <time>2010-01-23T14:20:04Z</time>
      </trkpt>
      <trkpt lat="45.29577" lon="6.19663">
        <ele>1485.37</ele>
        <time>2010-01-23T14:20:05Z</time>
      </trkpt>
      <trkpt lat="45.29575" lon="6.19665">
        <ele>1484.89</ele>
        <time>2010-01-23T14:20:06Z</time>
      </trkpt>
      <trkpt lat="45.29574" lon="6.19669">
        <ele>1485.37</ele>
        <time>2010-01-23T14:20:07Z</time>
      </trkpt>
      <trkpt lat="45.29573" lon="6.19674">
        <ele>1484.89</ele>
        <time>2010-01-23T14:20:08Z</time>
      </trkpt>
      <trkpt lat="45.29571" lon="6.19686">
        <ele>1480.57</ele>
        <time>2010-01-23T14:20:10Z</time>
      </trkpt>
      <trkpt lat="45.2957" lon="6.19693">
        <ele>1479.13</ele>
        <time>2010-01-23T14:20:11Z</time>
      </trkpt>
      <trkpt lat="45.29568" lon="6.19698">
        <ele>1478.65</ele>
        <time>2010-01-23T14:20:12Z</time>
      </trkpt>
      <trkpt lat="45.29564" lon="6.19706">
        <ele>1477.68</ele>
        <time>2010-01-23T14:20:14Z</time>
      </trkpt>
      <trkpt lat="45.29556" lon="6.1973">
        <ele>1473.84</ele>
        <time>2010-01-23T14:20:20Z</time>
      </trkpt>
      <trkpt lat="45.29555" lon="6.19736">
        <ele>1471.44</ele>
        <time>2010-01-23T14:20:21Z</time>
      </trkpt>
      <trkpt lat="45.29552" lon="6.1974">
        <ele>1469.51</ele>
        <time>2010-01-23T14:20:22Z</time>
      </trkpt>
      <trkpt lat="45.29549" lon="6.19746">
        <ele>1468.55</ele>
        <time>2010-01-23T14:20:23Z</time>
      </trkpt>
      <trkpt lat="45.29546" lon="6.1975">
        <ele>1468.55</ele>
        <time>2010-01-23T14:20:24Z</time>
      </trkpt>
      <trkpt lat="45.29542" lon="6.19756">
        <ele>1467.59</ele>
        <time>2010-01-23T14:20:25Z</time>
      </trkpt>
      <trkpt lat="45.29539" lon="6.19762">
        <ele>1464.71</ele>
        <time>2010-01-23T14:20:26Z</time>
      </trkpt>
      <trkpt lat="45.29536" lon="6.19766">
        <ele>1462.78</ele>
        <time>2010-01-23T14:20:27Z</time>
      </trkpt>
      <trkpt lat="45.29535" lon="6.19771">
        <ele>1461.82</ele>
        <time>2010-01-23T14:20:28Z</time>
      </trkpt>
      <trkpt lat="45.29533" lon="6.19777">
        <ele>1461.34</ele>
        <time>2010-01-23T14:20:29Z</time>
      </trkpt>
      <trkpt lat="45.29531" lon="6.19782">
        <ele>1459.9</ele>
        <time>2010-01-23T14:20:30Z</time>
      </trkpt>
      <trkpt lat="45.29527" lon="6.19787">
        <ele>1458.46</ele>
        <time>2010-01-23T14:20:31Z</time>
      </trkpt>
      <trkpt lat="45.29524" lon="6.19793">
        <ele>1458.46</ele>
        <time>2010-01-23T14:20:32Z</time>
      </trkpt>
      <trkpt lat="45.2952" lon="6.19799">
        <ele>1457.5</ele>
        <time>2010-01-23T14:20:33Z</time>
      </trkpt>
      <trkpt lat="45.29513" lon="6.19814">
        <ele>1455.57</ele>
        <time>2010-01-23T14:20:35Z</time>
      </trkpt>
      <trkpt lat="45.29505" lon="6.19829">
        <ele>1455.09</ele>
        <time>2010-01-23T14:20:37Z</time>
      </trkpt>
      <trkpt lat="45.29474" lon="6.19881">
        <ele>1452.21</ele>
        <time>2010-01-23T14:20:48Z</time>
      </trkpt>
      <trkpt lat="45.29471" lon="6.1992">
        <ele>1448.84</ele>
        <time>2010-01-23T14:20:56Z</time>
      </trkpt>
      <trkpt lat="45.29469" lon="6.19933">
        <ele>1445.96</ele>
        <time>2010-01-23T14:21:00Z</time>
      </trkpt>
      <trkpt lat="45.29466" lon="6.19941">
        <ele>1443.56</ele>
        <time>2010-01-23T14:21:04Z</time>
      </trkpt>
      <trkpt lat="45.29465" lon="6.19943">
        <ele>1443.56</ele>
        <time>2010-01-23T14:21:05Z</time>
      </trkpt>
      <trkpt lat="45.29461" lon="6.1995">
        <ele>1441.63</ele>
        <time>2010-01-23T14:21:09Z</time>
      </trkpt>
      <trkpt lat="45.2946" lon="6.19954">
        <ele>1440.19</ele>
        <time>2010-01-23T14:21:19Z</time>
      </trkpt>
      <trkpt lat="45.29458" lon="6.19958">
        <ele>1439.71</ele>
        <time>2010-01-23T14:21:34Z</time>
      </trkpt>
      <trkpt lat="45.29457" lon="6.19975">
        <ele>1435.39</ele>
        <time>2010-01-23T14:21:38Z</time>
      </trkpt>
      <trkpt lat="45.29457" lon="6.19988">
        <ele>1432.98</ele>
        <time>2010-01-23T14:21:40Z</time>
      </trkpt>
      <trkpt lat="45.29456" lon="6.19996">
        <ele>1431.54</ele>
        <time>2010-01-23T14:21:41Z</time>
      </trkpt>
      <trkpt lat="45.29454" lon="6.20003">
        <ele>1430.1</ele>
        <time>2010-01-23T14:21:42Z</time>
      </trkpt>
      <trkpt lat="45.29451" lon="6.2001">
        <ele>1428.66</ele>
        <time>2010-01-23T14:21:43Z</time>
      </trkpt>
      <trkpt lat="45.29449" lon="6.20016">
        <ele>1427.21</ele>
        <time>2010-01-23T14:21:44Z</time>
      </trkpt>
      <trkpt lat="45.29447" lon="6.20022">
        <ele>1426.25</ele>
        <time>2010-01-23T14:21:45Z</time>
      </trkpt>
      <trkpt lat="45.29443" lon="6.20033">
        <ele>1422.89</ele>
        <time>2010-01-23T14:21:47Z</time>
      </trkpt>
      <trkpt lat="45.29441" lon="6.20041">
        <ele>1421.93</ele>
        <time>2010-01-23T14:21:49Z</time>
      </trkpt>
      <trkpt lat="45.2944" lon="6.20049">
        <ele>1422.89</ele>
        <time>2010-01-23T14:21:51Z</time>
      </trkpt>
      <trkpt lat="45.2944" lon="6.20052">
        <ele>1422.41</ele>
        <time>2010-01-23T14:21:52Z</time>
      </trkpt>
      <trkpt lat="45.29438" lon="6.20057">
        <ele>1422.41</ele>
        <time>2010-01-23T14:21:53Z</time>
      </trkpt>
      <trkpt lat="45.29435" lon="6.20062">
        <ele>1421.45</ele>
        <time>2010-01-23T14:21:54Z</time>
      </trkpt>
      <trkpt lat="45.29432" lon="6.20068">
        <ele>1420.49</ele>
        <time>2010-01-23T14:21:55Z</time>
      </trkpt>
      <trkpt lat="45.29429" lon="6.20073">
        <ele>1420</ele>
        <time>2010-01-23T14:21:56Z</time>
      </trkpt>
      <trkpt lat="45.29426" lon="6.20079">
        <ele>1419.52</ele>
        <time>2010-01-23T14:21:57Z</time>
      </trkpt>
      <trkpt lat="45.29424" lon="6.20085">
        <ele>1419.04</ele>
        <time>2010-01-23T14:21:58Z</time>
      </trkpt>
      <trkpt lat="45.29422" lon="6.20092">
        <ele>1417.6</ele>
        <time>2010-01-23T14:21:59Z</time>
      </trkpt>
      <trkpt lat="45.29419" lon="6.20099">
        <ele>1417.6</ele>
        <time>2010-01-23T14:22:00Z</time>
      </trkpt>
      <trkpt lat="45.2941" lon="6.20121">
        <ele>1416.64</ele>
        <time>2010-01-23T14:22:05Z</time>
      </trkpt>
      <trkpt lat="45.2941" lon="6.20126">
        <ele>1414.72</ele>
        <time>2010-01-23T14:22:06Z</time>
      </trkpt>
      <trkpt lat="45.29408" lon="6.20132">
        <ele>1413.28</ele>
        <time>2010-01-23T14:22:07Z</time>
      </trkpt>
      <trkpt lat="45.29405" lon="6.20139">
        <ele>1412.31</ele>
        <time>2010-01-23T14:22:08Z</time>
      </trkpt>
      <trkpt lat="45.29402" lon="6.20146">
        <ele>1412.31</ele>
        <time>2010-01-23T14:22:09Z</time>
      </trkpt>
      <trkpt lat="45.29399" lon="6.20153">
        <ele>1410.87</ele>
        <time>2010-01-23T14:22:10Z</time>
      </trkpt>
      <trkpt lat="45.29396" lon="6.20162">
        <ele>1408.95</ele>
        <time>2010-01-23T14:22:11Z</time>
      </trkpt>
      <trkpt lat="45.29393" lon="6.2017">
        <ele>1407.51</ele>
        <time>2010-01-23T14:22:12Z</time>
      </trkpt>
      <trkpt lat="45.29391" lon="6.20176">
        <ele>1407.51</ele>
        <time>2010-01-23T14:22:13Z</time>
      </trkpt>
      <trkpt lat="45.2939" lon="6.20184">
        <ele>1407.51</ele>
        <time>2010-01-23T14:22:24Z</time>
      </trkpt>
      <trkpt lat="45.2939" lon="6.20189">
        <ele>1406.07</ele>
        <time>2010-01-23T14:22:25Z</time>
      </trkpt>
      <trkpt lat="45.29387" lon="6.20203">
        <ele>1402.22</ele>
        <time>2010-01-23T14:22:27Z</time>
      </trkpt>
      <trkpt lat="45.29388" lon="6.20205">
        <ele>1400.78</ele>
        <time>2010-01-23T14:22:28Z</time>
      </trkpt>
      <trkpt lat="45.29397" lon="6.20216">
        <ele>1396.93</ele>
        <time>2010-01-23T14:22:31Z</time>
      </trkpt>
      <trkpt lat="45.294" lon="6.20221">
        <ele>1395.01</ele>
        <time>2010-01-23T14:22:32Z</time>
      </trkpt>
      <trkpt lat="45.294" lon="6.20227">
        <ele>1394.05</ele>
        <time>2010-01-23T14:22:33Z</time>
      </trkpt>
      <trkpt lat="45.29399" lon="6.20234">
        <ele>1393.57</ele>
        <time>2010-01-23T14:22:34Z</time>
      </trkpt>
      <trkpt lat="45.29393" lon="6.2025">
        <ele>1390.2</ele>
        <time>2010-01-23T14:22:36Z</time>
      </trkpt>
      <trkpt lat="45.29387" lon="6.20267">
        <ele>1387.8</ele>
        <time>2010-01-23T14:22:38Z</time>
      </trkpt>
      <trkpt lat="45.29382" lon="6.20288">
        <ele>1386.84</ele>
        <time>2010-01-23T14:22:42Z</time>
      </trkpt>
      <trkpt lat="45.29381" lon="6.20306">
        <ele>1383.47</ele>
        <time>2010-01-23T14:22:46Z</time>
      </trkpt>
      <trkpt lat="45.29381" lon="6.20321">
        <ele>1380.11</ele>
        <time>2010-01-23T14:22:48Z</time>
      </trkpt>
      <trkpt lat="45.29382" lon="6.20345">
        <ele>1376.26</ele>
        <time>2010-01-23T14:22:51Z</time>
      </trkpt>
      <trkpt lat="45.29382" lon="6.20356">
        <ele>1374.34</ele>
        <time>2010-01-23T14:22:52Z</time>
      </trkpt>
      <trkpt lat="45.29384" lon="6.20366">
        <ele>1371.46</ele>
        <time>2010-01-23T14:22:53Z</time>
      </trkpt>
      <trkpt lat="45.29386" lon="6.20376">
        <ele>1370.98</ele>
        <time>2010-01-23T14:22:54Z</time>
      </trkpt>
      <trkpt lat="45.29387" lon="6.20384">
        <ele>1370.98</ele>
        <time>2010-01-23T14:22:55Z</time>
      </trkpt>
      <trkpt lat="45.29389" lon="6.20391">
        <ele>1370.5</ele>
        <time>2010-01-23T14:22:56Z</time>
      </trkpt>
      <trkpt lat="45.29391" lon="6.20397">
        <ele>1370.98</ele>
        <time>2010-01-23T14:22:57Z</time>
      </trkpt>
      <trkpt lat="45.29391" lon="6.20402">
        <ele>1371.46</ele>
        <time>2010-01-23T14:22:58Z</time>
      </trkpt>
      <trkpt lat="45.29392" lon="6.20408">
        <ele>1370.98</ele>
        <time>2010-01-23T14:22:59Z</time>
      </trkpt>
      <trkpt lat="45.29394" lon="6.20415">
        <ele>1369.54</ele>
        <time>2010-01-23T14:23:00Z</time>
      </trkpt>
      <trkpt lat="45.29396" lon="6.20432">
        <ele>1367.13</ele>
        <time>2010-01-23T14:23:02Z</time>
      </trkpt>
      <trkpt lat="45.29396" lon="6.20442">
        <ele>1366.17</ele>
        <time>2010-01-23T14:23:03Z</time>
      </trkpt>
      <trkpt lat="45.29395" lon="6.20462">
        <ele>1363.29</ele>
        <time>2010-01-23T14:23:05Z</time>
      </trkpt>
      <trkpt lat="45.29393" lon="6.20469">
        <ele>1363.29</ele>
        <time>2010-01-23T14:23:06Z</time>
      </trkpt>
      <trkpt lat="45.29394" lon="6.20476">
        <ele>1363.29</ele>
        <time>2010-01-23T14:23:07Z</time>
      </trkpt>
      <trkpt lat="45.29394" lon="6.20483">
        <ele>1362.33</ele>
        <time>2010-01-23T14:23:08Z</time>
      </trkpt>
      <trkpt lat="45.29394" lon="6.20489">
        <ele>1361.84</ele>
        <time>2010-01-23T14:23:09Z</time>
      </trkpt>
      <trkpt lat="45.29392" lon="6.20496">
        <ele>1360.88</ele>
        <time>2010-01-23T14:23:10Z</time>
      </trkpt>
      <trkpt lat="45.29391" lon="6.20503">
        <ele>1359.92</ele>
        <time>2010-01-23T14:23:11Z</time>
      </trkpt>
      <trkpt lat="45.2939" lon="6.2051">
        <ele>1358.96</ele>
        <time>2010-01-23T14:23:12Z</time>
      </trkpt>
      <trkpt lat="45.29389" lon="6.20517">
        <ele>1358.96</ele>
        <time>2010-01-23T14:23:13Z</time>
      </trkpt>
      <trkpt lat="45.29387" lon="6.20525">
        <ele>1358.96</ele>
        <time>2010-01-23T14:23:14Z</time>
      </trkpt>
      <trkpt lat="45.29385" lon="6.20532">
        <ele>1357.52</ele>
        <time>2010-01-23T14:23:15Z</time>
      </trkpt>
      <trkpt lat="45.29383" lon="6.20538">
        <ele>1357.52</ele>
        <time>2010-01-23T14:23:16Z</time>
      </trkpt>
      <trkpt lat="45.29382" lon="6.20544">
        <ele>1357.04</ele>
        <time>2010-01-23T14:23:17Z</time>
      </trkpt>
      <trkpt lat="45.29382" lon="6.20552">
        <ele>1356.08</ele>
        <time>2010-01-23T14:23:18Z</time>
      </trkpt>
      <trkpt lat="45.29382" lon="6.20561">
        <ele>1355.12</ele>
        <time>2010-01-23T14:23:19Z</time>
      </trkpt>
      <trkpt lat="45.29382" lon="6.2057">
        <ele>1352.71</ele>
        <time>2010-01-23T14:23:20Z</time>
      </trkpt>
      <trkpt lat="45.29382" lon="6.20577">
        <ele>1352.23</ele>
        <time>2010-01-23T14:23:21Z</time>
      </trkpt>
      <trkpt lat="45.2938" lon="6.20585">
        <ele>1351.27</ele>
        <time>2010-01-23T14:23:22Z</time>
      </trkpt>
      <trkpt lat="45.29378" lon="6.2059">
        <ele>1350.79</ele>
        <time>2010-01-23T14:23:23Z</time>
      </trkpt>
      <trkpt lat="45.29376" lon="6.20594">
        <ele>1350.31</ele>
        <time>2010-01-23T14:23:24Z</time>
      </trkpt>
      <trkpt lat="45.29375" lon="6.20598">
        <ele>1350.79</ele>
        <time>2010-01-23T14:23:25Z</time>
      </trkpt>
      <trkpt lat="45.29374" lon="6.20604">
        <ele>1348.87</ele>
        <time>2010-01-23T14:23:26Z</time>
      </trkpt>
      <trkpt lat="45.29372" lon="6.20611">
        <ele>1347.91</ele>
        <time>2010-01-23T14:23:27Z</time>
      </trkpt>
      <trkpt lat="45.29367" lon="6.20628">
        <ele>1345.5</ele>
        <time>2010-01-23T14:23:29Z</time>
      </trkpt>
      <trkpt lat="45.29361" lon="6.20642">
        <ele>1345.02</ele>
        <time>2010-01-23T14:23:31Z</time>
      </trkpt>
      <trkpt lat="45.29361" lon="6.20648">
        <ele>1345.02</ele>
        <time>2010-01-23T14:23:32Z</time>
      </trkpt>
      <trkpt lat="45.2936" lon="6.20654">
        <ele>1345.5</ele>
        <time>2010-01-23T14:23:33Z</time>
      </trkpt>
      <trkpt lat="45.29359" lon="6.2066">
        <ele>1345.5</ele>
        <time>2010-01-23T14:23:34Z</time>
      </trkpt>
      <trkpt lat="45.29358" lon="6.20665">
        <ele>1344.54</ele>
        <time>2010-01-23T14:23:35Z</time>
      </trkpt>
      <trkpt lat="45.29357" lon="6.20671">
        <ele>1344.54</ele>
        <time>2010-01-23T14:23:36Z</time>
      </trkpt>
      <trkpt lat="45.29355" lon="6.20677">
        <ele>1344.54</ele>
        <time>2010-01-23T14:23:37Z</time>
      </trkpt>
      <trkpt lat="45.29355" lon="6.20715">
        <ele>1342.62</ele>
        <time>2010-01-23T14:23:45Z</time>
      </trkpt>
      <trkpt lat="45.29356" lon="6.20719">
        <ele>1342.62</ele>
        <time>2010-01-23T14:23:47Z</time>
      </trkpt>
      <trkpt lat="45.29356" lon="6.20721">
        <ele>1342.14</ele>
        <time>2010-01-23T14:23:48Z</time>
      </trkpt>
      <trkpt lat="45.29357" lon="6.20725">
        <ele>1341.66</ele>
        <time>2010-01-23T14:23:49Z</time>
      </trkpt>
      <trkpt lat="45.29357" lon="6.20728">
        <ele>1341.18</ele>
        <time>2010-01-23T14:23:50Z</time>
      </trkpt>
      <trkpt lat="45.29356" lon="6.20732">
        <ele>1341.18</ele>
        <time>2010-01-23T14:23:51Z</time>
      </trkpt>
      <trkpt lat="45.29355" lon="6.20736">
        <ele>1340.22</ele>
        <time>2010-01-23T14:23:52Z</time>
      </trkpt>
      <trkpt lat="45.29355" lon="6.20741">
        <ele>1338.29</ele>
        <time>2010-01-23T14:23:53Z</time>
      </trkpt>
      <trkpt lat="45.29355" lon="6.20759">
        <ele>1335.41</ele>
        <time>2010-01-23T14:23:57Z</time>
      </trkpt>
      <trkpt lat="45.29355" lon="6.2077">
        <ele>1333.01</ele>
        <time>2010-01-23T14:23:59Z</time>
      </trkpt>
      <trkpt lat="45.29355" lon="6.20776">
        <ele>1331.08</ele>
        <time>2010-01-23T14:24:00Z</time>
      </trkpt>
      <trkpt lat="45.29355" lon="6.20783">
        <ele>1330.12</ele>
        <time>2010-01-23T14:24:01Z</time>
      </trkpt>
      <trkpt lat="45.29354" lon="6.20789">
        <ele>1329.16</ele>
        <time>2010-01-23T14:24:02Z</time>
      </trkpt>
      <trkpt lat="45.29354" lon="6.20793">
        <ele>1328.2</ele>
        <time>2010-01-23T14:24:03Z</time>
      </trkpt>
      <trkpt lat="45.29354" lon="6.20796">
        <ele>1327.72</ele>
        <time>2010-01-23T14:24:04Z</time>
      </trkpt>
      <trkpt lat="45.29362" lon="6.20792">
        <ele>1327.72</ele>
        <time>2010-01-23T14:24:11Z</time>
      </trkpt>
      <trkpt lat="45.29361" lon="6.208">
        <ele>1326.76</ele>
        <time>2010-01-23T14:24:19Z</time>
      </trkpt>
      <trkpt lat="45.2936" lon="6.20801">
        <ele>1326.76</ele>
        <time>2010-01-23T14:24:20Z</time>
      </trkpt>
      <trkpt lat="45.29358" lon="6.20806">
        <ele>1324.83</ele>
        <time>2010-01-23T14:24:29Z</time>
      </trkpt>
      <trkpt lat="45.29357" lon="6.2081">
        <ele>1321.47</ele>
        <time>2010-01-23T14:24:32Z</time>
      </trkpt>
      <trkpt lat="45.29355" lon="6.20819">
        <ele>1320.03</ele>
        <time>2010-01-23T14:24:34Z</time>
      </trkpt>
      <trkpt lat="45.29354" lon="6.20826">
        <ele>1319.07</ele>
        <time>2010-01-23T14:24:35Z</time>
      </trkpt>
      <trkpt lat="45.29349" lon="6.2085">
        <ele>1314.74</ele>
        <time>2010-01-23T14:24:38Z</time>
      </trkpt>
      <trkpt lat="45.29345" lon="6.20872">
        <ele>1310.9</ele>
        <time>2010-01-23T14:24:42Z</time>
      </trkpt>
      <trkpt lat="45.29346" lon="6.20874">
        <ele>1310.9</ele>
        <time>2010-01-23T14:24:43Z</time>
      </trkpt>
      <trkpt lat="45.29346" lon="6.20885">
        <ele>1310.41</ele>
        <time>2010-01-23T14:24:46Z</time>
      </trkpt>
      <trkpt lat="45.29348" lon="6.20901">
        <ele>1308.49</ele>
        <time>2010-01-23T14:25:07Z</time>
      </trkpt>
      <trkpt lat="45.29346" lon="6.20914">
        <ele>1307.05</ele>
        <time>2010-01-23T14:25:19Z</time>
      </trkpt>
      <trkpt lat="45.29343" lon="6.20923">
        <ele>1305.61</ele>
        <time>2010-01-23T14:25:23Z</time>
      </trkpt>
      <trkpt lat="45.29342" lon="6.20929">
        <ele>1304.17</ele>
        <time>2010-01-23T14:25:26Z</time>
      </trkpt>
      <trkpt lat="45.29341" lon="6.2094">
        <ele>1301.28</ele>
        <time>2010-01-23T14:25:32Z</time>
      </trkpt>
      <trkpt lat="45.29344" lon="6.20946">
        <ele>1297.92</ele>
        <time>2010-01-23T14:25:36Z</time>
      </trkpt>
      <trkpt lat="45.29344" lon="6.20948">
        <ele>1295.03</ele>
        <time>2010-01-23T14:25:37Z</time>
      </trkpt>
      <trkpt lat="45.29343" lon="6.20951">
        <ele>1292.63</ele>
        <time>2010-01-23T14:25:38Z</time>
      </trkpt>
      <trkpt lat="45.29344" lon="6.20955">
        <ele>1291.67</ele>
        <time>2010-01-23T14:25:39Z</time>
      </trkpt>
      <trkpt lat="45.29343" lon="6.20959">
        <ele>1290.71</ele>
        <time>2010-01-23T14:25:40Z</time>
      </trkpt>
      <trkpt lat="45.29342" lon="6.20961">
        <ele>1290.71</ele>
        <time>2010-01-23T14:25:41Z</time>
      </trkpt>
      <trkpt lat="45.29342" lon="6.20969">
        <ele>1290.71</ele>
        <time>2010-01-23T14:25:43Z</time>
      </trkpt>
      <trkpt lat="45.29341" lon="6.20975">
        <ele>1289.75</ele>
        <time>2010-01-23T14:25:44Z</time>
      </trkpt>
      <trkpt lat="45.29338" lon="6.2098">
        <ele>1288.3</ele>
        <time>2010-01-23T14:25:45Z</time>
      </trkpt>
      <trkpt lat="45.29336" lon="6.20985">
        <ele>1287.82</ele>
        <time>2010-01-23T14:25:46Z</time>
      </trkpt>
      <trkpt lat="45.29335" lon="6.2099">
        <ele>1287.82</ele>
        <time>2010-01-23T14:25:47Z</time>
      </trkpt>
      <trkpt lat="45.29334" lon="6.20995">
        <ele>1286.86</ele>
        <time>2010-01-23T14:25:48Z</time>
      </trkpt>
      <trkpt lat="45.29332" lon="6.21002">
        <ele>1285.42</ele>
        <time>2010-01-23T14:25:49Z</time>
      </trkpt>
      <trkpt lat="45.29328" lon="6.21015">
        <ele>1282.06</ele>
        <time>2010-01-23T14:25:51Z</time>
      </trkpt>
      <trkpt lat="45.29327" lon="6.2102">
        <ele>1281.57</ele>
        <time>2010-01-23T14:25:52Z</time>
      </trkpt>
      <trkpt lat="45.29324" lon="6.21032">
        <ele>1278.21</ele>
        <time>2010-01-23T14:25:54Z</time>
      </trkpt>
      <trkpt lat="45.2932" lon="6.21052">
        <ele>1274.36</ele>
        <time>2010-01-23T14:25:57Z</time>
      </trkpt>
      <trkpt lat="45.29319" lon="6.21059">
        <ele>1273.88</ele>
        <time>2010-01-23T14:25:58Z</time>
      </trkpt>
      <trkpt lat="45.29318" lon="6.21066">
        <ele>1271.48</ele>
        <time>2010-01-23T14:25:59Z</time>
      </trkpt>
      <trkpt lat="45.29314" lon="6.21083">
        <ele>1267.16</ele>
        <time>2010-01-23T14:26:02Z</time>
      </trkpt>
      <trkpt lat="45.29312" lon="6.21103">
        <ele>1263.79</ele>
        <time>2010-01-23T14:26:05Z</time>
      </trkpt>
      <trkpt lat="45.29309" lon="6.21116">
        <ele>1260.43</ele>
        <time>2010-01-23T14:26:07Z</time>
      </trkpt>
      <trkpt lat="45.29304" lon="6.2113">
        <ele>1258.5</ele>
        <time>2010-01-23T14:26:10Z</time>
      </trkpt>
      <trkpt lat="45.29304" lon="6.21133">
        <ele>1257.54</ele>
        <time>2010-01-23T14:26:11Z</time>
      </trkpt>
      <trkpt lat="45.29304" lon="6.21147">
        <ele>1254.18</ele>
        <time>2010-01-23T14:26:14Z</time>
      </trkpt>
      <trkpt lat="45.29305" lon="6.21154">
        <ele>1251.77</ele>
        <time>2010-01-23T14:26:16Z</time>
      </trkpt>
      <trkpt lat="45.29303" lon="6.21166">
        <ele>1248.41</ele>
        <time>2010-01-23T14:26:18Z</time>
      </trkpt>
      <trkpt lat="45.29295" lon="6.21176">
        <ele>1246.97</ele>
        <time>2010-01-23T14:26:22Z</time>
      </trkpt>
      <trkpt lat="45.2929" lon="6.21184">
        <ele>1243.6</ele>
        <time>2010-01-23T14:26:26Z</time>
      </trkpt>
      <trkpt lat="45.29281" lon="6.21194">
        <ele>1238.32</ele>
        <time>2010-01-23T14:26:30Z</time>
      </trkpt>
      <trkpt lat="45.2927" lon="6.21208">
        <ele>1234.47</ele>
        <time>2010-01-23T14:26:35Z</time>
      </trkpt>
      <trkpt lat="45.29263" lon="6.21222">
        <ele>1231.11</ele>
        <time>2010-01-23T14:26:38Z</time>
      </trkpt>
      <trkpt lat="45.29262" lon="6.21225">
        <ele>1231.11</ele>
        <time>2010-01-23T14:26:39Z</time>
      </trkpt>
      <trkpt lat="45.29261" lon="6.21228">
        <ele>1229.18</ele>
        <time>2010-01-23T14:26:41Z</time>
      </trkpt>
      <trkpt lat="45.29254" lon="6.21257">
        <ele>1229.18</ele>
        <time>2010-01-23T14:26:46Z</time>
      </trkpt>
      <trkpt lat="45.29243" lon="6.21281">
        <ele>1229.66</ele>
        <time>2010-01-23T14:26:58Z</time>
      </trkpt>
      <trkpt lat="45.29267" lon="6.2125">
        <ele>1230.14</ele>
        <time>2010-01-23T14:27:12Z</time>
      </trkpt>
      <trkpt lat="45.29262" lon="6.21262">
        <ele>1229.66</ele>
        <time>2010-01-23T14:27:28Z</time>
      </trkpt>
      <trkpt lat="45.29241" lon="6.21287">
        <ele>1227.74</ele>
        <time>2010-01-23T14:27:37Z</time>
      </trkpt>
      <trkpt lat="45.29235" lon="6.21305">
        <ele>1224.86</ele>
        <time>2010-01-23T14:27:46Z</time>
      </trkpt>
      <trkpt lat="45.29237" lon="6.2131">
        <ele>1222.93</ele>
        <time>2010-01-23T14:27:55Z</time>
      </trkpt>
      <trkpt lat="45.29238" lon="6.21328">
        <ele>1219.57</ele>
        <time>2010-01-23T14:28:07Z</time>
      </trkpt>
      <trkpt lat="45.29237" lon="6.21345">
        <ele>1216.69</ele>
        <time>2010-01-23T14:28:15Z</time>
      </trkpt>
      <trkpt lat="45.29248" lon="6.21356">
        <ele>1215.24</ele>
        <time>2010-01-23T14:28:28Z</time>
      </trkpt>
      <trkpt lat="45.29249" lon="6.21359">
        <ele>1214.76</ele>
        <time>2010-01-23T14:28:29Z</time>
      </trkpt>
      <trkpt lat="45.29246" lon="6.21363">
        <ele>1213.8</ele>
        <time>2010-01-23T14:28:30Z</time>
      </trkpt>
      <trkpt lat="45.29235" lon="6.21381">
        <ele>1211.4</ele>
        <time>2010-01-23T14:28:36Z</time>
      </trkpt>
      <trkpt lat="45.29231" lon="6.21386">
        <ele>1209.96</ele>
        <time>2010-01-23T14:28:39Z</time>
      </trkpt>
      <trkpt lat="45.29227" lon="6.21392">
        <ele>1208.51</ele>
        <time>2010-01-23T14:28:42Z</time>
      </trkpt>
      <trkpt lat="45.29217" lon="6.21408">
        <ele>1205.15</ele>
        <time>2010-01-23T14:28:51Z</time>
      </trkpt>
      <trkpt lat="45.29211" lon="6.21422">
        <ele>1202.27</ele>
        <time>2010-01-23T14:28:57Z</time>
      </trkpt>
      <trkpt lat="45.29209" lon="6.21426">
        <ele>1200.82</ele>
        <time>2010-01-23T14:28:59Z</time>
      </trkpt>
      <trkpt lat="45.29205" lon="6.21437">
        <ele>1198.42</ele>
        <time>2010-01-23T14:29:04Z</time>
      </trkpt>
      <trkpt lat="45.29197" lon="6.21448">
        <ele>1195.06</ele>
        <time>2010-01-23T14:29:13Z</time>
      </trkpt>
      <trkpt lat="45.29189" lon="6.21459">
        <ele>1192.17</ele>
        <time>2010-01-23T14:29:31Z</time>
      </trkpt>
      <trkpt lat="45.29184" lon="6.21466">
        <ele>1190.25</ele>
        <time>2010-01-23T14:29:46Z</time>
      </trkpt>
      <trkpt lat="45.29174" lon="6.21479">
        <ele>1186.88</ele>
        <time>2010-01-23T14:30:00Z</time>
      </trkpt>
      <trkpt lat="45.29178" lon="6.21491">
        <ele>1184</ele>
        <time>2010-01-23T14:30:17Z</time>
      </trkpt>
      <trkpt lat="45.2917" lon="6.21495">
        <ele>1181.6</ele>
        <time>2010-01-23T14:30:21Z</time>
      </trkpt>
      <trkpt lat="45.29167" lon="6.21498">
        <ele>1181.12</ele>
        <time>2010-01-23T14:30:23Z</time>
      </trkpt>
      <trkpt lat="45.29157" lon="6.21509">
        <ele>1177.75</ele>
        <time>2010-01-23T14:30:30Z</time>
      </trkpt>
      <trkpt lat="45.29157" lon="6.21515">
        <ele>1176.79</ele>
        <time>2010-01-23T14:30:32Z</time>
      </trkpt>
      <trkpt lat="45.29154" lon="6.21525">
        <ele>1174.39</ele>
        <time>2010-01-23T14:30:35Z</time>
      </trkpt>
      <trkpt lat="45.29149" lon="6.21536">
        <ele>1172.47</ele>
        <time>2010-01-23T14:30:39Z</time>
      </trkpt>
      <trkpt lat="45.29142" lon="6.21551">
        <ele>1168.62</ele>
        <time>2010-01-23T14:30:44Z</time>
      </trkpt>
      <trkpt lat="45.29142" lon="6.21554">
        <ele>1168.62</ele>
        <time>2010-01-23T14:30:45Z</time>
      </trkpt>
      <trkpt lat="45.29142" lon="6.21554">
        <ele>1168.62</ele>
        <time>2010-01-23T14:30:57Z</time>
      </trkpt>
      <trkpt lat="45.29134" lon="6.21564">
        <ele>1163.81</ele>
        <time>2010-01-23T14:31:01Z</time>
      </trkpt>
      <trkpt lat="45.29131" lon="6.21568">
        <ele>1162.37</ele>
        <time>2010-01-23T14:31:02Z</time>
      </trkpt>
      <trkpt lat="45.29129" lon="6.21574">
        <ele>1161.89</ele>
        <time>2010-01-23T14:31:03Z</time>
      </trkpt>
      <trkpt lat="45.29126" lon="6.21583">
        <ele>1160.45</ele>
        <time>2010-01-23T14:31:04Z</time>
      </trkpt>
      <trkpt lat="45.29126" lon="6.21586">
        <ele>1159.49</ele>
        <time>2010-01-23T14:31:05Z</time>
      </trkpt>
      <trkpt lat="45.29126" lon="6.2159">
        <ele>1158.05</ele>
        <time>2010-01-23T14:31:06Z</time>
      </trkpt>
      <trkpt lat="45.29124" lon="6.21595">
        <ele>1157.08</ele>
        <time>2010-01-23T14:31:07Z</time>
      </trkpt>
      <trkpt lat="45.29123" lon="6.216">
        <ele>1156.12</ele>
        <time>2010-01-23T14:31:08Z</time>
      </trkpt>
      <trkpt lat="45.29119" lon="6.21609">
        <ele>1154.68</ele>
        <time>2010-01-23T14:31:10Z</time>
      </trkpt>
      <trkpt lat="45.29116" lon="6.21614">
        <ele>1152.76</ele>
        <time>2010-01-23T14:31:11Z</time>
      </trkpt>
      <trkpt lat="45.29113" lon="6.21618">
        <ele>1151.8</ele>
        <time>2010-01-23T14:31:12Z</time>
      </trkpt>
      <trkpt lat="45.2911" lon="6.21622">
        <ele>1151.8</ele>
        <time>2010-01-23T14:31:13Z</time>
      </trkpt>
      <trkpt lat="45.29107" lon="6.21625">
        <ele>1151.32</ele>
        <time>2010-01-23T14:31:14Z</time>
      </trkpt>
      <trkpt lat="45.29105" lon="6.21625">
        <ele>1151.32</ele>
        <time>2010-01-23T14:31:15Z</time>
      </trkpt>
      <trkpt lat="45.29103" lon="6.21626">
        <ele>1151.32</ele>
        <time>2010-01-23T14:31:16Z</time>
      </trkpt>
      <trkpt lat="45.29102" lon="6.21627">
        <ele>1150.35</ele>
        <time>2010-01-23T14:31:17Z</time>
      </trkpt>
      <trkpt lat="45.291" lon="6.2163">
        <ele>1149.87</ele>
        <time>2010-01-23T14:31:18Z</time>
      </trkpt>
      <trkpt lat="45.29096" lon="6.21639">
        <ele>1147.47</ele>
        <time>2010-01-23T14:31:23Z</time>
      </trkpt>
      <trkpt lat="45.29096" lon="6.21642">
        <ele>1145.55</ele>
        <time>2010-01-23T14:31:26Z</time>
      </trkpt>
      <trkpt lat="45.29095" lon="6.21644">
        <ele>1143.63</ele>
        <time>2010-01-23T14:31:27Z</time>
      </trkpt>
      <trkpt lat="45.29093" lon="6.21646">
        <ele>1141.7</ele>
        <time>2010-01-23T14:31:28Z</time>
      </trkpt>
      <trkpt lat="45.29092" lon="6.21646">
        <ele>1141.7</ele>
        <time>2010-01-23T14:31:29Z</time>
      </trkpt>
      <trkpt lat="45.29088" lon="6.21653">
        <ele>1140.74</ele>
        <time>2010-01-23T14:31:44Z</time>
      </trkpt>
      <trkpt lat="45.29085" lon="6.21645">
        <ele>1141.22</ele>
        <time>2010-01-23T14:32:03Z</time>
      </trkpt>
      <trkpt lat="45.29085" lon="6.21623">
        <ele>1140.26</ele>
        <time>2010-01-23T14:32:31Z</time>
      </trkpt>
      <trkpt lat="45.29079" lon="6.21632">
        <ele>1139.78</ele>
        <time>2010-01-23T14:36:10Z</time>
      </trkpt>
      <trkpt lat="45.29079" lon="6.21644">
        <ele>1143.63</ele>
        <time>2010-01-23T14:36:15Z</time>
      </trkpt>
      <trkpt lat="45.29079" lon="6.21644">
        <ele>1139.78</ele>
        <time>2010-01-23T14:36:26Z</time>
      </trkpt>
      <trkpt lat="45.29079" lon="6.21644">
        <ele>1145.07</ele>
        <time>2010-01-23T14:36:41Z</time>
      </trkpt>
      <trkpt lat="45.29079" lon="6.21644">
        <ele>1142.18</ele>
        <time>2010-01-23T14:36:42Z</time>
      </trkpt>
      <trkpt lat="45.29064" lon="6.21691">
        <ele>1140.74</ele>
        <time>2010-01-23T14:37:00Z</time>
      </trkpt>
      <trkpt lat="45.29058" lon="6.21699">
        <ele>1140.26</ele>
        <time>2010-01-23T14:37:05Z</time>
      </trkpt>
      <trkpt lat="45.29048" lon="6.21704">
        <ele>1138.34</ele>
        <time>2010-01-23T14:37:18Z</time>
      </trkpt>
      <trkpt lat="45.29034" lon="6.21715">
        <ele>1137.38</ele>
        <time>2010-01-23T14:37:28Z</time>
      </trkpt>
      <trkpt lat="45.29033" lon="6.21716">
        <ele>1136.9</ele>
        <time>2010-01-23T14:37:29Z</time>
      </trkpt>
      <trkpt lat="45.29032" lon="6.21717">
        <ele>1137.38</ele>
        <time>2010-01-23T14:37:30Z</time>
      </trkpt>
      <trkpt lat="45.2903" lon="6.21718">
        <ele>1136.9</ele>
        <time>2010-01-23T14:37:31Z</time>
      </trkpt>
      <trkpt lat="45.2902" lon="6.2172">
        <ele>1138.34</ele>
        <time>2010-01-23T14:37:42Z</time>
      </trkpt>
      <trkpt lat="45.29017" lon="6.21718">
        <ele>1138.82</ele>
        <time>2010-01-23T14:37:46Z</time>
      </trkpt>
      <trkpt lat="45.29011" lon="6.21715">
        <ele>1139.3</ele>
        <time>2010-01-23T14:37:51Z</time>
      </trkpt>
    </trkseg>
  </trk>
</gpx>